[[{"header":{"parameterUnit":"m.s-1","parameterCategory":1,"la1":30.6,"la2":29.2853,"lo1":-89.7004,"lo2":-87.6739,"dy":0.0162,"dx":0.0183,"nx":112,"ny":82,"refTime":"2024-09-06T06:00:00:Z","depth":0,"parameterNumber":2,"parameterNumberName":"U-component_of_WINDS"},"data":[0.0,0.0,0.0,0.0,0.0,0.0,0.0,0.0,0.0,0.0,0.0,0.0,0.0,0.0,0.0,0.0,0.0,0.0,0.0,0.0,0.0,0.0,0.0,0.0,0.0,0.0,0.0,0.0,0.0,0.0,0.0,0.0,0.0,0.0,0.0,0.0,0.0,0.0,0.0,0.0,0.0,0.0,0.0,0.0,0.0,0.0,0.0,0.0,0.0,0.0,0.0,0.0,0.0,0.0,0.0,0.0,0.0,0.0,0.0,0.0,0.0,0.0,0.0,0.0,0.0,0.0,0.0,0.0,0.0,0.0,0.0,0.0,0.0,0.0,0.0,0.0,0.0,0.0,0.0,0.0,0.0,0.0,0.0,0.0,0.0,0.0,0.0,0.0,0.0,0.0,4.8017,5.2383,5.5439,5.7285,5.7421,5.4828,5.1077,4.5971,0.0,0.0,0.0,0.0,0.0,0.0,0.0,0.0,0.0,0.0,0.0,0.0,0.0,0.0,0.0,0.0,0.0,0.0,0.0,0.0,0.0,0.0,0.0,0.0,0.0,0.0,0.0,0.0,0.0,0.0,0.0,0.0,0.0,0.0,0.0,0.0,0.0,0.0,0.0,0.0,0.0,0.0,0.0,0.0,0.0,0.0,0.0,0.0,0.0,0.0,0.0,0.0,0.0,0.0,0.0,0.0,0.0,0.0,0.0,0.0,0.0,0.0,0.0,0.0,0.0,0.0,0.0,0.0,0.0,0.0,0.0,0.0,0.0,0.0,0.0,0.0,0.0,0.0,0.0,0.0,0.0,0.0,0.0,0.0,0.0,0.0,0.0,0.0,0.0,0.0,0.0,0.0,0.0,0.0,0.0,0.0,0.0,0.0,0.0,0.0,0.0,0.0,0.0,0.0,4.813,5.458,5.5926,5.6732,5.7583,5.3908,4.9794,4.5622,0.0,0.0,0.0,0.0,0.0,0.0,0.0,0.0,0.0,0.0,0.0,0.0,0.0,0.0,0.0,0.0,0.0,0.0,0.0,0.0,0.0,0.0,0.0,0.0,0.0,0.0,0.0,0.0,0.0,0.0,0.0,0.0,0.0,0.0,0.0,0.0,0.0,0.0,0.0,0.0,0.0,0.0,0.0,0.0,0.0,0.0,0.0,0.0,0.0,0.0,0.0,0.0,0.0,0.0,0.0,0.0,0.0,0.0,0.0,0.0,0.0,0.0,0.0,0.0,0.0,0.0,0.0,0.0,0.0,0.0,0.0,0.0,0.0,0.0,0.0,0.0,0.0,0.0,0.0,0.0,0.0,0.0,0.0,0.0,0.0,0.0,0.0,0.0,0.0,0.0,0.0,0.0,0.0,0.0,0.0,0.0,0.0,0.0,0.0,0.0,0.0,0.0,0.0,4.8172,5.0079,5.5457,5.6108,5.6097,5.5838,5.2984,4.9351,4.5035,4.1294,0.0,0.0,0.0,0.0,0.0,0.0,0.0,0.0,0.0,0.0,0.0,0.0,0.0,0.0,0.0,0.0,0.0,0.0,0.0,0.0,0.0,0.0,0.0,0.0,0.0,0.0,0.0,0.0,0.0,0.0,0.0,0.0,0.0,0.0,0.0,0.0,0.0,0.0,0.0,0.0,0.0,0.0,0.0,0.0,0.0,0.0,0.0,0.0,0.0,0.0,0.0,0.0,0.0,0.0,0.0,0.0,0.0,0.0,0.0,0.0,0.0,0.0,0.0,0.0,0.0,0.0,0.0,0.0,0.0,0.0,0.0,0.0,0.0,0.0,0.0,0.0,0.0,0.0,0.0,0.0,0.0,0.0,0.0,0.0,0.0,0.0,0.0,0.0,0.0,0.0,0.0,0.0,0.0,0.0,0.0,0.0,0.0,0.0,0.0,0.0,0.0,0.0,5.1272,5.2552,5.5653,5.6222,5.5833,5.4341,5.1947,4.8745,4.4566,3.9529,0.0,0.0,0.0,0.0,0.0,0.0,0.0,0.0,0.0,0.0,0.0,0.0,0.0,0.0,0.0,0.0,0.0,0.0,0.0,0.0,0.0,0.0,0.0,0.0,0.0,0.0,0.0,0.0,0.0,0.0,0.0,0.0,0.0,0.0,0.0,0.0,0.0,0.0,0.0,0.0,0.0,0.0,0.0,0.0,0.0,0.0,0.0,0.0,0.0,0.0,0.0,0.0,0.0,0.0,0.0,0.0,0.0,0.0,0.0,0.0,0.0,0.0,0.0,0.0,0.0,0.0,0.0,0.0,0.0,0.0,0.0,0.0,0.0,0.0,0.0,0.0,0.0,0.0,0.0,0.0,0.0,0.0,0.0,0.0,0.0,0.0,0.0,0.0,0.0,0.0,0.0,0.0,0.0,0.0,0.0,0.0,0.0,0.0,0.0,0.0,0.0,0.0,5.1853,5.494,5.5239,5.6316,5.6256,5.4371,5.069,4.7309,4.4476,3.8242,0.0,0.0,0.0,0.0,0.0,0.0,0.0,0.0,0.0,0.0,0.0,0.0,0.0,0.0,0.0,0.0,0.0,0.0,0.0,0.0,0.0,0.0,0.0,0.0,0.0,0.0,0.0,0.0,0.0,0.0,0.0,0.0,0.0,0.0,0.0,0.0,0.0,0.0,0.0,0.0,0.0,0.0,0.0,0.0,0.0,0.0,0.0,0.0,0.0,0.0,0.0,0.0,0.0,0.0,0.0,0.0,0.0,0.0,0.0,0.0,0.0,0.0,0.0,0.0,0.0,0.0,0.0,0.0,0.0,0.0,0.0,0.0,0.0,0.0,0.0,0.0,0.0,0.0,0.0,0.0,0.0,0.0,0.0,0.0,0.0,0.0,0.0,0.0,0.0,0.0,0.0,0.0,0.0,0.0,0.0,0.0,0.0,0.0,0.0,0.0,0.0,0.0,5.1363,5.3952,5.5653,5.6585,5.6137,5.3773,5.1439,4.8274,4.3967,0.0,0.0,0.0,0.0,0.0,0.0,0.0,0.0,0.0,0.0,0.0,0.0,0.0,0.0,0.0,0.0,0.0,0.0,0.0,0.0,0.0,0.0,0.0,0.0,0.0,0.0,0.0,0.0,0.0,0.0,0.0,0.0,0.0,0.0,0.0,0.0,0.0,0.0,0.0,0.0,0.0,0.0,0.0,0.0,0.0,0.0,0.0,0.0,0.0,0.0,0.0,0.0,0.0,0.0,0.0,0.0,0.0,0.0,0.0,0.0,0.0,0.0,0.0,0.0,0.0,0.0,0.0,0.0,0.0,0.0,0.0,0.0,0.0,0.0,0.0,0.0,0.0,0.0,0.0,0.0,0.0,0.0,0.0,0.0,0.0,0.0,0.0,0.0,0.0,0.0,0.0,0.0,0.0,0.0,0.0,0.0,0.0,0.0,0.0,0.0,0.0,0.0,4.8019,5.1285,5.3832,5.5683,5.6462,5.5833,5.3408,5.1409,4.8207,4.3309,0.0,0.0,0.0,0.0,0.0,0.0,0.0,0.0,0.0,0.0,0.0,0.0,0.0,0.0,0.0,0.0,0.0,0.0,0.0,0.0,0.0,0.0,0.0,0.0,0.0,0.0,0.0,0.0,0.0,0.0,0.0,0.0,0.0,0.0,0.0,0.0,0.0,0.0,0.0,0.0,0.0,0.0,0.0,0.0,0.0,0.0,0.0,0.0,0.0,0.0,0.0,0.0,0.0,0.0,0.0,0.0,0.0,0.0,0.0,0.0,0.0,0.0,0.0,0.0,0.0,0.0,0.0,0.0,0.0,0.0,0.0,0.0,0.0,0.0,0.0,0.0,0.0,0.0,0.0,0.0,0.0,0.0,0.0,0.0,0.0,0.0,0.0,0.0,0.0,0.0,0.0,0.0,0.0,0.0,0.0,0.0,0.0,0.0,0.0,0.0,0.0,0.0,4.6946,5.1917,5.5179,5.5179,5.5803,5.5384,5.3378,5.0205,4.6642,0.0,0.0,0.0,0.0,0.0,0.0,0.0,0.0,0.0,0.0,0.0,0.0,0.0,0.0,0.0,0.0,0.0,0.0,0.0,0.0,0.0,0.0,0.0,0.0,0.0,0.0,0.0,0.0,0.0,0.0,0.0,0.0,0.0,0.0,0.0,0.0,0.0,0.0,0.0,0.0,0.0,0.0,0.0,0.0,0.0,0.0,0.0,0.0,0.0,0.0,0.0,0.0,0.0,0.0,0.0,0.0,0.0,0.0,0.0,0.0,0.0,0.0,0.0,0.0,0.0,0.0,0.0,0.0,0.0,0.0,0.0,0.0,0.0,0.0,0.0,0.0,0.0,0.0,0.0,0.0,0.0,0.0,0.0,0.0,0.0,0.0,0.0,0.0,0.0,0.0,0.0,0.0,0.0,0.0,0.0,0.0,0.0,0.0,0.0,0.0,0.0,0.0,0.0,4.6852,5.1917,5.5179,5.5179,5.5803,5.5384,5.3378,5.1439,4.8057,4.274,0.0,0.0,0.0,0.0,0.0,0.0,0.0,0.0,0.0,0.0,0.0,0.0,0.0,0.0,0.0,0.0,0.0,0.0,0.0,0.0,0.0,0.0,0.0,0.0,0.0,0.0,0.0,0.0,0.0,0.0,0.0,0.0,0.0,0.0,0.0,0.0,0.0,0.0,0.0,0.0,0.0,0.0,0.0,0.0,0.0,0.0,0.0,0.0,0.0,0.0,0.0,0.0,0.0,0.0,0.0,0.0,0.0,0.0,0.0,0.0,0.0,0.0,0.0,0.0,0.0,0.0,0.0,0.0,0.0,0.0,0.0,0.0,0.0,0.0,0.0,0.0,0.0,0.0,0.0,0.0,0.0,0.0,0.0,0.0,0.0,0.0,0.0,0.0,0.0,0.0,0.0,0.0,0.0,0.0,0.0,0.0,0.0,0.0,0.0,0.0,0.0,0.0,4.7189,5.2097,5.5299,5.5593,5.5743,5.5085,5.3348,5.1977,4.8805,4.314,0.0,0.0,0.0,0.0,0.0,0.0,0.0,0.0,0.0,0.0,0.0,0.0,0.0,0.0,0.0,0.0,0.0,0.0,0.0,0.0,0.0,0.0,0.0,0.0,0.0,0.0,0.0,0.0,0.0,0.0,0.0,0.0,0.0,0.0,0.0,0.0,0.0,0.0,0.0,0.0,0.0,0.0,0.0,0.0,0.0,0.0,0.0,0.0,0.0,0.0,0.0,0.0,0.0,0.0,0.0,0.0,0.0,0.0,0.0,0.0,0.0,0.0,0.0,0.0,0.0,0.0,0.0,0.0,0.0,0.0,0.0,0.0,0.0,0.0,0.0,0.0,0.0,0.0,0.0,0.0,0.0,0.0,0.0,0.0,0.0,0.0,0.0,0.0,0.0,0.0,0.0,0.0,0.0,0.0,0.0,0.0,0.0,0.0,0.0,0.0,0.0,0.0,4.781,5.236,5.5418,5.6042,5.5564,5.464,5.3318,5.1977,4.8992,4.3818,0.0,0.0,0.0,0.0,0.0,0.0,0.0,0.0,0.0,0.0,0.0,0.0,0.0,0.0,0.0,0.0,0.0,0.0,0.0,0.0,0.0,0.0,0.0,0.0,0.0,0.0,0.0,0.0,0.0,0.0,0.0,0.0,0.0,0.0,0.0,0.0,0.0,0.0,0.0,0.0,0.0,0.0,0.0,0.0,0.0,0.0,0.0,0.0,0.0,0.0,0.0,0.0,0.0,0.0,0.0,0.0,0.0,0.0,0.0,0.0,4.6427,4.4039,0.0,0.0,0.0,0.0,0.0,0.0,0.0,0.0,0.0,0.0,0.0,0.0,0.0,0.0,0.0,0.0,0.0,0.0,0.0,0.0,0.0,0.0,0.0,0.0,0.0,0.0,0.0,0.0,0.0,0.0,0.0,0.0,0.0,0.0,0.0,0.0,0.0,0.0,0.0,0.0,4.787,5.236,5.5239,5.5414,5.5269,5.464,5.3318,5.1977,4.9381,4.5155,4.0786,0.0,0.0,0.0,0.0,0.0,0.0,0.0,0.0,0.0,0.0,0.0,0.0,0.0,0.0,0.0,0.0,0.0,0.0,0.0,0.0,0.0,0.0,0.0,0.0,0.0,0.0,0.0,0.0,0.0,0.0,0.0,0.0,0.0,0.0,0.0,0.0,0.0,0.0,0.0,0.0,0.0,0.0,0.0,0.0,0.0,0.0,0.0,0.0,0.0,0.0,0.0,0.0,0.0,0.0,0.0,0.0,0.0,0.0,0.0,5.162,4.9202,0.0,0.0,0.0,0.0,0.0,0.0,0.0,0.0,0.0,0.0,0.0,0.0,0.0,0.0,0.0,0.0,0.0,0.0,0.0,0.0,0.0,0.0,0.0,0.0,0.0,0.0,0.0,0.0,0.0,0.0,0.0,0.0,0.0,0.0,0.0,0.0,0.0,0.0,0.0,0.0,4.8349,5.254,5.5299,5.5653,5.5089,5.4311,5.3288,5.1977,4.9793,4.6471,4.309,0.0,0.0,0.0,0.0,0.0,0.0,0.0,0.0,0.0,0.0,0.0,0.0,0.0,0.0,0.0,0.0,0.0,0.0,0.0,0.0,0.0,0.0,0.0,0.0,0.0,0.0,0.0,0.0,0.0,0.0,0.0,0.0,0.0,0.0,0.0,0.0,0.0,0.0,0.0,0.0,0.0,0.0,0.0,0.0,0.0,0.0,0.0,0.0,0.0,0.0,0.0,0.0,0.0,5.7095,5.8303,6.001,5.8813,5.9164,6.0555,5.7684,5.5761,5.4413,5.0631,0.0,0.0,0.0,0.0,0.0,0.0,0.0,0.0,0.0,0.0,0.0,0.0,0.0,0.0,0.0,0.0,0.0,0.0,0.0,0.0,0.0,0.0,0.0,0.0,4.7459,4.7788,4.3539,0.0,0.0,0.0,0.0,0.0,0.0,0.0,0.0,0.0,0.0,0.0,4.9037,5.2839,5.5388,5.5983,5.491,5.3922,5.3258,5.1977,5.009,4.7546,4.5382,4.2285,0.0,0.0,0.0,0.0,0.0,0.0,0.0,0.0,0.0,0.0,0.0,0.0,0.0,0.0,0.0,0.0,0.0,0.0,0.0,0.0,0.0,0.0,0.0,0.0,0.0,0.0,0.0,0.0,0.0,0.0,0.0,0.0,4.9756,5.071,0.0,0.0,0.0,0.0,0.0,0.0,0.0,0.0,0.0,0.0,0.0,0.0,0.0,5.5962,5.735,6.0388,6.1984,6.2081,6.4362,6.5892,6.6733,6.6551,6.6282,6.5952,6.5502,0.0,5.5776,5.3494,0.0,0.0,0.0,0.0,0.0,0.0,0.0,0.0,0.0,0.0,0.0,0.0,0.0,0.0,0.0,0.0,0.0,0.0,0.0,0.0,0.0,0.0,5.2755,5.2181,5.1828,5.1648,0.0,4.6582,4.1852,4.0924,3.9738,0.0,0.0,0.0,0.0,0.0,0.0,0.0,4.974,5.3084,5.5209,5.5299,5.464,5.3922,5.3258,5.1977,5.0222,4.7881,4.5295,4.2912,4.0828,3.7585,0.0,0.0,0.0,0.0,0.0,0.0,0.0,0.0,0.0,0.0,0.0,0.0,0.0,0.0,0.0,0.0,0.0,0.0,0.0,0.0,0.0,0.0,0.0,0.0,0.0,0.0,0.0,0.0,0.0,4.7395,5.0756,5.0332,5.038,4.9371,0.0,0.0,0.0,0.0,0.0,0.0,0.0,0.0,0.0,5.9934,6.0084,6.1044,6.3079,6.4545,6.5503,6.5862,6.7029,6.7928,6.8555,6.8555,6.8227,6.7538,6.7148,6.4964,6.1433,5.7932,5.479,5.1947,0.0,0.0,0.0,0.0,4.9045,4.9613,5.1768,5.2037,5.1253,5.0115,0.0,0.0,0.0,0.0,0.0,0.0,0.0,4.8207,0.0,0.0,5.4311,5.4785,5.491,5.494,5.4905,5.2091,4.8738,0.0,4.4796,4.3389,4.0187,4.0535,0.0,0.0,0.0,4.8775,5.105,5.3593,5.5179,5.5179,5.4251,5.3503,5.3228,5.127,4.9419,4.7905,4.5811,4.3757,4.1741,3.9658,3.764,0.0,0.0,0.0,0.0,0.0,0.0,0.0,0.0,0.0,0.0,0.0,0.0,0.0,0.0,0.0,0.0,0.0,0.0,0.0,0.0,0.0,0.0,0.0,0.0,0.0,0.0,0.0,0.0,4.9357,5.2007,5.0714,5.2127,5.1618,0.0,0.0,0.0,0.0,0.0,0.0,5.8018,5.8527,6.0623,6.4754,6.5024,6.6101,6.8226,6.8256,6.8495,6.9005,6.8826,6.8974,6.9482,6.9482,6.9123,6.8466,6.7777,6.7029,6.5922,6.1642,5.862,5.6496,5.4311,5.3054,5.2636,5.3773,5.4306,5.482,5.7453,5.7752,5.6731,5.5414,5.3384,5.0877,4.7557,0.0,0.0,0.0,0.0,5.0564,5.2665,5.4072,5.5239,5.6406,5.6885,5.69,5.6206,5.5564,5.4064,0.0,4.9523,4.8087,4.4287,4.4367,0.0,4.4835,4.7668,5.0444,5.2217,5.4042,5.5179,5.5179,5.368,5.2704,5.2778,5.0258,4.815,4.6947,4.5647,4.3895,4.1646,4.09,3.9433,3.6978,0.0,0.0,0.0,0.0,0.0,0.0,0.0,0.0,0.0,0.0,0.0,0.0,0.0,0.0,0.0,0.0,0.0,0.0,0.0,0.0,0.0,0.0,0.0,0.0,0.0,0.0,0.0,0.0,0.0,5.4132,5.6765,0.0,0.0,0.0,0.0,5.5743,5.8168,6.0775,6.3468,6.4814,6.6789,6.9574,7.0201,7.0889,7.1637,7.1637,7.1667,7.173,7.1068,7.0769,7.0799,7.0799,7.047,6.9873,6.9183,6.8166,6.667,6.3318,6.1493,6.0538,5.7902,5.6466,5.6042,5.6645,5.7304,5.7965,5.877,5.9009,5.9039,5.9578,5.7573,5.467,5.3198,5.1858,0.0,0.0,5.3354,5.5055,5.5803,5.6492,5.7124,5.7846,5.7543,5.6875,5.5916,5.5264,5.463,0.0,5.2875,5.1528,5.0039,0.0,4.8977,4.8977,5.0212,5.1618,5.2989,5.4341,5.5179,5.5179,5.2817,5.1342,5.1653,4.8921,4.6393,4.4511,4.4048,4.2881,4.0643,3.9975,3.9416,3.8873,3.54,0.0,0.0,0.0,0.0,0.0,0.0,0.0,0.0,0.0,0.0,0.0,0.0,0.0,0.0,0.0,0.0,0.0,0.0,0.0,0.0,0.0,0.0,0.0,0.0,0.0,0.0,0.0,0.0,5.8052,6.0146,0.0,5.6974,5.8082,5.9608,6.1104,6.2869,6.5233,6.8286,6.8884,7.0171,7.2415,7.2295,7.2505,7.3163,7.2744,7.2325,7.1876,7.1637,7.1308,7.0889,7.0889,7.056,6.9963,6.9273,6.8465,6.7508,6.5443,6.4187,6.3469,6.2091,6.1403,6.1194,6.1042,6.1104,6.1343,6.1583,6.1373,6.0924,6.0296,5.871,5.6974,5.6496,5.5718,5.5149,5.5807,5.5762,5.5688,5.6328,5.5956,5.5424,5.5652,5.5538,5.5282,5.4933,5.4677,5.4513,5.4346,5.3062,5.1463,4.9737,4.9643,4.9601,4.8955,4.9639,5.0644,5.1764,5.2143,5.2293,5.2293,5.1047,5.0106,4.987,4.7341,4.5205,4.4001,4.2527,4.1312,4.0542,4.0134,3.9596,3.8901,3.734,3.4933,0.0,0.0,0.0,0.0,0.0,0.0,0.0,0.0,0.0,0.0,0.0,0.0,0.0,0.0,0.0,0.0,0.0,0.0,0.0,0.0,0.0,0.0,0.0,0.0,0.0,5.7932,6.1343,6.1162,6.3676,6.4276,6.1373,6.2929,6.4725,6.6221,6.7358,6.9034,7.1457,7.1787,7.2505,7.3851,7.3702,7.3791,7.421,7.3343,7.2684,7.2235,7.1757,7.1338,7.0889,7.0889,7.0679,7.026,6.9602,6.8944,6.8257,6.7119,6.6281,6.5592,6.4695,6.4216,6.3947,6.3528,6.3287,6.3108,6.3108,6.2808,6.2241,6.1134,6.0176,5.9368,5.8892,5.8092,5.7358,5.7567,5.6494,5.5367,5.5793,5.5152,5.4386,5.4386,5.4386,5.4293,5.3942,5.3716,5.3483,5.3121,5.2691,5.1986,5.0713,5.0713,5.0684,5.0123,5.0214,5.0602,5.1405,5.1017,5.0713,5.0713,4.972,4.8845,4.8408,4.5871,4.3959,4.3179,4.1309,4.0154,3.9982,3.9424,3.884,3.8276,3.7511,3.5604,3.2469,0.0,0.0,0.0,0.0,0.0,0.0,0.0,0.0,0.0,0.0,0.0,0.0,0.0,0.0,0.0,0.0,0.0,0.0,0.0,0.0,0.0,0.0,0.0,5.7304,6.1253,6.3947,6.3437,6.7359,6.8794,6.5562,6.8166,7.032,7.0949,7.1577,7.2265,7.2954,7.3582,7.3911,7.3911,7.454,7.4869,7.4869,7.3578,7.292,7.289,7.1574,7.0916,7.0919,7.0919,7.0889,7.0827,7.026,6.9602,6.8942,6.8256,6.7597,6.6879,6.5532,6.4605,6.4036,6.4006,6.3617,6.3108,6.3108,6.3108,6.2988,6.2331,6.2093,6.1795,6.048,5.8942,5.7513,5.6852,5.5558,5.4352,5.4352,5.4323,5.4293,5.4293,5.4293,5.3981,5.2952,5.2291,5.1612,5.0594,5.194,5.327,5.33,5.2746,5.2419,5.2733,5.2038,0.0,5.1932,5.1155,5.0574,5.0574,4.8799,4.7534,4.7232,4.463,4.2647,4.1833,4.0431,3.9421,3.8919,3.7813,3.7235,3.7261,3.5812,3.4405,3.3117,0.0,0.0,0.0,0.0,0.0,0.0,0.0,0.0,0.0,0.0,0.0,0.0,0.0,0.0,0.0,0.0,0.0,0.0,0.0,0.0,0.0,5.8231,6.2091,6.2091,6.5293,6.8076,6.9335,7.1038,7.1757,7.0797,7.1577,7.2385,7.3013,7.3253,7.3642,7.43,7.451,7.4634,7.4634,7.4813,7.4766,7.4456,7.4099,7.3682,7.3176,7.2313,7.1821,7.1607,7.1128,7.0789,7.0501,6.9843,6.9456,6.9189,6.8026,6.7492,6.7257,6.616,6.5323,6.4665,6.4186,6.3617,6.3108,6.3108,6.3108,6.302,6.261,6.1438,6.0121,5.9537,5.8013,5.6424,5.6256,5.5046,5.3828,5.3828,5.2969,5.2149,5.2149,5.1814,5.1428,5.1099,5.0652,5.0168,4.9888,5.0251,5.0715,5.0966,5.0529,5.0288,5.0621,4.9334,4.8476,4.8778,4.8047,4.7534,4.7534,4.6993,4.6327,4.5419,4.39,4.2389,4.0958,3.9346,3.8592,3.8894,3.8165,3.799,3.8416,3.6974,3.6098,0.0,0.0,0.0,0.0,0.0,0.0,0.0,0.0,0.0,0.0,0.0,0.0,0.0,0.0,0.0,0.0,0.0,0.0,0.0,0.0,0.0,0.0,6.2929,6.649,6.7567,6.9423,7.1158,7.2565,7.3313,7.3732,7.3732,7.3732,7.3881,7.427,7.43,7.448,7.4903,7.4903,7.4903,7.4903,7.4731,7.4628,7.4559,7.3981,7.3552,7.3278,7.2485,7.2015,7.183,7.1146,7.075,7.0522,6.9871,6.9456,6.9068,6.7363,6.6902,0.0,0.0,0.0,0.0,0.0,6.3681,6.2761,6.3145,6.2646,6.1762,6.1555,6.0308,5.8786,5.8346,5.6907,5.5366,5.5091,5.3864,5.2653,5.2653,5.1984,5.1306,5.1306,5.1021,5.0845,5.1071,5.0695,5.0368,5.0594,5.0268,0.0,5.0201,4.9778,4.9552,4.9869,4.873,4.7856,4.7942,4.7192,4.6547,4.6326,4.6301,4.5849,4.469,4.3815,0.0,0.0,0.0,3.8542,3.819,3.7839,0.0,0.0,0.0,0.0,0.0,0.0,0.0,0.0,3.5873,3.57,0.0,0.0,0.0,0.0,0.0,0.0,0.0,0.0,0.0,0.0,0.0,0.0,0.0,0.0,0.0,0.0,6.7268,7.032,7.2804,7.3133,7.3343,7.3941,7.4544,7.4903,7.4903,7.4903,7.4903,7.4903,7.4903,7.4903,7.4903,7.4834,0.0,0.0,0.0,7.4387,7.4697,7.3275,7.2703,7.299,7.1855,7.1321,7.1326,7.06,7.0244,7.0181,6.9571,6.8956,6.8272,6.6285,6.5857,6.639,6.65,6.5878,6.4917,6.4542,6.3296,6.1965,6.2851,0.0,0.0,5.9801,5.8846,5.7578,5.6961,5.5655,5.4282,5.3692,5.2532,5.1473,5.1473,5.1473,5.1473,5.1473,5.1423,5.1498,5.2,5.1674,5.1423,5.1925,5.1197,5.0519,5.0519,4.9992,4.9687,5.0001,4.9329,4.8737,4.8545,4.7691,4.6923,4.6421,0.0,0.0,4.479,4.4217,4.3212,4.1603,4.0551,3.927,3.7713,3.7788,3.8341,3.9346,3.9346,4.0326,4.2313,4.2313,4.2562,4.2989,3.8964,3.8213,0.0,0.0,0.0,0.0,0.0,0.0,0.0,0.0,0.0,0.0,0.0,0.0,0.0,0.0,0.0,6.664,6.9991,7.2714,7.427,7.448,7.454,7.4693,7.4843,7.4903,7.4903,7.4903,7.4903,7.4903,7.4903,7.4903,7.4903,7.4594,7.4421,7.4421,7.4075,7.3761,7.3516,7.1934,7.1135,7.1179,6.9146,0.0,6.86,6.7509,6.6835,6.6485,6.5945,6.5612,6.5437,6.4483,6.3771,6.3275,6.3511,6.2744,6.145,6.0866,6.0406,6.011,6.0318,5.9794,5.8979,5.8723,5.7396,5.582,5.5472,5.4371,0.0,5.308,5.2817,5.2569,5.2569,5.2569,5.2569,5.2569,5.2277,5.1975,5.2076,5.1674,5.1322,5.1423,5.1272,5.1122,5.1122,5.0268,4.9622,4.9687,4.9202,4.88,4.8762,4.7788,4.7074,4.6948,4.6547,4.605,4.5372,4.4794,4.394,4.2735,4.206,4.1356,4.0549,4.1379,4.1984,4.221,4.221,4.2411,4.2838,4.2838,4.314,4.3614,4.2328,4.1949,0.0,0.0,0.0,0.0,0.0,0.0,0.0,0.0,0.0,0.0,0.0,5.6944,5.9638,0.0,6.6999,6.9961,7.2116,7.3762,7.4783,7.4903,7.4903,7.4903,7.4903,7.4903,7.4903,7.4903,7.48,7.4594,7.4594,7.4525,7.4352,7.4144,7.404,7.404,7.3691,7.3099,7.2258,7.1044,7.0135,6.9486,6.8133,6.7619,6.7753,6.6577,6.5919,6.5681,6.4818,6.4445,6.4391,6.342,6.1745,5.9792,6.0672,6.0727,6.038,6.0546,5.9995,5.9199,5.9698,5.8711,5.7255,5.709,5.5747,5.4122,5.3979,5.3452,5.2895,5.2895,5.2895,5.2895,5.2895,5.2895,5.2895,5.2895,5.2729,5.2528,5.2528,5.2302,5.2101,5.2101,5.1875,5.1699,5.1699,5.0996,5.0343,5.0042,4.954,4.912,4.8843,4.8284,4.7832,4.7525,4.7023,4.6471,4.5949,4.4869,4.3966,4.3413,4.2889,4.2487,4.2158,4.2685,4.314,4.3416,4.3388,4.3664,4.4271,4.4271,4.4518,4.5045,4.4769,4.4493,0.0,0.0,0.0,0.0,0.0,0.0,0.0,5.1977,5.4192,5.6585,5.9697,6.2869,6.5622,6.8136,7.05,7.2744,7.3672,7.427,7.4843,7.4834,7.4766,7.4766,7.4834,7.4869,7.48,7.4766,7.4628,7.4214,7.4179,7.3935,7.3346,7.324,7.3034,7.275,7.2358,7.1618,7.0586,6.9719,6.8717,6.7702,6.7049,6.674,6.6713,6.567,6.5215,6.5161,6.3931,6.346,6.3353,6.2166,5.9966,5.746,5.85,5.9227,5.9769,6.0463,5.9642,5.8326,5.9094,5.777,5.5701,5.5597,5.4423,5.302,5.292,5.2895,5.2895,5.2895,5.2895,5.2895,5.2895,5.2895,5.2895,5.2895,5.2895,5.2895,5.2895,5.2895,5.2895,5.2895,5.2578,5.2277,5.2277,5.18,5.1197,5.0519,5.0042,4.9565,4.9044,4.8868,4.8617,4.8134,4.7575,4.7074,4.6652,4.5372,4.4518,4.4292,4.3966,4.3639,4.3313,4.3441,4.3614,4.3966,4.3966,4.4418,4.5321,4.5422,4.5773,4.6301,4.6426,4.6175,4.5792,4.645,4.8027,5.1552,5.2187,5.4221,0.0,6.3169,6.2838,6.658,6.8166,6.9153,7.0081,7.1457,7.2774,7.3642,7.433,7.4813,7.4903,7.4594,7.4352,7.4352,7.4663,7.4766,7.4387,7.4352,7.4214,7.3866,7.3831,7.3175,7.1661,7.1234,7.0402,6.8953,6.8538,6.8235,6.8121,6.6611,6.5779,6.5621,6.4083,6.3367,6.3341,6.2733,6.2455,6.2379,6.1239,6.0732,6.0656,5.9566,5.8883,5.8478,5.8165,5.8074,5.8083,5.7664,5.7069,5.6464,5.6613,5.6125,5.5364,5.4895,5.4225,5.3532,5.302,5.2895,5.2895,5.2895,5.2895,5.2895,5.2895,5.2895,5.2895,5.2895,5.2895,5.2895,5.2895,5.2895,5.2895,5.2895,5.2845,5.2795,5.2795,5.2377,5.1649,5.0536,5.0336,5.0117,4.9565,4.9095,4.8768,4.8718,4.8159,4.7807,4.7732,4.7556,4.7029,4.61,4.6396,4.5969,4.4464,4.4945,4.4995,4.4514,4.4514,4.4564,4.469,4.5246,4.5773,4.6326,4.6772,4.6722,5.2911,5.3658,5.4371,5.7573,5.9608,6.1792,6.5562,6.646,6.7208,6.9602,7.0949,7.1876,7.2535,7.3402,7.4151,7.442,7.4723,7.48,7.4594,7.3308,7.2169,7.168,7.0896,7.1361,7.3777,7.314,7.2408,7.2014,7.1125,7.0181,6.9225,6.9038,6.8624,6.7969,6.7778,6.7242,6.63,6.5621,6.4816,6.3827,6.3123,6.2781,6.2781,6.2245,6.1843,6.1492,6.0663,6.0311,6.0236,5.9118,5.8691,5.8704,5.8453,5.8177,5.7826,5.7211,5.686,5.6609,5.6319,5.5842,5.529,5.4773,5.4185,5.3607,5.3046,5.2895,5.2895,5.2895,5.2895,5.2895,5.2895,5.2895,5.2895,5.2895,5.2895,5.2895,5.2895,5.2895,5.2895,5.2895,5.2895,5.2895,5.2895,5.2694,5.2327,5.1523,5.0812,5.0218,4.9665,4.9389,4.917,4.8843,4.8592,4.8259,4.7933,4.7908,4.7707,4.728,4.6878,4.6597,4.6527,4.6175,4.5849,4.5568,4.6195,4.6225,4.5568,4.6476,4.7004,4.7255,4.7481,4.7456,5.6825,5.8351,5.955,6.2241,6.5383,6.7837,6.7897,6.9183,7.0679,7.1757,7.2624,7.3343,7.3821,7.43,7.4599,7.4599,7.441,7.4115,7.3702,7.1541,6.9779,6.9173,6.7656,6.7988,7.1373,7.0819,7.0159,6.9894,6.8775,6.7817,6.7088,6.7049,6.6844,6.6378,6.6378,6.5791,6.4643,6.4603,6.3988,6.2781,6.2781,6.2781,6.2781,6.2421,6.2019,6.1592,6.104,6.0688,6.0487,5.9558,5.9043,5.893,5.893,5.8679,5.8278,5.7663,5.7261,5.6935,5.657,5.6068,5.5516,5.4999,5.4411,5.3833,5.3306,5.2995,5.2895,5.2895,5.2895,5.2895,5.2895,5.2895,5.2895,5.2895,5.2895,5.2895,5.2895,5.2895,5.2895,5.2895,5.2895,5.2895,5.2895,5.2895,5.2694,5.2176,5.1398,5.0619,4.9916,4.969,4.9439,4.9069,4.9044,4.8837,4.841,4.8385,4.8234,4.7933,4.733,4.7129,4.7456,4.6848,4.6446,4.6301,4.7079,4.7079,4.6301,4.723,4.7782,4.7908,4.8083,4.8234,5.467,5.7606,6.1644,6.4246,6.7448,7.038,7.2265,7.3253,7.3941,7.4663,7.427,7.3881,7.3881,7.3911,7.3911,7.3911,7.3185,7.2414,7.1999,6.9322,6.7442,6.7522,6.6284,6.5599,6.6263,6.7106,6.7681,6.7762,6.774,6.701,6.549,6.5371,6.4643,6.2985,6.2945,6.2945,6.2863,6.2863,6.2863,6.2781,6.2781,6.2781,6.2781,6.2781,6.2756,6.2706,6.2195,6.1642,6.1115,6.0512,5.996,5.9483,5.9483,5.9458,5.9382,5.8855,5.7939,5.6985,5.6985,5.6609,5.6093,5.5541,5.5024,5.4471,5.3858,5.3331,5.2895,5.2895,5.2895,5.2895,5.2895,5.2895,5.2895,5.2895,5.2895,5.2895,5.2895,5.2895,5.2895,5.2895,5.2895,5.2895,5.2895,5.2895,5.2694,5.2176,5.2076,5.1649,5.0544,4.9916,4.959,4.9565,4.9565,4.9565,4.954,4.954,4.9063,4.7983,4.8441,4.8014,4.6426,4.6823,4.6823,4.6326,4.6351,4.6351,4.6301,4.6848,4.7375,4.7933,4.8485,4.9069,6.0179,6.2811,6.5203,6.8704,7.0769,7.2325,7.3851,7.439,7.436,7.3702,7.3043,7.2295,7.1427,7.0818,7.0564,7.097,7.0383,6.9894,6.9912,6.7524,6.5451,6.4512,6.2978,6.1928,6.1747,6.3674,6.5078,6.5534,6.456,6.3858,6.3665,6.3625,6.3367,6.2822,6.2781,6.2781,6.2781,6.2781,6.2781,6.2781,6.2781,6.2781,6.2781,6.2781,6.2781,6.2756,6.2245,6.1893,6.1667,6.0713,6.0211,6.001,5.9633,5.9483,5.9483,5.9307,5.8554,5.7549,5.7136,5.6634,5.6118,5.5566,5.5265,5.5049,5.4471,5.4195,5.3934,5.3557,5.3432,5.3356,5.297,5.2895,5.2895,5.2895,5.2895,5.2895,5.2895,5.2895,5.2895,5.2895,5.2895,5.2895,5.2895,5.2895,5.2694,5.2176,5.18,5.1272,5.0486,5.0243,4.9992,4.964,4.959,4.959,4.959,4.959,4.9439,4.9063,4.851,4.8284,4.8485,4.7958,4.7556,4.738,4.7757,4.7757,4.738,4.7933,4.8485,4.9038,4.9238,4.9414,6.3061,6.4967,6.6385,7.0681,7.2235,7.2783,7.2888,7.3171,7.2915,7.1077,6.9659,6.8488,6.7633,6.6759,6.661,6.7793,6.7512,6.733,6.773,6.5648,6.37,6.2664,6.1204,6.0261,6.0111,6.1708,6.2973,6.3567,6.2788,6.2546,6.3099,6.3149,6.3149,6.3149,6.3149,6.3048,6.2781,6.2781,6.2781,6.2781,6.2781,6.2781,6.2781,6.2781,6.2781,6.2781,6.2446,6.2195,6.1943,6.1215,6.0688,6.0286,5.9935,5.9659,5.9483,5.9483,5.893,5.8102,5.7524,5.6846,5.6143,5.5792,5.5541,5.5315,5.4999,5.4622,5.4245,5.4059,5.3733,5.3381,5.3256,5.302,5.2895,5.2895,5.2895,5.2895,5.2895,5.2895,5.2895,5.2895,5.2895,5.2895,5.2895,5.2895,5.277,5.2452,5.2101,5.1599,5.082,5.0544,5.0268,4.9916,4.9715,4.959,4.959,4.959,4.9515,4.9314,4.8611,4.8535,4.9264,4.841,4.8008,4.8209,4.8385,4.8284,4.7908,4.8517,4.8894,4.9012,4.9414,4.949,6.3239,6.4244,6.559,7.0272,7.1879,7.1783,6.9721,6.9928,6.9766,6.7012,6.4482,6.2769,6.2656,6.1939,6.2117,6.4379,6.4581,6.4696,6.5567,6.383,6.2395,6.2024,6.1065,6.0613,6.1165,6.124,6.1492,6.2044,6.2546,6.3073,6.3651,6.3701,6.3701,6.3701,6.3676,6.3375,6.2807,6.2781,6.2781,6.2781,6.2781,6.2781,6.2781,6.2781,6.2781,6.2781,6.2781,6.248,6.2044,6.1994,6.1341,6.0362,6.0272,5.996,5.9483,5.9483,5.9156,5.8642,5.8077,5.7173,5.6244,5.6219,5.5867,5.544,5.544,5.4687,5.3934,5.4496,5.3858,5.3121,5.3582,5.3296,5.292,5.2895,5.2895,5.2895,5.2895,5.2895,5.2895,5.2895,5.2895,5.2895,5.2895,5.2895,5.2895,5.2895,5.2895,5.2494,5.1473,5.0795,5.0386,5.0336,4.9866,4.9515,4.9515,4.9515,4.9289,4.8793,4.8768,4.8768,4.8768,4.8209,4.8184,4.8793,4.8209,4.7933,4.7983,4.851,4.8542,4.8008,4.9088,4.9314,6.4651,6.6728,6.8337,7.0048,7.0307,6.9838,6.8855,6.782,6.6253,6.3287,6.074,5.851,5.6669,5.6778,5.7732,5.9582,6.1037,6.2419,6.3878,6.33,6.2563,6.2044,6.1743,6.1642,6.1793,6.2169,6.2647,6.3224,6.2998,6.3073,6.3651,6.3701,6.3701,6.3701,6.3274,6.2973,6.2781,6.2781,6.2781,6.2781,6.2781,6.2781,6.2781,6.2781,6.2781,6.2781,6.2781,6.2706,6.2505,6.1743,6.1215,6.0889,6.0035,5.9608,5.9483,5.9483,5.9156,5.8629,5.8102,5.7424,5.6709,5.6344,5.6118,5.6018,5.6018,5.5792,5.5516,5.5265,5.4988,5.4612,5.3884,5.3607,5.3406,5.2995,5.2895,5.2895,5.2895,5.2895,5.2895,5.2895,5.2895,5.2895,5.2895,5.2895,5.2895,5.2895,5.2895,5.2644,5.1975,5.1021,5.0268,4.9841,4.8912,4.8335,4.8335,4.8335,4.8284,4.8134,4.8134,4.8134,4.8134,4.7983,4.8184,4.8793,4.8209,4.8335,4.9163,4.8944,4.8944,4.9163,4.9464,4.9515,6.5399,6.6844,6.7722,6.8528,6.8272,6.7165,6.4322,6.3294,6.1647,5.7197,5.4825,5.2961,5.1066,5.1961,5.3655,5.5556,5.8326,6.0909,6.2926,6.3376,6.3379,6.314,6.3073,6.3073,6.3073,6.3375,6.3676,6.4002,6.3726,6.3802,6.4354,6.4379,6.4379,6.4379,6.4078,6.3676,6.3199,6.2907,6.2781,6.2781,6.2781,6.2781,6.2781,6.2781,6.2781,6.2781,6.2781,6.2781,6.2731,6.1893,6.1391,6.109,6.0211,5.9709,5.9483,5.9483,5.9307,5.8956,5.8177,5.7675,5.7236,5.647,5.6219,5.6219,5.6219,5.6043,5.5792,5.5465,5.5039,5.4561,5.4185,5.3884,5.3683,5.3658,5.3457,5.3256,5.3256,5.3046,5.2895,5.2895,5.2895,5.2895,5.2895,5.2895,5.2895,5.2895,5.2895,5.277,5.2468,5.1699,5.0845,5.0042,4.9615,4.9188,4.8686,4.9113,4.9289,4.9038,4.9012,4.9012,4.9012,4.8786,4.8912,4.949,4.8937,4.8837,4.927,4.9163,4.9163,4.9238,4.9715,4.9816,6.5602,6.5713,6.5569,6.6404,6.6055,6.4157,5.8797,5.7904,5.6499,5.0541,4.8277,4.7077,4.603,4.7667,4.9981,5.2473,5.6285,5.987,6.2461,6.3577,6.4165,6.4387,6.4521,6.4622,6.4622,6.4672,6.4722,6.4722,6.4722,6.4856,6.5258,6.5283,6.5258,6.5183,6.5183,6.4705,6.3701,6.3199,6.2857,6.2781,6.2781,6.2781,6.2781,6.2781,6.2781,6.2781,6.2781,6.2781,6.2731,6.2144,6.1617,6.1115,6.0462,5.991,5.9483,5.9483,5.9483,5.9357,5.8353,5.8001,5.7801,5.6595,5.6219,5.6219,5.6219,5.5867,5.5491,5.5491,5.4787,5.4135,5.4597,5.4346,5.4034,5.4496,5.4135,5.3708,5.3708,5.3306,5.2895,5.2895,5.2895,5.2895,5.2895,5.2895,5.2895,5.2895,5.2895,5.2895,5.2895,5.2377,5.1624,5.0645,5.0845,5.0645,4.9665,5.0494,5.0845,5.0343,5.0285,5.0285,5.0285,4.9841,4.9866,5.0386,4.9941,4.9515,4.9145,4.9515,4.949,4.9145,5.0017,5.0167,6.5174,6.5451,6.5319,6.5017,6.3779,6.169,5.7835,5.4859,5.168,4.7262,4.4696,4.3023,4.2343,4.4602,4.779,5.163,5.5029,5.8479,6.2285,6.2939,6.3256,6.3751,6.4605,6.5157,6.5157,6.5559,6.5835,6.5835,6.5835,6.566,6.5308,6.5283,6.5082,6.4672,6.4647,6.4371,6.3701,6.3601,6.3299,6.2781,6.2781,6.2781,6.2781,6.2781,6.2781,6.2781,6.2781,6.2781,6.2706,6.1743,6.1266,6.109,6.0035,5.9583,5.9483,5.9483,5.9483,5.9408,5.8805,5.8541,5.8303,5.6721,5.6219,5.6219,5.6219,5.6143,5.6068,5.6068,5.5917,5.5691,5.534,5.5164,5.5013,5.4672,5.4135,5.3708,5.3708,5.3306,5.2895,5.2895,5.2895,5.2895,5.2895,5.2895,5.2895,5.2895,5.2895,5.2895,5.2895,5.2051,5.1348,5.1147,5.0393,4.9816,4.9615,4.9766,4.9841,4.9741,4.9741,4.9741,4.9741,4.964,4.9866,5.0386,5.0318,5.0469,5.0878,5.0469,5.0469,5.0878,5.0544,5.0336,6.5162,6.5371,6.5109,6.3894,6.2339,5.9777,5.4811,5.1675,4.8512,4.3833,4.203,4.0984,4.0122,4.2709,4.5951,4.8835,5.1714,5.5431,6.0636,6.1169,6.1943,6.4254,6.5484,6.6162,6.6162,6.6664,6.699,6.699,6.699,6.6614,6.576,6.571,6.5584,6.5333,6.5032,6.4672,6.4145,6.3827,6.34,6.2781,6.2781,6.2781,6.2781,6.2781,6.2781,6.2781,6.2781,6.2781,6.2706,6.1642,6.119,6.1065,5.9935,5.9483,5.9483,5.9483,5.9483,5.9408,5.8905,5.8529,5.8102,5.696,5.6609,5.6559,5.6257,5.6219,5.6143,5.5867,5.5792,5.5717,5.5465,5.539,5.539,5.5415,5.4988,5.4411,5.3833,5.3507,5.3221,5.2945,5.2895,5.2895,5.2895,5.2895,5.2895,5.2895,5.2895,5.2895,5.2895,5.2477,5.1925,5.1381,5.1322,5.1096,5.0519,5.0996,5.1322,5.1322,5.1322,5.1322,5.1322,5.1322,5.1448,5.1691,5.1691,5.1724,5.1699,5.1423,5.1448,5.1699,5.1423,5.1297,6.5057,6.5292,6.4979,6.3254,6.1387,5.8418,5.2197,4.9139,4.6238,4.1247,4.0019,3.9651,3.8817,4.1255,4.4103,4.6343,4.8871,5.2683,5.8794,5.9751,6.1215,6.4856,6.6388,6.7141,6.7141,6.7643,6.7919,6.7819,6.7794,6.7367,6.6363,6.6287,6.6237,6.6112,6.5685,6.5208,6.4697,6.4128,6.3576,6.2998,6.2857,6.2781,6.2781,6.2781,6.2781,6.2781,6.2781,6.2781,6.2706,6.1768,6.1291,6.109,6.006,5.9608,5.9483,5.9483,5.9483,5.9433,5.9031,5.8604,5.8127,5.7412,5.701,5.6734,5.6344,5.6219,5.6118,5.5691,5.5566,5.5566,5.5566,5.5566,5.5641,5.5968,5.5691,5.5114,5.411,5.3783,5.3582,5.3146,5.297,5.2895,5.2895,5.2895,5.2895,5.2895,5.2895,5.2895,5.2895,5.2895,5.2569,5.1724,5.2402,5.2578,5.1699,5.2427,5.2895,5.2895,5.2895,5.2895,5.2895,5.2895,5.2895,5.2895,5.2895,5.2669,5.2277,5.2176,5.2176,5.2277,5.2151,5.2101,6.4456,6.4979,6.4979,6.3254,6.111,5.7957,5.2119,4.825,4.4669,4.054,3.8867,3.8266,3.8632,3.9812,4.2059,4.6036,4.8384,5.1773,5.7629,5.9953,6.2094,6.4957,6.6739,6.7719,6.7719,6.8221,6.8346,6.7844,6.7794,6.7543,6.694,6.689,6.6664,6.6137,6.6061,6.5785,6.5208,6.4722,6.4128,6.3601,6.3073,6.2781,6.2781,6.2781,6.2781,6.2781,6.2781,6.2781,6.2731,6.2169,6.1642,6.1115,6.0487,5.9935,5.9483,5.9483,5.9483,5.9483,5.9433,5.9382,5.9182,5.8152,5.7123,5.6269,5.6219,5.6219,5.6194,5.6143,5.6143,5.6143,5.6143,5.6143,5.6018,5.5566,5.5415,5.5214,5.4647,5.4084,5.3683,5.3632,5.3256,5.2895,5.2895,5.2895,5.2895,5.2895,5.2895,5.2895,5.2895,5.2895,5.2845,5.2744,5.2845,5.2845,5.2744,5.2845,5.2895,5.2895,5.2895,5.2895,5.2895,5.2895,5.2895,5.2895,5.2895,5.287,5.282,5.2352,5.2352,5.2795,5.2327,5.2101,6.3672,6.443,6.4456,6.2731,6.0337,5.6963,5.1492,4.7571,4.4016,4.0332,3.871,3.8057,3.8606,3.9076,4.0547,4.413,4.4652,4.6666,5.2531,5.4446,5.6972,6.1743,6.4379,6.6438,6.8145,6.8753,6.8979,6.8753,6.8753,6.8396,6.7518,6.7166,6.6714,6.6137,6.6112,6.5835,6.5308,6.4798,6.4245,6.3676,6.3099,6.2781,6.2781,6.2781,6.2781,6.2781,6.2781,6.2781,6.2756,6.2245,6.1868,6.1592,6.0663,6.0186,5.996,5.9608,5.9483,5.9483,5.9483,5.9282,5.8905,5.8152,5.7374,5.6609,5.6319,5.6219,5.6219,5.6219,5.6219,5.6219,5.6219,5.6219,5.6168,5.5942,5.5892,5.5742,5.5189,5.4647,5.411,5.3758,5.3281,5.2895,5.2895,5.2895,5.2895,5.2895,5.2895,5.2895,5.2895,5.2895,5.2895,5.2895,5.2895,5.2895,5.2895,5.2895,5.2895,5.2895,5.2895,5.2895,5.2895,5.2895,5.2895,5.2895,5.2895,5.2895,5.2895,5.2669,5.2669,5.2895,5.2669,5.2098,6.213,6.3201,6.3358,6.167,5.9186,5.5864,5.0786,4.697,4.3572,4.0488,3.8815,3.8057,3.8606,3.871,3.9553,4.2112,4.2318,4.41,4.9672,5.1554,5.4416,5.991,6.2596,6.5007,6.7618,6.8779,6.9406,6.9406,6.9255,6.8753,6.7844,6.7267,6.6714,6.6137,6.6112,6.5835,6.5308,6.4798,6.4245,6.3676,6.3099,6.2781,6.2781,6.2781,6.2781,6.2781,6.2781,6.2781,6.2756,6.2395,6.2044,6.1692,6.0889,6.0362,6.0035,5.9633,5.9483,5.9483,5.9483,5.9257,5.883,5.8127,5.7625,5.7111,5.642,5.6219,5.6219,5.6219,5.6219,5.6219,5.6219,5.6219,5.6219,5.6219,5.6219,5.6118,5.5717,5.5099,5.4471,5.4034,5.3406,5.2895,5.2895,5.2895,5.2895,5.2895,5.2895,5.2895,5.2895,5.2895,5.2895,5.2895,5.2895,5.2895,5.2895,5.2895,5.2895,5.2895,5.2895,5.2895,5.2895,5.2895,5.2895,5.2895,5.2456,5.2456,5.2895,5.198,5.1712,5.205,5.1572,5.0434,5.9647,6.111,6.1618,5.9866,5.7634,5.4733,5.0132,4.6423,4.3232,4.088,3.9076,3.8057,3.8606,3.871,3.9079,4.0228,4.2527,4.5842,5.064,5.3394,5.6533,6.0677,6.2169,6.366,6.5936,6.8101,6.9406,6.9406,6.8904,6.8396,6.7819,6.7267,6.6714,6.6137,6.6112,6.5835,6.5308,6.4798,6.4245,6.3676,6.3099,6.2781,6.2781,6.2781,6.2781,6.2781,6.2781,6.2781,6.2781,6.2781,6.2169,6.119,6.119,6.0487,5.9508,5.9483,5.9483,5.9483,5.9483,5.9483,5.9307,5.8252,5.7901,5.7675,5.6545,5.6219,5.6219,5.6219,5.6219,5.6219,5.6219,5.6219,5.6219,5.6219,5.6219,5.6219,5.6194,5.534,5.4597,5.4597,5.3683,5.2895,5.2895,5.2895,5.2895,5.2895,5.2895,5.2895,5.2895,5.2895,5.2895,5.2895,5.2895,5.2895,5.2895,5.2895,5.2895,5.2895,5.2895,5.2895,5.2895,5.2895,5.2895,5.2895,5.1408,5.1373,5.2895,4.9831,4.8948,4.9997,4.8397,4.661,5.4628,5.5778,5.6249,5.4497,5.2642,5.0446,4.7414,4.4643,4.2291,4.0698,3.9364,3.8632,3.9207,3.9337,4.0544,4.4242,4.4638,4.6148,5.1041,5.3468,5.6063,5.9622,6.4312,6.7574,6.8277,6.8979,6.9406,6.9406,6.8879,6.8396,6.7819,6.7267,6.6714,6.6137,6.6112,6.5835,6.5308,6.4798,6.4245,6.3676,6.3099,6.2781,6.2781,6.2781,6.2781,6.2781,6.2781,6.2781,6.2781,6.2781,6.2581,6.2245,6.1492,6.0964,6.0563,5.9784,5.9483,5.9483,5.9483,5.9483,5.9382,5.8679,5.8202,5.775,5.696,5.6483,5.6219,5.6219,5.5942,5.5641,5.5641,5.5641,5.5641,5.5641,5.5942,5.6219,5.6219,5.534,5.4597,5.4597,5.3683,5.2895,5.2895,5.2895,5.2895,5.2895,5.2895,5.2895,5.2895,5.2895,5.2895,5.2895,5.2895,5.2895,5.2895,5.2895,5.2895,5.2895,5.2895,5.2895,5.2895,5.1886,5.1338,5.1338,4.9807,4.9128,4.9284,4.8312,4.7854,4.7904,4.6352,4.5282,5.0681,5.1884,5.2276,5.0969,4.9404,4.7545,4.5454,4.318,4.1246,4.0305,3.9183,3.8556,3.9155,3.9601,4.0885,4.3822,4.4738,4.6455,5.0352,5.3096,5.6239,6.0261,6.5115,6.8227,6.8497,6.9029,6.9406,6.9406,6.8748,6.817,6.7819,6.7066,6.6488,6.6112,6.6112,6.5835,6.5308,6.4798,6.4245,6.3676,6.3099,6.2781,6.2781,6.2781,6.2781,6.2781,6.2781,6.2781,0.0,6.2781,6.2531,6.2144,6.1441,6.0914,6.0462,5.9759,5.9483,5.9483,5.9483,5.9483,5.9408,5.8842,5.8164,5.7474,5.686,5.6433,5.6219,5.6219,5.5968,5.5641,5.544,5.539,5.534,5.5175,5.5491,5.5892,5.5892,5.5189,5.4597,5.4597,5.3683,5.2895,5.2895,5.2895,5.2895,5.2895,5.2895,5.2895,5.2895,5.2895,5.2895,5.2895,5.2895,5.2861,5.2723,5.2826,5.2895,5.2895,5.2792,5.2456,5.1816,5.0717,4.9878,4.9248,4.7731,4.7073,4.738,4.6647,4.5871,4.4998,4.3911,4.3362,0.0,4.8852,4.9244,4.8646,4.7257,4.5638,4.3964,4.1873,0.0,3.9679,3.8736,3.8187,3.8893,3.9784,4.0546,4.0791,4.3843,4.7015,4.9374,5.3097,5.7456,6.2546,6.5057,6.6564,6.7091,6.8547,6.9381,6.9356,6.8396,6.7769,6.7744,6.6714,6.6112,6.6112,6.6061,6.5785,6.5233,6.4773,6.422,6.3626,6.3099,6.2781,6.2781,6.2781,6.2781,6.2781,6.2781,6.2781,6.2781,6.2781,6.2195,6.124,6.119,6.0512,5.9558,5.9508,5.9483,5.9483,5.9483,5.9483,5.9408,5.8855,5.7888,5.6885,5.6369,5.6219,5.6219,5.6219,5.6194,5.6018,5.5465,5.534,5.5225,5.4672,5.4999,5.539,5.539,5.4999,5.4597,5.4597,5.3683,5.2895,5.2895,5.2895,5.2895,5.2895,5.2895,5.2895,5.2895,5.2895,5.2895,5.2861,5.2757,5.256,5.2213,5.2619,5.2861,5.2826,5.2421,5.1502,4.9997,4.9379,4.8348,4.6868,4.5298,4.5185,4.6647,4.479,4.3151,4.1734,4.1366,4.1211,4.088,0.0,4.4278,4.2814,4.2134,4.1611,0.0,3.9834,3.9183,3.9547,3.9024,3.9233,4.156,4.1482,4.2814,4.8032,4.8799,5.0166,5.4219,5.8351,6.2376,6.6162,6.78,6.8678,6.8804,6.918,6.923,6.8804,6.8196,6.7618,6.7191,6.6488,6.6112,6.6112,6.571,6.5208,6.4697,6.4572,6.3977,6.3023,6.2857,6.2781,6.2781,6.2781,6.2781,6.2781,6.2781,6.2781,6.2781,6.2781,6.2421,6.1768,6.1341,6.0738,6.006,5.9659,5.9483,5.9483,5.9483,5.9483,5.9332,5.8403,5.76,5.6885,5.6369,5.6219,5.6219,5.6219,5.5917,5.544,5.4949,5.4798,5.4647,5.4034,5.4662,5.539,5.539,5.4999,5.4597,5.4597,5.3683,5.2895,5.2895,5.2895,5.2895,5.2895,5.2895,5.2895,5.2895,5.2895,5.2792,5.255,5.1408,5.054,5.0151,5.1597,5.2377,5.2099,5.0835,4.9938,4.9557,4.7147,4.5655,4.5244,4.3439,4.2657,4.3019,4.2234,4.1695,4.1327,4.125,4.1211,3.9337,4.1194,4.2762,4.1821,4.1586,4.1508,4.1221,3.9679,3.8423,3.8762,3.8762,3.9211,4.0889,4.2008,4.3928,4.7917,4.9674,5.236,5.7523,6.1303,6.463,6.7467,6.8728,6.9406,6.9406,6.9406,6.918,6.8628,6.812,6.7568,6.7015,6.6438,6.6112,6.6112,6.5584,6.5157,6.4898,6.4396,6.3802,6.3224,6.2907,6.2781,6.2781,6.2781,6.2781,6.2781,6.2781,6.2781,6.2781,6.2505,6.2119,6.1567,6.1014,6.0437,5.991,5.9608,5.9483,5.9483,5.9483,5.9332,5.8956,5.7851,5.7261,5.6885,5.6369,5.6219,5.6219,5.6219,5.5817,5.5265,5.4748,5.4396,5.4034,5.3482,5.421,5.4974,5.4662,5.4622,5.4522,5.4245,5.3507,5.2895,5.2895,5.2895,5.2895,5.2895,5.2895,5.2594,5.1677,5.1572,5.1163,5.002,4.914,4.847,4.8095,4.9092,4.9688,4.9617,4.866,4.7731,4.7014,4.5148,4.3798,4.3096,4.2062,4.1502,4.1502,4.1327,4.1211,4.1211,4.1211,4.1211,4.0071,4.1926,4.3363,4.2762,4.2866,4.2997,4.2579,4.0252,3.8161,3.8161,3.8606,3.9242,4.0119,4.2655,4.4988,4.6281,4.9989,5.4587,5.9949,6.2948,6.5383,6.7543,6.8653,6.9306,6.9381,6.9255,6.8954,6.8522,6.7995,6.7417,6.6865,6.6388,6.6061,6.5986,6.5459,6.5132,6.5057,6.4153,6.3651,6.355,6.3007,6.2781,6.2781,6.2781,6.2781,6.2781,6.2781,6.2731,6.2631,6.2195,6.1567,6.0889,6.0487,5.9935,5.9382,5.9458,5.9483,5.9483,5.9408,5.8981,5.8265,5.7311,5.6935,5.6784,5.6344,5.6143,5.6093,5.6093,5.5742,5.5265,5.4748,5.4135,5.3557,5.302,5.3708,5.4321,5.3808,5.4084,5.4285,5.3738,5.3177,5.2792,5.2757,5.2723,5.2654,5.2421,5.2387,5.1677,4.9783,4.9534,4.8866,4.7102,4.6698,4.6426,4.6078,4.5819,4.5797,4.6093,4.6056,4.5335,4.3739,4.3342,4.2542,4.1211,4.1211,4.1211,4.1211,4.1211,4.1211,4.1211,4.1211,4.1211,3.9967,4.3127,4.5114,4.1638,4.2291,4.3127,4.0697,3.973,3.9337,3.9337,3.9782,4.1276,4.4934,4.5985,4.785,5.2539,5.5527,5.8492,6.1918,6.4002,6.581,6.7593,6.8371,6.8879,6.9356,6.8597,6.802,6.7919,6.7417,6.684,6.6287,6.6162,6.5886,6.5434,6.4923,6.4379,6.3952,6.3776,6.345,6.2948,6.2832,6.2781,6.2781,6.2781,6.2781,6.2781,6.2781,6.2531,6.2119,6.2044,6.1115,5.9784,6.0161,5.967,5.8905,5.9332,5.9483,5.9433,5.9006,5.8114,5.7236,5.706,5.6684,5.6319,5.6244,5.5892,5.5516,5.5516,5.544,5.5265,5.4748,5.4135,5.3557,5.302,5.3381,5.3808,5.3708,5.3758,5.3738,5.3373,5.2829,5.2377,5.203,5.196,5.1516,5.0151,4.9938,4.9343,4.7649,4.7467,4.7234,4.6647,4.5351,4.4398,4.3966,4.2751,4.2023,4.21,4.3286,4.3286,4.1714,4.1579,4.1424,4.1211,4.1211,4.1211,4.1211,4.1211,4.1211,4.1211,4.1211,4.1211,3.9024,4.1559,4.3546,4.2918,4.5081,4.6892,4.5282,4.3768,4.2729,4.2729,4.3169,4.4195,4.6353,4.7926,5.055,5.5639,5.8605,6.0997,6.2998,6.4982,6.6589,6.7668,6.8296,6.8678,6.8929,6.8271,6.7668,6.7367,6.716,6.6714,6.6137,6.5835,6.5559,6.5308,6.4479,6.3927,6.3701,6.3375,6.3099,6.2781,6.2781,6.2781,6.2781,6.2781,6.2781,6.2781,6.2781,6.2345,6.1542,6.1215,6.0462,5.9483,5.9458,5.9332,5.9156,5.9408,5.9131,5.8554,5.7964,5.7236,5.6508,5.6244,5.6168,5.6168,5.5867,5.5446,5.5027,5.4752,5.457,5.4411,5.416,5.3683,5.3231,5.2945,5.3331,5.3563,5.3088,5.3228,5.3213,5.2554,5.2237,5.1761,5.0694,5.0494,4.9938,4.8348,4.8108,4.7453,4.5664,4.5425,4.4977,4.376,4.2981,4.2465,4.2273,4.1618,4.1211,4.1211,4.1889,4.1946,4.1211,4.1211,4.1211,4.1211,4.1211,4.1211,4.1211,4.1211,4.1211,4.1211,4.1211,4.1211,3.8815,4.0592,4.25,4.4984,4.7395,4.9209,4.9511,4.7666,4.6119,4.6823,4.7308,4.7733,4.817,5.0652,5.3977,5.8014,6.0864,6.2923,6.3927,6.5735,6.7141,6.7543,6.797,6.8296,6.8422,6.7819,6.7292,6.699,6.684,6.6513,6.5936,6.5509,6.5183,6.4931,6.4128,6.3626,6.35,6.3007,6.2781,6.2781,6.2781,6.2781,6.2781,6.2781,6.2781,6.2781,6.2656,6.2094,6.114,6.0563,5.991,5.9282,5.9006,5.9156,5.9483,5.9357,5.8704,5.7801,5.7097,5.6497,5.5972,5.5421,5.5485,5.5626,5.5263,5.4721,5.4196,5.381,5.3466,5.3253,5.3413,5.3028,5.2654,5.2654,5.2953,5.2989,5.1939,5.2021,5.1981,5.0767,5.0553,5.0139,4.8804,4.8588,4.8022,4.6426,4.6167,4.55,4.3663,4.3435,4.2846,4.1346,4.1211,4.1172,4.1035,4.1016,4.1016,4.1016,4.1016,4.1113,4.1211,4.1211,4.1211,4.1211,4.1211,4.1211,4.1211,4.1211,4.1211,4.1211,4.1211,4.1211,4.0489,4.2396,4.4409,4.726,4.6941,4.6643,4.9402,4.8661,4.815,5.1042,5.1648,5.1907,5.27,5.5721,5.8755,6.0638,6.2863,6.4547,6.5082,6.6212,6.699,6.7041,6.7109,6.7292,6.7819,6.6865,6.6438,6.694,6.6488,6.5936,6.5383,6.5308,6.4831,6.3827,6.3726,6.3425,6.2857,6.2807,6.2781,6.2781,6.2781,6.2781,6.2781,6.2781,6.2781,6.2756,6.2295,6.1718,6.114,6.0563,5.9709,5.8792,5.9257,5.9458,5.9433,5.8956,5.8403,5.775,5.6646,5.5987,5.5569,5.5022,5.4594,5.4339,5.4314,5.3564,5.2752,5.2727,5.2333,5.2038,5.2566,5.2259,5.189,5.189,5.1915,5.153,4.9938,4.964,4.9139,4.7257,4.689,4.6743,4.6248,4.6137,4.5617,4.3987,4.376,4.3172,4.1618,4.1385,4.1366,4.1211,4.1211,4.1016,4.0605,4.0528,4.0528,4.0528,4.0528,4.0762,4.1191,4.1211,4.1211,4.1211,4.1211,4.1211,4.1211,4.1211,4.1211,4.1211,4.1211,4.1211,3.9131,4.1305,4.3722,4.6858,4.8046,4.9049,5.1389,5.2079,5.2885,5.5229,5.5713,5.5678,5.5609,5.7562,5.9508,6.0487,6.2797,6.4697,6.5208,6.6262,6.7009,6.7009,6.7009,6.6915,6.6764,6.6061,6.5559,6.5476,6.5208,6.5007,6.4823,6.4479,6.4103,6.3701,6.335,6.3007,6.2781,6.2781,6.2781,6.2781,6.2781,6.2781,6.2781,6.2781,6.2446,6.1793,6.1592,6.0788,5.9633,5.9408,5.9081,5.8691,5.893,5.9006,5.8917,5.8112,5.7249,5.6389,5.5707,5.5151,5.4683,5.4486,5.4314,5.4131,5.3812,5.3054,5.2214,5.1813,5.0721,4.9997,5.169,5.1216,5.0316,5.0316,4.9522,4.8601,4.7768,4.7622,4.7293,4.63,4.6137,4.5766,4.4628,4.4402,4.3873,4.2331,4.2062,4.1869,4.1288,4.1211,4.1211,4.1211,4.0937,4.0703,4.0527,4.0273,4.0137,4.0137,4.0333,4.0723,4.1191,4.1211,4.1211,4.1211,4.1211,4.1211,4.1211,4.1211,4.1211,4.1211,4.1211,4.1211,3.873,4.0923,4.3629,4.6956,4.9196,5.1261,5.381,5.4997,5.6258,5.8881,5.8905,5.8328,5.8089,5.8855,5.9784,6.0713,6.2747,6.4446,6.4957,6.5727,6.623,6.623,6.623,6.6079,6.5634,6.5258,6.4923,6.4547,6.4496,6.4446,6.427,6.3877,6.3601,6.3425,6.3048,6.2781,6.2781,6.2781,6.2706,6.2571,6.2395,6.2295,6.2295,6.2295,6.1692,6.0638,6.0638,6.001,5.8956,5.8956,5.8779,5.8513,5.8513,5.8337,5.796,5.7159,5.6377,5.5609,5.4967,5.4537,5.423,5.4059,5.3949,5.3741,5.3229,5.2163,5.1034,5.0448,4.8959,4.7922,4.9533,4.9115,4.8299,4.8299,4.7439,4.6426,4.5707,4.5558,4.5335,4.4553,4.4402,4.4063,4.2943,4.2772,4.2427,4.1366,4.1211,4.1211,4.1211,4.1211,4.1152,4.0976,4.0703,4.043,4.0332,3.9922,3.9746,3.9883,4.0039,4.0312,4.0781,4.0898,4.0898,4.0781,4.0781,4.084,4.0976,4.0976,4.1074,4.1211,4.1211,4.1211,3.9894,4.1825,4.4633,4.7982,5.016,5.2517,5.6613,5.6946,5.7655,6.1938,6.1065,5.9684,6.0236,5.9885,6.006,6.1718,6.2948,6.3877,6.4421,6.4496,6.4496,6.4496,6.4496,6.4496,6.4496,6.4496,6.4496,6.4496,6.4496,6.427,6.3701,6.3676,6.3425,6.2807,6.2781,6.2781,6.2781,6.2781,6.2505,6.1994,6.1441,6.1205,6.1165,6.1205,6.0563,5.9483,5.9483,5.9483,5.9483,5.9483,5.895,5.8105,5.8105,5.7528,5.6641,5.61,5.5903,5.5717,5.4598,5.4279,5.4324,5.3752,5.3348,5.2956,5.2427,5.0757,4.8951,4.841,4.7118,4.59,4.59,4.5878,4.5841,4.5878,4.5878,4.5394,4.3835,4.3456,4.3019,4.1502,4.1211,4.1211,4.1211,4.1211,4.1211,4.1211,4.1211,4.1211,4.1211,4.1211,4.0996,4.0528,4.0469,4.0332,3.9922,3.9473,3.9394,3.9863,3.9453,3.9414,3.9883,4.0293,4.0332,3.9902,3.9902,4.0098,4.0469,4.0469,4.0742,4.1211,4.1211,4.1211,3.9115,4.2205,4.6281,4.8365,5.2323,5.6391,5.873,5.9097,5.9655,6.2275,6.2255,6.1667,6.104,6.1115,6.1291,6.1416,6.2697,6.3751,6.3902,6.427,6.4496,6.4496,6.4496,6.4371,6.3952,6.3927,6.3751,6.335,6.3299,6.3249,6.3099,6.3099,6.2957,6.2807,6.2781,6.2781,6.2781,6.2044,6.1592,6.1416,6.0462,6.0186,6.0563,6.0186,5.9608,5.8956,5.8956,5.8956,5.8942,5.9048,5.8719,5.8017,5.7339,5.6655,5.6037,5.5159,5.4827,5.4765,5.4151,5.394,5.3737,5.2414,5.146,5.0592,4.9246,4.7917,4.6817,4.6662,4.5431,4.4214,4.4214,4.34,4.2887,4.3949,4.34,4.2485,4.1985,4.1869,4.1773,4.1288,4.1211,4.1211,4.1211,4.1211,4.1211,4.1211,4.1211,4.1211,4.1211,4.0898,4.0664,4.0489,3.9961,3.9551,3.9414,3.9277,3.9141,3.8984,3.9414,3.9746,3.9883,4.0019,4.0019,3.9902,3.9902,3.9961,4.0078,4.0078,4.0293,4.0703,4.041,4.043,4.1669,4.4957,4.8989,5.1245,5.4768,5.8315,6.0599,6.109,6.1454,6.2546,6.243,6.2094,6.1893,6.1743,6.1718,6.1818,6.2697,6.335,6.335,6.3626,6.3827,6.3827,6.3827,6.3701,6.3375,6.335,6.3199,6.2807,6.2781,6.2781,6.2781,6.2781,6.2781,6.2781,6.2395,6.2169,6.2169,6.1065,6.0512,6.0487,5.9608,5.9357,5.962,5.9332,5.878,5.8039,5.8338,5.836,5.8232,5.8299,5.7808,5.6939,5.6328,5.5659,5.4897,5.3631,5.3586,5.3948,5.2351,5.2158,5.232,5.0801,4.9688,4.8726,4.7701,4.6415,4.5239,4.5009,4.3798,4.258,4.258,4.1927,4.1444,4.235,4.1869,4.1211,4.1211,4.1211,4.1211,4.1211,4.1211,4.1211,4.1211,4.1211,4.1211,4.1211,4.1211,4.1152,4.0937,4.0684,4.0352,4.0039,3.9512,3.9199,3.9199,3.9043,3.8926,3.8828,3.916,3.9375,3.9375,3.9531,3.9551,3.9375,3.9375,3.9453,3.9609,3.9609,3.9768,4.0025,3.9773,3.9717,4.5695,4.8693,5.2076,5.5315,5.7248,5.9131,6.2104,6.2781,6.2781,6.2781,6.2069,6.1692,6.2606,6.1994,6.1667,6.2631,6.2781,6.2781,6.2781,6.2781,6.2781,6.2781,6.2781,6.2781,6.2781,6.2781,6.2781,6.2781,6.2781,6.2781,6.2781,6.2781,6.2781,6.2781,6.1768,6.119,6.119,5.996,5.9382,5.9369,5.8703,5.8414,5.8465,5.8515,5.7963,5.6987,5.7494,5.7531,5.7158,5.7003,5.6085,5.482,5.4806,5.4203,5.3157,5.1639,5.2045,5.2906,4.983,4.9479,5.0247,4.8867,4.7878,4.7176,4.6946,4.5549,4.3916,4.3427,4.2293,4.1211,4.1211,4.1211,4.1211,4.1211,4.1211,4.1211,4.1211,4.1211,4.1211,4.1211,4.1211,4.1211,4.1211,4.1211,4.1211,4.1152,4.1152,4.0957,4.0527,4.0391,4.0098,3.9277,3.916,3.9141,3.9141,3.8789,3.8787,3.9121,3.8789,3.8611,3.8611,3.8945,3.8965,3.8611,3.8574,3.8733,3.9067,3.9067,3.9077,3.9183,3.9144,3.8936,4.3424,4.7262,5.2009,5.4838,5.8679,6.1903,6.2631,6.2781,6.2781,6.2781,6.2998,6.3099,6.2832,6.2581,6.2546,6.2756,6.2781,6.2781,6.2781,6.2781,6.2781,6.2781,6.2781,6.2781,6.2781,6.2781,6.2781,6.2781,6.2781,6.2781,6.2781,6.2781,6.2781,6.2781,6.1768,6.119,6.119,5.9232,5.8301,5.8381,5.6937,5.6303,5.6448,5.7209,5.7221,5.6643,5.5525,5.4977,5.4782,5.3082,5.194,5.1261,5.0968,5.044,4.9836,4.9484,4.9562,4.9713,4.8613,4.8454,4.8361,4.6429,4.5419,4.4746,4.3428,4.2463,4.1853,4.1715,4.1463,4.1211,4.1211,4.1211,4.1211,4.1211,4.1211,4.1211,4.1211,4.1211,4.1211,4.1211,4.1211,4.1211,4.1211,4.1211,4.1055,4.0723,4.0664,4.0508,4.0078,3.9707,3.9414,3.9219,3.8906,3.8747,3.8747,3.8669,3.865,3.8711,3.8669,3.8611,3.8611,3.8689,3.8708,3.8611,3.8302,3.8157,3.8254,3.794,3.7966,3.8272,3.7949,3.7931,4.4162,4.8127,5.2729,5.7072,6.0512,6.2781,6.2781,6.2781,6.2781,6.2781,6.3073,6.3174,6.2832,6.2781,6.2781,6.2781,6.2781,6.2781,6.2781,6.2781,6.2781,6.2781,6.2781,6.2781,6.2781,6.2781,6.2681,6.2446,6.2195,6.1918,6.1602,6.1366,6.124,6.124,6.0186,5.9531,5.9312,5.7874,5.7136,5.7031,5.5595,5.4372,5.3529,5.4775,5.5696,5.6218,5.3732,5.2862,5.3046,5.1129,5.0003,4.9522,4.9307,4.9034,4.8697,4.7905,4.7975,4.8187,4.6358,4.598,4.599,4.4329,4.3353,4.2693,4.1994,4.1504,4.1211,4.1211,4.1211,4.1211,4.1211,4.1211,4.1211,4.1211,4.1211,4.1211,4.1211,4.1211,4.1211,4.1211,4.1211,4.1211,4.1211,4.0996,4.0781,4.0566,4.0351,4.0059,3.9609,3.9355,3.9121,3.8926,3.8747,3.8611,3.8611,3.8611,3.8611,3.8611,3.8428,3.8302,3.8302,3.8136,3.8099,3.8302,3.7936,3.7715,3.7715,3.7495,3.7405,3.7408,3.6276,3.6238,4.4765,4.9031,5.3632,5.9433,6.1793,6.2656,6.2656,6.2731,6.2781,6.2781,6.2781,6.2781,6.2781,6.2781,6.2781,6.2781,6.2781,6.2781,6.2781,6.2781,6.2706,6.2571,6.2505,6.2471,6.2229,6.2305,6.2169,6.1617,6.124,6.0788,6.0211,5.9734,5.9469,5.9405,5.8377,5.7612,5.7209,5.6513,5.6054,5.5752,5.4399,5.2658,5.0636,5.1637,5.314,5.4792,5.1582,5.0517,5.0951,4.9286,4.8328,4.7905,4.7905,4.7902,4.7639,4.6344,4.6371,4.6716,4.3939,4.338,4.3696,4.2546,4.1738,4.1269,4.1582,4.1445,4.1211,4.1211,4.1211,4.1211,4.1211,4.1211,4.1211,4.1211,4.1211,4.1211,4.1211,4.1211,4.1211,4.1211,4.1211,4.1191,4.1074,4.0762,4.043,4.0312,4.0,3.9609,3.916,3.9101,3.8965,3.865,3.8611,3.8574,3.8501,3.8501,3.8465,3.8392,3.8082,3.7899,3.7899,3.7532,3.7329,3.7365,3.7329,3.7144,3.6867,3.6774,3.6386,3.5739,3.4051,3.3977,4.08,4.6973,5.3899,5.8554,6.0939,6.2119,6.2119,6.2496,6.2781,6.2781,6.2781,6.2781,6.2781,6.2781,6.2781,6.2781,6.2781,6.2781,6.2781,6.2781,6.2471,6.1517,6.1391,6.1014,6.0035,6.0362,6.0412,5.9859,6.0211,6.0186,5.9633,5.9533,5.9328,5.8979,5.7933,5.7171,5.6791,5.573,5.5211,5.5275,5.3287,5.1226,4.903,4.7794,4.8408,5.0322,4.7949,4.6994,4.6931,4.5188,4.4431,4.4371,4.4371,4.4153,4.3875,4.4006,4.3672,4.3101,4.266,4.2347,4.2053,4.1523,4.1308,4.123,4.125,4.125,4.1211,4.1211,4.1211,4.1211,4.1211,4.1211,4.1211,4.1211,4.1211,4.1211,4.1211,4.1211,4.1211,4.1211,4.1211,4.1055,4.0684,4.0528,4.0216,3.9492,3.9336,3.9141,3.8747,3.8689,3.8669,3.8611,3.8611,3.8465,3.8119,3.8082,3.7936,3.7605,3.7532,3.7495,3.7495,3.7071,3.6238,3.4896,3.6201,3.6201,3.4822,3.4134,3.3123,3.1668,3.1123,3.0977,4.2281,4.7807,5.313,5.7876,5.9834,6.0763,6.1391,6.1743,6.1818,6.1452,6.1376,6.1718,6.2606,6.2781,6.2781,6.2781,6.232,6.1893,6.1893,6.1366,6.0788,6.0286,6.0236,5.9957,5.9223,5.9359,5.9206,5.8426,5.8326,5.8053,5.7507,5.6886,5.6464,5.6276,5.551,5.4499,5.3244,5.3227,5.237,5.0607,5.0361,4.8735,4.5961,4.6163,4.7354,4.9003,4.6104,4.5373,4.6163,4.4174,4.3359,4.332,4.3086,4.2871,4.2734,4.293,4.2598,4.207,4.207,4.1797,4.1426,4.1269,4.1211,4.1211,4.1211,4.1211,4.1211,4.1211,4.1211,4.1211,4.1211,4.1211,4.1211,4.1211,4.1211,4.1211,4.1211,4.1211,4.1094,4.0859,4.0801,4.0664,4.0254,3.9961,3.9648,3.9258,3.9004,3.8716,3.8321,3.8265,3.8192,3.7953,3.7916,3.7843,3.7679,3.7679,3.7605,3.7402,3.6165,3.5429,3.5429,3.4016,3.2895,3.2172,3.3935,3.404,3.2451,3.1936,3.1309,3.0601,2.9362,2.9375,4.2434,4.6652,5.0225,5.534,5.7549,5.878,6.006,6.0663,6.0788,6.0236,6.0211,6.0674,6.1928,6.2029,6.1969,6.1969,6.1291,6.0763,6.0763,5.9957,5.9228,5.8952,5.885,5.8558,5.7952,5.8051,5.7787,5.6923,5.6505,5.6086,5.5693,5.4242,5.3607,5.4034,5.2744,5.1552,5.0508,5.091,4.9678,4.6822,4.7717,4.6606,4.3733,4.5067,4.6324,4.7347,4.4822,4.4353,4.5352,4.3753,4.3008,4.2891,4.2558,4.2323,4.2285,4.2343,4.209,4.166,4.1758,4.1523,4.1211,4.1211,4.1211,4.1211,4.1211,4.1211,4.1211,4.1211,4.1211,4.1211,4.1211,4.1211,4.1211,4.1211,4.1211,4.1211,4.1211,4.1132,4.0918,4.0586,4.0315,4.0063,3.9654,3.9172,3.8864,3.8767,3.8476,3.8173,3.7899,3.7862,3.7715,3.7439,3.7421,3.7365,3.7255,3.6774,3.646,3.6368,3.4255,3.2995,3.2995,3.1322,3.023,2.9784,3.1132,3.1279,3.0159,2.9815,2.9458,2.9013,2.7474,2.7519,3.8014,4.0929,4.3969,4.9464,5.3256,5.6043,5.77,5.9257,6.0211,5.9659,5.996,6.0337,6.0398,6.001,5.9659,5.9659,5.9608,5.9583,5.9583,5.9223,5.8567,5.7522,5.7056,5.6395,5.5311,5.573,5.5829,5.5176,5.5176,5.5152,5.5053,5.2641,5.1987,5.3594,5.0195,4.908,5.0513,4.9474,4.8086,4.6325,4.6385,4.5454,4.3711,4.3774,4.3856,4.3939,4.3793,4.3559,4.3268,4.3167,4.2832,4.2421,4.2401,4.2187,4.1875,4.2285,4.1914,4.1308,4.166,4.1523,4.1211,4.1211,4.1211,4.1211,4.1211,4.1211,4.1211,4.1211,4.1211,4.1211,4.1211,4.1211,4.1211,4.1211,4.1211,4.1211,4.1211,4.084,4.0508,4.0489,3.9891,3.9201,3.874,3.8345,3.7932,3.7534,3.7458,3.7439,3.7439,3.7439,3.7421,3.7421,3.7421,3.7255,3.6849,3.5116,3.3924,3.3554,3.1663,3.0579,3.0579,3.0452,2.9672,2.8154,2.7896,2.791,2.8146,2.7807,2.6858,2.5353,2.4945,2.4811,3.6808,3.9421,4.2082,4.6225,4.9741,5.2553,5.3884,5.6269,5.7938,5.7162,5.7411,5.7609,5.6996,5.8335,5.9734,6.0462,5.9189,5.8211,5.8522,5.7332,5.6127,5.5423,5.5177,5.4721,5.3754,5.4108,5.4241,5.3811,5.4078,5.3798,5.2693,5.1408,5.0342,4.9579,4.8224,4.746,4.7276,4.5846,4.4987,4.4617,4.4617,4.417,4.3301,4.3301,4.3144,4.2891,4.2891,4.2949,4.3087,4.248,4.2168,4.1992,4.1719,4.1523,4.1426,4.1562,4.1426,4.123,4.1348,4.1348,4.1211,4.1211,4.1211,4.1211,4.1211,4.1211,4.1211,4.1211,4.1211,4.1211,4.1211,4.0977,4.0608,4.0105,4.0009,3.9932,3.9663,3.9855,3.997,3.9433,3.8879,3.8347,3.7891,3.7704,3.7573,3.744,3.7421,3.7311,3.7034,3.6997,3.6534,3.5251,3.4907,3.4302,3.313,3.218,3.1593,3.1445,2.9606,2.8533,2.8533,2.7341,2.6404,2.5824,2.5714,2.5811,2.6153,2.5811,2.5339,2.4796,2.4653,2.4599,3.4826,3.7161,3.9797,4.3915,4.6301,4.8403,5.1289,5.3483,5.4852,5.4653,5.5349,5.5806,5.5373,5.6773,5.8247,5.8996,5.7669,5.6636,5.7008,5.5742,5.4671,5.4316,5.4157,5.3851,5.3253,5.2834,5.2594,5.2485,5.1972,5.1293,5.0498,4.925,4.7701,4.5736,4.6273,4.6019,4.4723,4.3773,4.3359,4.3496,4.3496,4.3262,4.2851,4.2851,4.2695,4.2382,4.2285,4.2383,4.2598,4.2031,4.1719,4.1562,4.1289,4.1211,4.1211,4.1211,4.1211,4.1211,4.1211,4.1211,4.1211,4.1211,4.1211,4.1211,4.1211,4.1211,4.1172,4.0997,4.0958,4.0919,4.0821,4.0413,3.9949,3.9431,3.9183,3.8974,3.8595,3.8918,3.9109,3.8576,3.799,3.7501,3.7238,3.7071,3.6997,3.6997,3.6534,3.6089,3.5811,3.5326,3.4431,3.2978,3.263,3.2019,3.0841,2.9911,2.9427,2.9427,2.7607,2.6524,2.6524,2.5285,2.4599,2.4599,2.4599,2.4693,2.493,2.4693,2.4599,2.4599,2.4599,2.4599,0.0,0.0,0.0,4.2155,4.2785,4.3733,4.9817,5.0836,5.0884,5.228,5.3835,5.5078,5.5693,5.5299,5.4893,5.4918,5.4942,5.5004,5.5028,5.4669,5.436,5.4298,5.3986,5.3723,5.3624,5.1845,5.0841,5.1186,4.8889,4.7815,4.8693,4.6203,4.4034,4.2481,4.438,4.4683,4.3127,4.3476,4.3476,4.3127,4.3107,4.2832,4.2362,4.2362,4.2362,4.2323,4.1953,4.1777,4.1777,4.1777,4.1543,4.1211,4.1211,4.1211,4.1211,4.1211,4.1211,4.1211,4.1211,4.1211,4.1211,4.1211,4.1172,4.1172,4.1172,4.1172,4.1055,4.0588,4.047,4.0392,3.9981,3.958,3.9258,3.9201,3.8879,3.8519,3.8024,3.7877,3.7896,3.7933,3.7315,3.6775,3.6719,3.6386,3.6126,3.6034,3.4709,3.3713,3.3713,3.2293,3.1157,3.0861,3.0813,3.0654,3.0267,2.8496,2.7393,2.7393,2.5621,2.4599,2.4599,2.4599,2.4599,2.4599,2.4599,2.4599,2.4599,2.4599,2.4599,2.4599,2.4599,2.4599,3.1863,0.0,0.0,0.0,0.0,0.0,4.2068,4.4195,4.6476,4.8884,5.004,5.1157,5.295,5.2829,5.2587,5.2974,5.3898,5.4717,5.5144,5.4477,5.3354,5.176,5.2587,5.2183,4.929,4.9943,5.0109,4.8991,4.8613,4.8003,4.7027,4.4805,4.3376,4.2931,4.3454,4.3554,4.3127,4.3183,4.3183,4.3107,4.2754,4.2383,4.1973,4.1973,4.1816,4.1523,4.1387,4.1387,4.1387,4.1387,4.1308,4.1211,4.1211,4.1211,4.1211,4.1211,4.1211,4.1211,4.1211,4.1211,4.1211,4.1211,4.0958,4.0666,4.0666,4.049,4.0216,4.0098,4.0059,3.9981,3.9588,3.917,3.8409,3.6606,3.6766,3.6556,3.3784,3.4143,3.537,3.6844,3.6718,3.5924,3.4525,3.4366,3.3966,3.2588,3.2129,3.1988,3.1988,3.1435,3.0508,2.9252,2.8702,2.794,2.6673,2.5834,2.5409,2.5409,2.4898,2.4599,2.4599,2.4599,2.4599,2.4599,2.4599,2.4599,2.4599,2.4599,2.4599,2.4599,2.4599,2.4599,3.3389,3.4678,3.6401,3.6157,0.0,0.0,3.9964,4.1216,4.2821,4.5881,4.7102,4.8279,5.0261,5.0068,4.9806,5.0502,5.0986,5.1915,5.3782,5.3744,5.2696,5.0495,5.1147,5.0596,4.7608,4.769,4.7592,4.678,4.6221,4.5517,4.4744,4.3496,4.2812,4.2812,4.2812,4.2812,4.2812,4.2812,4.2715,4.2539,4.2285,4.1953,4.1543,4.1543,4.1406,4.1211,4.1211,4.1211,4.1211,4.1211,4.1211,4.1211,4.1211,4.1211,4.1172,4.0958,4.0919,4.088,4.0743,4.0665,4.0665,4.0665,4.0451,4.0255,4.0255,3.9965,3.9598,3.9442,3.9134,3.8789,3.8556,3.7698,3.6523,3.5076,3.4598,3.3911,3.1769,3.2065,3.3099,3.4288,3.4339,3.3796,3.2672,3.2617,3.238,3.1219,3.0637,3.0253,3.0115,2.9358,2.8385,2.7136,2.6721,2.6043,2.4978,2.4693,2.4599,2.4599,2.4599,2.4599,2.4599,2.4599,2.4599,2.4599,2.4599,2.4599,2.4599,2.4599,2.4532,2.4412,2.4412,2.4359,3.5831,3.6057,3.7122,3.8868,3.7438,0.0,4.0568,4.0217,3.9937,4.2952,4.4412,4.5614,4.7353,4.7014,4.6716,4.7534,4.7077,4.7841,5.1274,5.2141,5.1632,4.9516,4.9447,4.8847,4.704,4.5374,4.4463,4.4681,4.2922,4.2031,4.2362,4.2382,4.2362,4.2323,4.2362,4.2362,4.2323,4.2323,4.2168,4.1797,4.1758,4.1543,4.1211,4.1211,4.1211,4.1211,4.1211,4.1211,4.1211,4.1133,4.1133,4.1172,4.1133,4.1133,4.1055,4.0588,4.0431,4.0392,4.002,3.9902,3.9902,3.9902,3.9863,3.9823,3.9767,3.9483,3.9026,3.8446,3.7588,3.6873,3.6873,3.5491,3.4081,3.391,3.2534,3.1185,3.0839,3.0916,3.0993,3.08,3.1069,3.1207,3.1022,3.0999,3.0938,3.0753,2.9481,2.8463,2.8173,2.6846,2.5703,2.5168,2.5088,2.493,2.4626,2.4599,2.4599,2.4599,2.4599,2.4599,2.4599,2.4599,2.4599,2.4599,2.4572,2.4532,2.4506,2.4532,2.4412,2.4209,2.4168,2.4022,3.8003,3.922,4.0452,3.7452,3.8679,0.0,3.5934,3.6729,3.8415,3.9107,3.9753,4.0956,4.3415,4.373,4.3664,4.3848,4.4499,4.5796,4.8096,4.8253,4.7427,4.5609,4.6637,4.6296,4.3213,4.4122,4.4306,4.3002,4.2504,4.2304,4.2382,4.2382,4.2226,4.1933,4.2246,4.2226,4.1933,4.1914,4.1875,4.1797,4.1465,4.1289,4.1211,4.1211,4.1211,4.1211,4.1211,4.1211,4.1172,4.0802,4.0841,4.1172,4.0802,4.0627,4.0588,4.0177,4.002,4.002,3.9941,3.9902,3.9902,3.9902,3.9666,3.9374,3.9037,3.8635,3.7904,3.6199,3.462,3.3454,3.3454,3.2918,3.2051,3.0759,3.0872,3.0569,2.7919,2.8427,2.8973,2.7619,2.9502,3.0783,2.922,2.9183,2.8846,2.7259,2.6765,2.6557,2.6503,2.5761,2.5248,2.5128,2.4863,2.4666,2.4599,2.4599,2.4599,2.4599,2.4599,2.4599,2.4599,2.4599,2.4599,2.4599,2.4409,2.4168,2.3977,2.4168,2.4262,2.4195,2.3968,2.3857,4.0605,4.0856,4.1521,3.9494,3.9503,0.0,0.0,3.6819,3.7324,3.92,3.8527,3.8368,4.0779,4.014,3.9193,3.916,3.9974,4.0817,4.1364,4.4196,4.5441,4.3544,4.4027,4.3682,4.1366,4.2106,4.2481,4.1856,4.1601,4.1426,4.1426,4.1426,4.1387,4.1172,4.1582,4.1699,4.1484,4.1484,4.1484,4.1484,4.1308,4.1211,4.1211,4.1211,4.1211,4.1172,4.0958,4.0841,4.0802,4.0372,4.0333,4.0548,4.0294,4.0216,4.0177,3.9745,3.9588,3.9588,3.9312,3.9233,3.9233,3.9233,3.8435,3.7428,3.7231,3.6148,3.4696,3.3492,3.2524,3.1902,3.1902,3.1152,3.0187,2.938,2.9013,2.8427,2.6781,2.7044,2.7398,2.6544,2.7611,2.839,2.7537,2.7434,2.712,2.6128,2.5864,2.5678,2.5569,2.5302,2.5024,2.4877,2.4693,2.4599,2.4599,2.4599,2.4599,2.4599,2.4599,2.4532,2.4422,2.4386,2.4356,2.4209,2.4062,2.3915,2.3803,2.3768,2.3768,2.3768,2.3621,2.346,4.3613,4.2966,4.2985,4.2078,4.084,3.9705,0.0,0.0,0.0,3.9441,3.7974,3.6749,3.8418,3.6843,3.5201,3.4918,3.5532,3.5758,3.4955,3.9674,4.2628,4.1049,4.1145,4.0962,3.9976,3.9865,4.0117,4.0683,4.0195,3.9962,4.0254,4.0351,4.0372,4.0372,4.082,4.1093,4.1093,4.1133,4.1211,4.1211,4.1211,4.1211,4.1211,4.1094,4.1055,4.1055,4.0588,4.0392,4.0353,3.9941,3.9784,3.9784,3.9784,3.9784,3.9745,3.9312,3.9154,3.9114,3.8719,3.8402,3.8087,3.8054,3.661,3.4869,3.4869,3.3221,3.1253,3.0917,3.0608,3.0338,3.0338,2.9386,2.8427,2.8427,2.7398,2.6373,2.6319,2.6306,2.6293,2.6226,2.6065,2.5998,2.6253,2.6105,2.5904,2.5904,2.5611,2.5344,2.5141,2.5024,2.4903,2.4626,2.4599,2.4599,2.4599,2.4546,2.4519,2.4519,2.4466,2.4369,2.4128,2.4115,2.3981,2.3723,2.3688,2.3696,2.3629,2.3354,2.3238,2.3292,2.326,2.2961,4.7323,4.7877,4.7732,4.2573,4.3866,4.4371,3.6529,0.0,3.7875,3.5928,0.0,3.5601,3.5244,0.0,0.0,3.2778,3.3211,3.3507,3.2907,3.4311,3.5428,3.5533,3.7252,3.8187,3.7695,3.7656,3.8008,3.8845,3.8125,3.8164,3.9297,3.9746,3.9961,3.9961,4.0371,4.0586,4.0586,4.0976,4.1211,4.1211,4.1211,4.1211,4.1172,4.0763,4.0588,4.0548,4.0137,3.9981,3.9941,3.9548,3.9391,3.9391,3.9391,3.9391,3.9312,3.8838,3.8679,3.8679,3.86,3.7609,3.6264,3.6015,3.4312,3.2319,3.2319,3.0864,2.9251,2.9168,2.809,2.6965,2.6965,2.6807,2.6702,2.6702,2.6544,2.6319,2.6105,2.6051,2.5971,2.5665,2.5585,2.5651,2.5998,2.5758,2.5558,2.5558,2.5317,2.5117,2.5077,2.485,2.4639,2.4599,2.4599,2.4599,2.4599,2.4359,2.4249,2.4249,2.4008,2.3884,2.3857,2.3857,2.3688,2.3345,2.3345,2.3247,2.3,2.296,2.306,2.3278,2.3046,2.2199,4.793,4.7495,4.6878,4.4123,4.3371,4.2047,3.736,3.6171,3.587,3.5306,0.0,0.0,0.0,0.0,0.0,0.0,3.0989,3.1154,3.0214,3.11,3.2363,3.3789,3.4733,3.5547,3.6133,3.6406,3.6914,3.7773,3.7266,3.7383,3.8398,3.9375,3.9766,3.9492,4.0156,4.0489,4.0489,4.0703,4.0918,4.1211,4.0919,4.0802,4.0802,4.0372,4.0177,4.0137,3.9745,3.9548,3.9509,3.9075,3.8877,3.8798,3.7791,3.8008,3.8758,3.753,3.7072,3.6917,3.5772,3.4886,3.4007,3.2539,3.1385,3.0296,2.908,2.8111,2.7437,2.7437,2.6925,2.6386,2.6386,2.6386,2.6386,2.6386,2.6305,2.6145,2.6024,2.5864,2.5665,2.5545,2.5371,2.5304,2.5462,2.5344,2.5264,2.5264,2.501,2.4823,2.4823,2.4679,2.4599,2.4599,2.4599,2.4532,2.4396,2.4275,2.4128,2.3968,2.3674,2.3514,2.3514,2.3375,2.3215,2.306,2.2181,2.1688,2.1575,2.1575,2.1638,2.1751,2.2535,2.2057,4.7972,4.6889,4.5711,4.4347,4.2234,3.9712,3.6893,3.5424,3.4687,3.4775,3.3447,0.0,0.0,0.0,2.9935,2.905,0.0,2.9316,2.8288,2.8926,3.0137,3.1816,3.2508,3.3359,3.457,3.4531,3.485,3.5976,3.5449,3.5723,3.7148,3.8359,3.9023,3.9023,3.9883,4.041,4.0489,4.0491,4.0647,4.0997,4.0568,4.0353,4.0314,3.9941,3.9745,3.9706,3.9312,3.9114,3.9035,3.8225,3.7906,3.7689,3.5954,3.6023,3.6931,3.564,3.5198,3.4946,3.3419,3.2522,3.1684,2.946,2.8701,2.8349,2.6849,2.6333,2.6332,2.6373,2.6333,2.6332,2.6373,2.6333,2.6266,2.6266,2.6091,2.585,2.577,2.5545,2.5371,2.5291,2.5104,2.4957,2.4957,2.4957,2.4957,2.4957,2.477,2.4599,2.4599,2.4599,2.4572,2.4492,2.4479,2.4359,2.4115,2.4008,2.3834,2.3576,2.2929,2.2566,2.2566,2.2,2.185,2.2263,2.0768,2.0213,2.0595,2.0201,1.9785,1.9402,2.1355,2.1459,4.8127,4.7498,4.5815,4.2123,4.1207,3.9507,3.3241,3.4164,3.569,3.3521,3.4643,3.5347,3.3114,3.1982,3.0813,0.0,2.8594,0.0,0.0,2.7741,2.7956,2.8398,3.0312,3.1914,3.2793,3.1357,3.1103,3.2812,3.1777,3.2363,3.5312,3.6343,3.7379,3.8591,3.9453,4.0117,4.0527,4.0492,4.049,4.0509,4.0098,3.9902,3.9902,3.9509,3.9312,3.9312,3.8838,3.86,3.8481,3.6775,3.6075,3.5914,3.4172,3.3353,3.3186,3.3146,3.3106,3.3042,3.265,3.1249,2.9304,2.7456,2.6707,2.6479,2.6426,2.6238,2.6065,2.6306,2.6225,2.6078,2.6319,2.6225,2.6011,2.6011,2.5745,2.5451,2.517,2.5104,2.501,2.4679,2.4626,2.4613,2.4613,2.4613,2.4613,2.4613,2.4613,2.4599,2.4599,2.4599,2.4492,2.4249,2.4222,2.4102,2.3843,2.3514,2.322,2.2947,2.1518,2.0676,2.0676,1.9298,1.9228,2.0664,1.9217,1.9158,2.0595,1.9158,1.7689,1.6327,1.9298,1.9889,4.7193,4.6328,4.4756,4.1957,3.9812,3.7328,3.3141,3.324,3.3479,3.082,3.2035,3.3063,3.1365,3.059,0.0,0.0,0.0,2.7761,0.0,2.6738,2.6543,2.6973,2.8672,2.9922,3.0195,2.9961,3.0273,3.1445,3.169,3.2589,3.4446,3.6152,3.7402,3.8125,3.8746,3.9371,4.0086,3.9855,3.9832,4.0098,3.9706,3.9509,3.9509,3.9035,3.8206,3.7095,3.6935,3.6213,3.5106,3.4538,3.4294,3.4058,3.2125,3.1278,3.1228,3.1228,3.1093,3.0731,2.9257,2.8159,2.7353,2.6732,2.6466,2.6386,2.6386,2.6319,2.6266,2.636,2.6319,2.6265,2.6172,2.6065,2.5944,2.5705,2.5438,2.5197,2.5104,2.493,2.4756,2.4613,2.4599,2.4599,2.4599,2.4439,2.4422,2.4572,2.4439,2.4356,2.4356,2.4182,2.4022,2.3928,2.3027,2.2289,2.2049,2.0814,2.0017,1.9924,1.9437,1.9158,1.9158,1.8659,1.8624,1.9123,1.7654,1.7127,1.7619,1.7127,1.6609,1.6115,1.7047,1.7266,4.5554,4.4538,4.3056,4.1018,3.8985,3.6514,3.2965,3.3265,3.3468,3.0644,3.1453,3.2447,3.1938,3.0742,2.9815,0.0,0.0,2.737,0.0,2.6113,2.5991,2.6133,2.7266,2.8144,2.8437,2.832,2.875,3.0098,3.0458,3.1416,3.3332,3.5156,3.6552,3.7443,3.8215,3.8953,3.9682,3.9429,3.9403,3.9666,3.8643,3.8127,3.8087,3.7152,3.6132,3.5066,3.5066,3.4457,3.3356,3.2741,3.2433,3.2089,3.0132,2.9234,2.9076,2.9076,2.8878,2.8474,2.7134,2.6547,2.6386,2.6386,2.6386,2.6386,2.6386,2.6319,2.6292,2.636,2.6239,2.6052,2.6011,2.5837,2.5636,2.5411,2.513,2.4917,2.4917,2.4733,2.4599,2.4599,2.4599,2.4572,2.4466,2.4329,2.4262,2.4412,2.3749,2.3228,2.3228,2.2629,2.2369,2.2779,2.146,2.0413,2.0157,1.9073,1.8414,1.8414,1.79,1.7584,1.7584,1.7092,1.7057,1.7584,1.6014,1.5484,1.6037,1.5446,1.5139,1.513,1.5039,1.5048]},{"header":{"parameterUnit":"m.s-1","parameterCategory":1,"la1":30.6,"la2":29.2853,"lo1":-89.7004,"lo2":-87.6739,"dy":0.0162,"dx":0.0183,"nx":112,"ny":82,"refTime":"2024-09-06T06:00:00:Z","depth":0,"parameterNumber":3,"parameterNumberName":"V-component_of_WINDS"},"data":[0.0,0.0,0.0,0.0,0.0,0.0,0.0,0.0,0.0,0.0,0.0,0.0,0.0,0.0,0.0,0.0,0.0,0.0,0.0,0.0,0.0,0.0,0.0,0.0,0.0,0.0,0.0,0.0,0.0,0.0,0.0,0.0,0.0,0.0,0.0,0.0,0.0,0.0,0.0,0.0,0.0,0.0,0.0,0.0,0.0,0.0,0.0,0.0,0.0,0.0,0.0,0.0,0.0,0.0,0.0,0.0,0.0,0.0,0.0,0.0,0.0,0.0,0.0,0.0,0.0,0.0,0.0,0.0,0.0,0.0,0.0,0.0,0.0,0.0,0.0,0.0,0.0,0.0,0.0,0.0,0.0,0.0,0.0,0.0,0.0,0.0,0.0,0.0,0.0,0.0,3.6431,3.7754,4.1445,4.3216,4.1719,4.3078,4.1639,3.6078,0.0,0.0,0.0,0.0,0.0,0.0,0.0,0.0,0.0,0.0,0.0,0.0,0.0,0.0,0.0,0.0,0.0,0.0,0.0,0.0,0.0,0.0,0.0,0.0,0.0,0.0,0.0,0.0,0.0,0.0,0.0,0.0,0.0,0.0,0.0,0.0,0.0,0.0,0.0,0.0,0.0,0.0,0.0,0.0,0.0,0.0,0.0,0.0,0.0,0.0,0.0,0.0,0.0,0.0,0.0,0.0,0.0,0.0,0.0,0.0,0.0,0.0,0.0,0.0,0.0,0.0,0.0,0.0,0.0,0.0,0.0,0.0,0.0,0.0,0.0,0.0,0.0,0.0,0.0,0.0,0.0,0.0,0.0,0.0,0.0,0.0,0.0,0.0,0.0,0.0,0.0,0.0,0.0,0.0,0.0,0.0,0.0,0.0,0.0,0.0,0.0,0.0,0.0,0.0,3.6022,4.1739,4.4835,4.589,4.4435,4.3605,4.1597,3.7817,0.0,0.0,0.0,0.0,0.0,0.0,0.0,0.0,0.0,0.0,0.0,0.0,0.0,0.0,0.0,0.0,0.0,0.0,0.0,0.0,0.0,0.0,0.0,0.0,0.0,0.0,0.0,0.0,0.0,0.0,0.0,0.0,0.0,0.0,0.0,0.0,0.0,0.0,0.0,0.0,0.0,0.0,0.0,0.0,0.0,0.0,0.0,0.0,0.0,0.0,0.0,0.0,0.0,0.0,0.0,0.0,0.0,0.0,0.0,0.0,0.0,0.0,0.0,0.0,0.0,0.0,0.0,0.0,0.0,0.0,0.0,0.0,0.0,0.0,0.0,0.0,0.0,0.0,0.0,0.0,0.0,0.0,0.0,0.0,0.0,0.0,0.0,0.0,0.0,0.0,0.0,0.0,0.0,0.0,0.0,0.0,0.0,0.0,0.0,0.0,0.0,0.0,0.0,3.7257,4.0013,4.4858,4.6406,4.6603,4.5318,4.3871,4.1456,3.7789,3.465,0.0,0.0,0.0,0.0,0.0,0.0,0.0,0.0,0.0,0.0,0.0,0.0,0.0,0.0,0.0,0.0,0.0,0.0,0.0,0.0,0.0,0.0,0.0,0.0,0.0,0.0,0.0,0.0,0.0,0.0,0.0,0.0,0.0,0.0,0.0,0.0,0.0,0.0,0.0,0.0,0.0,0.0,0.0,0.0,0.0,0.0,0.0,0.0,0.0,0.0,0.0,0.0,0.0,0.0,0.0,0.0,0.0,0.0,0.0,0.0,0.0,0.0,0.0,0.0,0.0,0.0,0.0,0.0,0.0,0.0,0.0,0.0,0.0,0.0,0.0,0.0,0.0,0.0,0.0,0.0,0.0,0.0,0.0,0.0,0.0,0.0,0.0,0.0,0.0,0.0,0.0,0.0,0.0,0.0,0.0,0.0,0.0,0.0,0.0,0.0,0.0,0.0,4.2078,4.4145,4.6647,4.7124,4.6798,4.5598,4.3589,4.0902,3.7436,3.3169,0.0,0.0,0.0,0.0,0.0,0.0,0.0,0.0,0.0,0.0,0.0,0.0,0.0,0.0,0.0,0.0,0.0,0.0,0.0,0.0,0.0,0.0,0.0,0.0,0.0,0.0,0.0,0.0,0.0,0.0,0.0,0.0,0.0,0.0,0.0,0.0,0.0,0.0,0.0,0.0,0.0,0.0,0.0,0.0,0.0,0.0,0.0,0.0,0.0,0.0,0.0,0.0,0.0,0.0,0.0,0.0,0.0,0.0,0.0,0.0,0.0,0.0,0.0,0.0,0.0,0.0,0.0,0.0,0.0,0.0,0.0,0.0,0.0,0.0,0.0,0.0,0.0,0.0,0.0,0.0,0.0,0.0,0.0,0.0,0.0,0.0,0.0,0.0,0.0,0.0,0.0,0.0,0.0,0.0,0.0,0.0,0.0,0.0,0.0,0.0,0.0,0.0,4.2602,4.61,4.6351,4.7255,4.7205,4.5623,4.2534,3.9697,3.7361,3.2089,0.0,0.0,0.0,0.0,0.0,0.0,0.0,0.0,0.0,0.0,0.0,0.0,0.0,0.0,0.0,0.0,0.0,0.0,0.0,0.0,0.0,0.0,0.0,0.0,0.0,0.0,0.0,0.0,0.0,0.0,0.0,0.0,0.0,0.0,0.0,0.0,0.0,0.0,0.0,0.0,0.0,0.0,0.0,0.0,0.0,0.0,0.0,0.0,0.0,0.0,0.0,0.0,0.0,0.0,0.0,0.0,0.0,0.0,0.0,0.0,0.0,0.0,0.0,0.0,0.0,0.0,0.0,0.0,0.0,0.0,0.0,0.0,0.0,0.0,0.0,0.0,0.0,0.0,0.0,0.0,0.0,0.0,0.0,0.0,0.0,0.0,0.0,0.0,0.0,0.0,0.0,0.0,0.0,0.0,0.0,0.0,0.0,0.0,0.0,0.0,0.0,0.0,4.2152,4.5271,4.6647,4.7481,4.7104,4.5121,4.3162,4.0552,3.6934,0.0,0.0,0.0,0.0,0.0,0.0,0.0,0.0,0.0,0.0,0.0,0.0,0.0,0.0,0.0,0.0,0.0,0.0,0.0,0.0,0.0,0.0,0.0,0.0,0.0,0.0,0.0,0.0,0.0,0.0,0.0,0.0,0.0,0.0,0.0,0.0,0.0,0.0,0.0,0.0,0.0,0.0,0.0,0.0,0.0,0.0,0.0,0.0,0.0,0.0,0.0,0.0,0.0,0.0,0.0,0.0,0.0,0.0,0.0,0.0,0.0,0.0,0.0,0.0,0.0,0.0,0.0,0.0,0.0,0.0,0.0,0.0,0.0,0.0,0.0,0.0,0.0,0.0,0.0,0.0,0.0,0.0,0.0,0.0,0.0,0.0,0.0,0.0,0.0,0.0,0.0,0.0,0.0,0.0,0.0,0.0,0.0,0.0,0.0,0.0,0.0,0.0,3.8712,4.237,4.5171,4.6672,4.7324,4.6798,4.4765,4.3137,4.045,3.6381,0.0,0.0,0.0,0.0,0.0,0.0,0.0,0.0,0.0,0.0,0.0,0.0,0.0,0.0,0.0,0.0,0.0,0.0,0.0,0.0,0.0,0.0,0.0,0.0,0.0,0.0,0.0,0.0,0.0,0.0,0.0,0.0,0.0,0.0,0.0,0.0,0.0,0.0,0.0,0.0,0.0,0.0,0.0,0.0,0.0,0.0,0.0,0.0,0.0,0.0,0.0,0.0,0.0,0.0,0.0,0.0,0.0,0.0,0.0,0.0,0.0,0.0,0.0,0.0,0.0,0.0,0.0,0.0,0.0,0.0,0.0,0.0,0.0,0.0,0.0,0.0,0.0,0.0,0.0,0.0,0.0,0.0,0.0,0.0,0.0,0.0,0.0,0.0,0.0,0.0,0.0,0.0,0.0,0.0,0.0,0.0,0.0,0.0,0.0,0.0,0.0,0.0,3.9218,4.3564,4.6301,4.6301,4.6772,4.6421,4.474,4.208,3.9094,0.0,0.0,0.0,0.0,0.0,0.0,0.0,0.0,0.0,0.0,0.0,0.0,0.0,0.0,0.0,0.0,0.0,0.0,0.0,0.0,0.0,0.0,0.0,0.0,0.0,0.0,0.0,0.0,0.0,0.0,0.0,0.0,0.0,0.0,0.0,0.0,0.0,0.0,0.0,0.0,0.0,0.0,0.0,0.0,0.0,0.0,0.0,0.0,0.0,0.0,0.0,0.0,0.0,0.0,0.0,0.0,0.0,0.0,0.0,0.0,0.0,0.0,0.0,0.0,0.0,0.0,0.0,0.0,0.0,0.0,0.0,0.0,0.0,0.0,0.0,0.0,0.0,0.0,0.0,0.0,0.0,0.0,0.0,0.0,0.0,0.0,0.0,0.0,0.0,0.0,0.0,0.0,0.0,0.0,0.0,0.0,0.0,0.0,0.0,0.0,0.0,0.0,0.0,3.927,4.3564,4.6301,4.6301,4.6772,4.6421,4.474,4.3162,4.0325,3.5784,0.0,0.0,0.0,0.0,0.0,0.0,0.0,0.0,0.0,0.0,0.0,0.0,0.0,0.0,0.0,0.0,0.0,0.0,0.0,0.0,0.0,0.0,0.0,0.0,0.0,0.0,0.0,0.0,0.0,0.0,0.0,0.0,0.0,0.0,0.0,0.0,0.0,0.0,0.0,0.0,0.0,0.0,0.0,0.0,0.0,0.0,0.0,0.0,0.0,0.0,0.0,0.0,0.0,0.0,0.0,0.0,0.0,0.0,0.0,0.0,0.0,0.0,0.0,0.0,0.0,0.0,0.0,0.0,0.0,0.0,0.0,0.0,0.0,0.0,0.0,0.0,0.0,0.0,0.0,0.0,0.0,0.0,0.0,0.0,0.0,0.0,0.0,0.0,0.0,0.0,0.0,0.0,0.0,0.0,0.0,0.0,0.0,0.0,0.0,0.0,0.0,0.0,3.9597,4.3714,4.6401,4.6597,4.6722,4.617,4.4715,4.3614,4.0953,3.6158,0.0,0.0,0.0,0.0,0.0,0.0,0.0,0.0,0.0,0.0,0.0,0.0,0.0,0.0,0.0,0.0,0.0,0.0,0.0,0.0,0.0,0.0,0.0,0.0,0.0,0.0,0.0,0.0,0.0,0.0,0.0,0.0,0.0,0.0,0.0,0.0,0.0,0.0,0.0,0.0,0.0,0.0,0.0,0.0,0.0,0.0,0.0,0.0,0.0,0.0,0.0,0.0,0.0,0.0,0.0,0.0,0.0,0.0,0.0,0.0,0.0,0.0,0.0,0.0,0.0,0.0,0.0,0.0,0.0,0.0,0.0,0.0,0.0,0.0,0.0,0.0,0.0,0.0,0.0,0.0,0.0,0.0,0.0,0.0,0.0,0.0,0.0,0.0,0.0,0.0,0.0,0.0,0.0,0.0,0.0,0.0,0.0,0.0,0.0,0.0,0.0,0.0,4.0073,4.3887,4.6502,4.6973,4.6572,4.5849,4.469,4.3614,4.1155,3.6808,0.0,0.0,0.0,0.0,0.0,0.0,0.0,0.0,0.0,0.0,0.0,0.0,0.0,0.0,0.0,0.0,0.0,0.0,0.0,0.0,0.0,0.0,0.0,0.0,0.0,0.0,0.0,0.0,0.0,0.0,0.0,0.0,0.0,0.0,0.0,0.0,0.0,0.0,0.0,0.0,0.0,0.0,0.0,0.0,0.0,0.0,0.0,0.0,0.0,0.0,0.0,0.0,0.0,0.0,0.0,0.0,0.0,0.0,0.0,0.0,3.5424,3.2291,0.0,0.0,0.0,0.0,0.0,0.0,0.0,0.0,0.0,0.0,0.0,0.0,0.0,0.0,0.0,0.0,0.0,0.0,0.0,0.0,0.0,0.0,0.0,0.0,0.0,0.0,0.0,0.0,0.0,0.0,0.0,0.0,0.0,0.0,0.0,0.0,0.0,0.0,0.0,0.0,4.0123,4.3887,4.6351,4.6446,4.6376,4.5849,4.469,4.3614,4.1482,3.7889,3.4223,0.0,0.0,0.0,0.0,0.0,0.0,0.0,0.0,0.0,0.0,0.0,0.0,0.0,0.0,0.0,0.0,0.0,0.0,0.0,0.0,0.0,0.0,0.0,0.0,0.0,0.0,0.0,0.0,0.0,0.0,0.0,0.0,0.0,0.0,0.0,0.0,0.0,0.0,0.0,0.0,0.0,0.0,0.0,0.0,0.0,0.0,0.0,0.0,0.0,0.0,0.0,0.0,0.0,0.0,0.0,0.0,0.0,0.0,0.0,4.0648,3.7968,0.0,0.0,0.0,0.0,0.0,0.0,0.0,0.0,0.0,0.0,0.0,0.0,0.0,0.0,0.0,0.0,0.0,0.0,0.0,0.0,0.0,0.0,0.0,0.0,0.0,0.0,0.0,0.0,0.0,0.0,0.0,0.0,0.0,0.0,0.0,0.0,0.0,0.0,0.0,0.0,4.0524,4.4037,4.6401,4.6647,4.6225,4.5573,4.4665,4.3614,4.1781,3.8994,3.6157,0.0,0.0,0.0,0.0,0.0,0.0,0.0,0.0,0.0,0.0,0.0,0.0,0.0,0.0,0.0,0.0,0.0,0.0,0.0,0.0,0.0,0.0,0.0,0.0,0.0,0.0,0.0,0.0,0.0,0.0,0.0,0.0,0.0,0.0,0.0,0.0,0.0,0.0,0.0,0.0,0.0,0.0,0.0,0.0,0.0,0.0,0.0,0.0,0.0,0.0,0.0,0.0,0.0,4.5875,4.6741,4.8109,4.859,4.8717,4.8492,4.6452,4.4853,4.3476,4.0636,0.0,0.0,0.0,0.0,0.0,0.0,0.0,0.0,0.0,0.0,0.0,0.0,0.0,0.0,0.0,0.0,0.0,0.0,0.0,0.0,0.0,0.0,0.0,0.0,3.9823,4.0099,3.6533,0.0,0.0,0.0,0.0,0.0,0.0,0.0,0.0,0.0,0.0,0.0,4.1102,4.4288,4.6476,4.6923,4.6075,4.5246,4.464,4.3614,4.2217,4.0385,3.8589,3.6798,0.0,0.0,0.0,0.0,0.0,0.0,0.0,0.0,0.0,0.0,0.0,0.0,0.0,0.0,0.0,0.0,0.0,0.0,0.0,0.0,0.0,0.0,0.0,0.0,0.0,0.0,0.0,0.0,0.0,0.0,0.0,0.0,3.665,3.7395,0.0,0.0,0.0,0.0,0.0,0.0,0.0,0.0,0.0,0.0,0.0,0.0,0.0,4.6337,4.7539,5.0057,5.1437,5.1747,5.3648,5.4924,5.5563,5.5658,5.5432,5.4974,5.4659,0.0,4.644,4.454,0.0,0.0,0.0,0.0,0.0,0.0,0.0,0.0,0.0,0.0,0.0,0.0,0.0,0.0,0.0,0.0,0.0,0.0,0.0,0.0,0.0,0.0,4.4267,4.3736,4.3489,4.3338,0.0,3.9044,3.5079,3.4301,3.3345,0.0,0.0,0.0,0.0,0.0,0.0,0.0,4.1783,4.4543,4.6326,4.6401,4.5849,4.5246,4.464,4.3614,4.2846,4.2502,4.0472,3.9321,3.9427,3.6375,0.0,0.0,0.0,0.0,0.0,0.0,0.0,0.0,0.0,0.0,0.0,0.0,0.0,0.0,0.0,0.0,0.0,0.0,0.0,0.0,0.0,0.0,0.0,0.0,0.0,0.0,0.0,0.0,0.0,3.7615,4.0418,3.9946,4.0074,3.9272,0.0,0.0,0.0,0.0,0.0,0.0,0.0,0.0,0.0,5.0235,5.0361,5.1222,5.2929,5.416,5.4902,5.5204,5.6182,5.6935,5.7524,5.7524,5.7186,5.6609,5.6344,5.4511,5.1548,4.8611,4.5974,4.3589,0.0,0.0,0.0,0.0,4.1153,4.163,4.3438,4.3664,4.2958,4.2005,0.0,0.0,0.0,0.0,0.0,0.0,0.0,4.045,0.0,0.0,4.5573,4.5919,4.6075,4.61,4.602,4.3661,4.0851,0.0,3.7588,3.6408,3.3721,3.3975,0.0,0.0,0.0,4.0927,4.2836,4.497,4.6301,4.6301,4.5522,4.4895,4.4614,4.4324,4.377,4.2945,4.286,4.2579,4.2061,3.9615,3.7435,0.0,0.0,0.0,0.0,0.0,0.0,0.0,0.0,0.0,0.0,0.0,0.0,0.0,0.0,0.0,0.0,0.0,0.0,0.0,0.0,0.0,0.0,0.0,0.0,0.0,0.0,0.0,0.0,4.0778,4.3639,4.2507,4.374,4.3313,0.0,0.0,0.0,0.0,0.0,0.0,4.8629,4.9056,5.0812,5.4275,5.4501,5.5465,5.7248,5.7273,5.7474,5.7838,5.7688,5.7876,5.8303,5.8303,5.8001,5.7387,5.6872,5.6244,5.5315,5.1724,4.9188,4.7405,4.5573,4.4518,4.4166,4.5121,4.5518,4.5999,4.8209,4.846,4.755,4.6446,4.4794,4.2738,3.9949,0.0,0.0,0.0,0.0,4.2381,4.4192,4.5372,4.6351,4.733,4.7732,4.7957,4.811,4.7719,4.6226,0.0,4.1555,4.035,3.7161,3.7187,0.0,3.7663,3.9998,4.2281,4.3815,4.5347,4.6301,4.6301,4.5594,4.5113,4.5027,4.5352,4.5048,4.3875,4.5004,4.5256,4.4271,4.2771,4.1148,3.9438,0.0,0.0,0.0,0.0,0.0,0.0,0.0,0.0,0.0,0.0,0.0,0.0,0.0,0.0,0.0,0.0,0.0,0.0,0.0,0.0,0.0,0.0,0.0,0.0,0.0,0.0,0.0,0.0,0.0,4.5422,4.7631,0.0,0.0,0.0,0.0,4.6722,4.8755,5.0996,5.3256,5.4386,5.6043,5.8315,5.8905,5.9483,6.0111,6.0111,6.0136,6.0122,5.9633,5.9382,5.9408,5.9408,5.9131,5.8566,5.8052,5.7198,5.5942,5.313,5.1599,5.0853,4.8586,4.738,4.6973,4.7531,4.8083,4.8693,4.9314,4.9515,4.954,4.9992,4.8309,4.5874,4.4589,4.3514,0.0,0.0,4.4769,4.6145,4.6772,4.735,4.7933,4.8592,4.8284,4.8469,5.0568,5.053,4.9136,0.0,4.4367,4.3237,4.2034,0.0,4.1051,4.1051,4.2133,4.3313,4.4414,4.5598,4.6301,4.6301,4.6472,4.6483,4.6254,4.6678,4.68,4.6345,4.657,4.6643,4.6447,4.5734,4.4405,4.2422,3.8717,0.0,0.0,0.0,0.0,0.0,0.0,0.0,0.0,0.0,0.0,0.0,0.0,0.0,0.0,0.0,0.0,0.0,0.0,0.0,0.0,0.0,0.0,0.0,0.0,0.0,0.0,0.0,0.0,4.8711,5.0469,0.0,4.7807,4.8736,5.0017,5.1272,5.2754,5.4737,5.7298,5.7801,5.888,6.0763,6.0663,6.0839,6.1391,6.104,6.0688,6.0311,6.0111,5.9834,5.9483,5.9483,5.9207,5.8641,5.8127,5.7449,5.6584,5.4913,5.3919,5.3316,5.2101,5.1523,5.1348,5.1164,5.1272,5.1473,5.1674,5.1498,5.1122,5.0594,4.9264,4.7807,4.7405,4.6753,4.6276,4.6828,4.8207,4.9594,5.0109,5.1162,5.2138,5.2352,5.2245,5.2289,5.3106,5.309,5.2585,5.146,4.9861,4.8253,4.6839,4.6597,4.6355,4.5502,4.6543,4.7642,4.8218,4.8784,4.9139,4.9139,4.892,4.8545,4.8002,4.828,4.7949,4.6775,4.7387,4.7419,4.6639,4.6475,4.565,4.3921,4.1334,3.7873,0.0,0.0,0.0,0.0,0.0,0.0,0.0,0.0,0.0,0.0,0.0,0.0,0.0,0.0,0.0,0.0,0.0,0.0,0.0,0.0,0.0,0.0,0.0,0.0,0.0,4.8611,5.1473,5.1264,5.3372,5.3934,5.1498,5.2804,5.431,5.5566,5.652,5.7926,5.996,6.0236,6.0839,6.1969,6.1843,6.1918,6.227,6.1542,6.0989,6.0613,6.0211,5.9859,5.9483,5.9483,5.9307,5.8956,5.8403,5.7851,5.7211,5.6319,5.5616,5.5039,5.4285,5.3884,5.3658,5.3306,5.3046,5.2895,5.2895,5.2644,5.2226,5.1297,5.0494,4.9816,4.9471,4.9451,4.9586,4.9822,5.1035,5.237,5.2715,5.361,5.4386,5.4386,5.4386,5.459,5.5373,5.5321,5.5383,5.6162,5.403,5.1759,5.0713,5.0602,5.0299,4.931,4.9941,5.0547,5.0625,5.0684,5.0713,5.0713,5.0651,5.0305,4.953,4.9731,4.9198,4.7588,4.7783,4.7537,4.6555,4.621,4.5527,4.4519,4.2491,3.9586,3.5785,0.0,0.0,0.0,0.0,0.0,0.0,0.0,0.0,0.0,0.0,0.0,0.0,0.0,0.0,0.0,0.0,0.0,0.0,0.0,0.0,0.0,0.0,0.0,4.8083,5.1398,5.3658,5.3171,5.6458,5.7725,5.5074,5.7198,5.9006,5.9533,6.006,6.0638,6.1215,6.1743,6.2019,6.2019,6.2546,6.2822,6.2822,6.1808,6.1255,6.123,6.0124,5.9572,5.9508,5.9508,5.9483,5.9496,5.8956,5.8403,5.7913,5.7273,5.6721,5.6118,5.5049,5.427,5.3733,5.3708,5.3381,5.2895,5.2895,5.2895,5.2795,5.2302,5.216,5.1967,5.0861,5.1634,5.2817,5.2266,5.3302,5.4531,5.4531,5.456,5.459,5.459,5.459,5.5172,5.7283,5.7253,5.7447,5.9632,5.6621,5.3679,5.365,5.3208,5.2763,5.2504,5.2095,0.0,5.1481,5.1099,5.0851,5.0851,5.1593,5.1704,5.0761,5.1003,5.0544,4.8981,4.7865,4.698,4.633,4.5014,4.4326,4.4356,4.2256,4.0017,3.7721,0.0,0.0,0.0,0.0,0.0,0.0,0.0,0.0,0.0,0.0,0.0,0.0,0.0,0.0,0.0,0.0,0.0,0.0,0.0,0.0,0.0,4.8862,5.2101,5.2101,5.4787,5.7123,5.8114,5.9608,6.0211,5.9471,6.006,6.0738,6.1266,6.1466,6.1793,6.2345,6.2521,6.2556,6.2556,6.2706,6.2945,6.3311,6.3007,6.2653,6.2223,6.1489,6.0801,6.0085,5.9684,5.9663,5.9882,5.9389,5.906,5.8832,5.7908,5.739,5.7063,5.5699,5.4813,5.4321,5.3858,5.3381,5.2895,5.2895,5.2895,5.2939,5.3062,5.3466,5.3896,5.3902,5.4574,5.5327,5.5163,5.6261,5.7535,5.7535,5.8379,5.9269,5.9269,5.8888,5.8707,5.9303,5.8914,5.8609,5.9257,5.8383,5.7513,5.7291,5.6738,5.622,5.5974,5.5396,5.4852,5.4531,5.4188,5.3964,5.3964,5.4178,5.3824,5.2595,5.1685,5.0405,4.8596,4.6839,4.5992,4.63,4.5484,4.5274,4.5732,4.3627,4.1755,0.0,0.0,0.0,0.0,0.0,0.0,0.0,0.0,0.0,0.0,0.0,0.0,0.0,0.0,0.0,0.0,0.0,0.0,0.0,0.0,0.0,0.0,5.2804,5.5792,5.6696,5.8252,5.9709,6.0889,6.1517,6.1868,6.1868,6.1868,6.1994,6.232,6.2345,6.2496,6.2781,6.2781,6.2781,6.2781,6.2985,6.3108,6.3189,6.3326,6.3167,6.2585,6.225,6.1779,6.1213,6.063,6.0493,6.0699,6.0138,5.9781,5.9513,5.9271,5.8671,0.0,0.0,0.0,0.0,0.0,5.3791,5.3366,5.3457,5.3801,5.4224,5.4459,5.5202,5.603,5.6038,5.6783,5.7584,5.736,5.8461,5.971,5.971,6.0397,6.1076,6.1076,6.0805,6.0595,6.0864,6.0416,6.0027,6.0296,5.9907,0.0,5.9299,5.8736,5.821,5.7939,5.7371,5.678,5.6195,5.5807,5.5534,5.5209,5.5179,5.464,5.3318,5.2217,0.0,0.0,0.0,4.5933,4.5463,4.5095,0.0,0.0,0.0,0.0,0.0,0.0,0.0,0.0,4.0237,3.9867,0.0,0.0,0.0,0.0,0.0,0.0,0.0,0.0,0.0,0.0,0.0,0.0,0.0,0.0,0.0,0.0,5.6445,5.9006,6.109,6.1366,6.1542,6.2044,6.248,6.2781,6.2781,6.2781,6.2781,6.2781,6.2781,6.2781,6.2781,6.2863,0.0,0.0,0.0,6.3392,6.3026,6.3487,6.3549,6.31,6.3154,6.3169,6.3104,6.2393,6.2146,6.2159,6.1551,6.1007,6.0602,6.134,6.0479,5.8544,5.7048,5.6514,5.6431,5.5551,5.4962,5.4702,5.4877,0.0,0.0,5.6379,5.7263,5.8209,5.7775,5.8712,5.9825,5.9305,6.0232,6.1343,6.1343,6.1343,6.1343,6.1343,6.1283,6.1373,6.1972,6.1583,6.1283,6.1882,6.1014,6.0206,6.0206,5.9578,5.9018,5.8803,5.8399,5.7826,5.6964,5.646,5.5983,5.5384,0.0,0.0,5.3438,5.2695,5.1498,4.9636,4.8327,4.68,4.4945,4.4984,4.5642,4.6839,4.6839,4.8005,5.0315,5.0315,5.0667,5.1176,4.4283,4.3382,0.0,0.0,0.0,0.0,0.0,0.0,0.0,0.0,0.0,0.0,0.0,0.0,0.0,0.0,0.0,5.5856,5.873,6.1014,6.232,6.2496,6.2546,6.2606,6.2731,6.2781,6.2781,6.2781,6.2781,6.2781,6.2781,6.2781,6.2781,6.3148,6.3352,6.3352,6.3757,6.4119,6.4401,6.5699,6.6335,6.6231,6.7066,0.0,6.69,6.5836,6.5464,6.5764,6.5088,6.4758,6.4657,6.4343,6.3286,6.1505,5.9161,5.8895,5.9796,5.9164,5.8909,5.8877,5.8887,5.8696,5.8466,5.8723,5.937,6.0057,6.0272,6.132,0.0,6.2286,6.2459,6.2718,6.2718,6.2718,6.2718,6.2718,6.2301,6.1942,6.2061,6.1583,6.1164,6.1283,6.1104,6.0924,6.0924,5.9907,5.9072,5.9018,5.8507,5.8028,5.7856,5.6889,5.6162,5.6013,5.5534,5.488,5.4072,5.3384,5.2366,5.093,5.0069,4.9232,4.8379,4.9314,4.9979,5.0249,5.0249,5.0488,5.0996,5.0996,5.1355,5.1977,4.9945,4.9498,0.0,0.0,0.0,0.0,0.0,0.0,0.0,0.0,0.0,0.0,0.0,4.7782,5.0042,0.0,5.6219,5.8704,6.0512,6.1893,6.2681,6.2781,6.2781,6.2781,6.2781,6.2781,6.2781,6.2781,6.2904,6.3148,6.3148,6.323,6.3433,6.3676,6.3797,6.3797,6.42,6.4815,6.5634,6.6832,6.7729,6.8284,6.9031,6.9262,6.9021,6.7823,6.7373,6.7497,6.6538,6.6083,6.6027,6.5173,6.4995,6.5109,6.3103,6.1796,6.1042,6.0877,6.0653,6.0505,6.0617,6.0598,6.0532,6.0688,6.1238,6.1851,6.2028,6.2585,6.3108,6.3108,6.3108,6.3108,6.3108,6.3108,6.3108,6.3108,6.2839,6.26,6.26,6.2331,6.2091,6.2091,6.1822,6.1613,6.1613,6.0775,5.9997,5.9638,5.9039,5.8474,5.8145,5.7543,5.7004,5.6701,5.6102,5.5444,5.476,5.3473,5.2396,5.1738,5.1056,5.0578,5.0242,5.087,5.1355,5.1684,5.1708,5.2037,5.2701,5.2701,5.3054,5.3683,5.3354,5.3025,0.0,0.0,0.0,0.0,0.0,0.0,0.0,4.3614,4.5472,4.7481,5.0092,5.2754,5.5125,5.7173,5.9156,6.104,6.1818,6.232,6.2731,6.2863,6.2945,6.2945,6.2863,6.2822,6.2904,6.2945,6.3108,6.3595,6.3635,6.3918,6.4535,6.4655,6.4828,6.5146,6.5582,6.6275,6.7203,6.8214,6.9168,7.0107,7.0732,7.1024,7.0995,6.9885,6.9401,6.9344,6.8035,6.746,6.7346,6.6156,6.6745,6.8251,6.7,6.499,6.2777,6.2816,6.2575,6.2206,6.2341,6.2564,6.2751,6.2634,6.2883,6.3257,6.3138,6.3108,6.3108,6.3108,6.3108,6.3108,6.3108,6.3108,6.3108,6.3108,6.3108,6.3108,6.3108,6.3108,6.3108,6.3108,6.266,6.2301,6.2301,6.1732,6.1014,6.0206,5.9638,5.9069,5.8384,5.8175,5.7876,5.7363,5.6761,5.6162,5.5598,5.4072,5.3054,5.2785,5.2396,5.2007,5.1618,5.1714,5.1977,5.2396,5.2396,5.2935,5.4012,5.4132,5.4551,5.5179,5.5329,5.5029,3.8467,3.9019,4.03,4.3209,4.379,4.5497,0.0,5.3005,5.2669,5.5867,5.7198,5.8027,5.8805,5.996,6.1065,6.1793,6.237,6.2706,6.2781,6.3148,6.3433,6.3433,6.3067,6.2945,6.3392,6.3433,6.3595,6.3999,6.4039,6.4669,6.617,6.6572,6.7395,6.8878,6.929,6.9588,6.97,7.1198,7.2021,7.2164,7.3638,7.4357,7.4327,7.3614,7.3287,7.3198,7.186,7.1265,7.1176,6.9897,6.9555,6.9692,6.8935,6.8449,6.8082,6.7516,6.6893,6.6331,6.6358,6.6004,6.5471,6.4845,6.4337,6.3797,6.3257,6.3108,6.3108,6.3108,6.3108,6.3108,6.3108,6.3108,6.3108,6.3108,6.3108,6.3108,6.3108,6.3108,6.3108,6.3108,6.3048,6.2988,6.2988,6.2421,6.1553,6.0294,6.0054,5.9727,5.9069,5.8444,5.8055,5.7995,5.7393,5.6974,5.6885,5.6675,5.6047,5.494,5.5354,5.4845,5.3049,5.3563,5.3623,5.3109,5.3109,5.3169,5.3318,5.3922,5.4551,5.5209,5.5803,5.5743,4.4446,4.5075,4.5623,4.8309,5.0017,5.185,5.5013,5.5767,5.6394,5.8403,5.9533,6.0311,6.0864,6.1592,6.222,6.2446,6.2631,6.2904,6.3148,6.3866,6.4272,6.4117,6.4751,6.482,6.3922,6.4709,6.5411,6.5844,6.6689,6.7625,6.8549,6.8737,6.915,6.9848,7.0033,7.0549,7.1488,7.2164,7.294,7.3911,7.4564,7.4903,7.4903,7.418,7.3702,7.3283,7.2295,7.1876,7.1787,7.0532,7.0023,6.9961,6.9662,6.9333,6.8914,6.8257,6.7838,6.7538,6.7119,6.655,6.5892,6.5203,6.4575,6.3887,6.3287,6.3108,6.3108,6.3108,6.3108,6.3108,6.3108,6.3108,6.3108,6.3108,6.3108,6.3108,6.3108,6.3108,6.3108,6.3108,6.3108,6.3108,6.3108,6.2868,6.2361,6.1403,6.0623,5.9847,5.9189,5.886,5.8534,5.8145,5.7846,5.7513,5.7124,5.7094,5.6855,5.6346,5.5867,5.5593,5.5448,5.5029,5.464,5.4366,5.5114,5.5089,5.4366,5.5388,5.6017,5.6316,5.6585,5.6555,4.7682,4.8962,5.0024,5.2226,5.4863,5.6922,5.6972,5.8052,5.9307,6.0211,6.0939,6.1542,6.1943,6.2345,6.2596,6.2596,6.3063,6.365,6.4068,6.4913,6.5498,6.5571,6.6412,6.652,6.533,6.633,6.731,6.7866,6.9,6.9997,7.0696,7.0732,7.098,7.1416,7.1416,7.1956,7.3146,7.3181,7.3772,7.4903,7.4903,7.4903,7.4903,7.439,7.3911,7.3402,7.2744,7.2325,7.2086,7.0979,7.0442,7.0231,7.0231,6.9931,6.9453,6.8796,6.8317,6.7928,6.7418,6.6819,6.6161,6.5473,6.4844,6.4156,6.3528,6.3227,6.3108,6.3108,6.3108,6.3108,6.3108,6.3108,6.3108,6.3108,6.3108,6.3108,6.3108,6.3108,6.3108,6.3108,6.3108,6.3108,6.3108,6.3108,6.2868,6.2181,6.1253,6.0326,5.9488,5.9219,5.8919,5.8414,5.8384,5.8201,5.7693,5.7663,5.7483,5.7124,5.6406,5.6166,5.6555,5.5893,5.5414,5.5179,5.6107,5.6107,5.5179,5.6286,5.6944,5.7094,5.7304,5.7483,4.5874,4.8391,5.1783,5.3969,5.6595,5.9056,6.0638,6.1466,6.2044,6.2581,6.232,6.1994,6.1994,6.2019,6.2019,6.2019,6.3829,6.5345,6.5687,6.6434,6.7295,6.8262,6.7672,6.7413,6.8021,6.8288,6.8873,6.994,7.007,7.0769,7.2336,7.2443,7.3146,7.4731,7.4766,7.4766,7.4834,7.4834,7.4834,7.4903,7.4903,7.4903,7.4903,7.4903,7.4873,7.4813,7.4121,7.3462,7.2834,7.2116,7.1457,7.0889,7.0889,7.0859,7.0769,7.0141,6.9125,6.7987,6.7987,6.7538,6.6849,6.6191,6.5503,6.4845,6.4186,6.3558,6.3108,6.3108,6.3108,6.3108,6.3108,6.3108,6.3108,6.3108,6.3108,6.3108,6.3108,6.3108,6.3108,6.3108,6.3108,6.3108,6.3108,6.3108,6.2868,6.2181,6.2061,6.1553,6.0236,5.9488,5.9099,5.9069,5.9069,5.9069,5.9039,5.9039,5.8471,5.7184,5.7666,5.7158,5.5329,5.5863,5.5863,5.5209,5.5239,5.5239,5.5179,5.5893,5.6521,5.7124,5.7782,5.8414,5.0552,5.2763,5.4712,5.765,5.9382,6.0688,6.1969,6.2421,6.2395,6.1843,6.1291,6.0663,5.9935,6.0953,6.2019,6.2445,6.4848,6.6909,6.7735,6.8863,6.9501,6.9257,6.9868,7.0228,7.0023,6.9869,7.017,7.0972,7.2017,7.3056,7.405,7.4085,7.4357,7.4869,7.4903,7.4903,7.4903,7.4903,7.4903,7.4903,7.4903,7.4903,7.4903,7.4903,7.4903,7.4873,7.418,7.3762,7.3492,7.2355,7.1757,7.1517,7.1068,7.0889,7.0889,7.0679,6.9782,6.8585,6.8167,6.7568,6.6879,6.6221,6.5862,6.5532,6.4845,6.4516,6.4276,6.3827,6.3677,6.3588,6.3197,6.3108,6.3108,6.3108,6.3108,6.3108,6.3108,6.3108,6.3108,6.3108,6.3108,6.3108,6.3108,6.3108,6.2868,6.2181,6.1732,6.1104,6.0234,5.9877,5.9578,5.9159,5.9099,5.9099,5.9099,5.9099,5.8919,5.8471,5.7812,5.7543,5.7782,5.7154,5.6675,5.6466,5.6915,5.6915,5.6466,5.7124,5.7782,5.8441,5.868,5.889,5.4397,5.6849,5.8668,6.1172,6.2242,6.2922,6.3991,6.3607,6.2828,6.2264,6.1156,6.0062,5.9378,6.0242,6.1506,6.2873,6.5553,6.8068,6.9754,7.0707,7.1214,7.1141,7.1581,7.1816,7.1637,7.1457,7.165,7.2324,7.3516,7.454,7.5198,7.5258,7.5258,7.5258,7.5258,7.5138,7.4903,7.4903,7.4903,7.4903,7.4903,7.4903,7.4903,7.4903,7.4903,7.4903,7.442,7.4121,7.3821,7.2954,7.2325,7.1846,7.1427,7.1098,7.0889,7.0889,7.0231,6.9243,6.8555,6.7747,6.6909,6.649,6.6191,6.5922,6.5473,6.5024,6.4575,6.4425,6.4036,6.3617,6.3468,6.3257,6.3108,6.3108,6.3108,6.3108,6.3108,6.3108,6.3108,6.3108,6.3108,6.3108,6.3108,6.3108,6.2958,6.251,6.2091,6.1493,6.0565,6.0236,5.9907,5.9488,5.9249,5.9099,5.9099,5.9099,5.9009,5.877,5.7932,5.7842,5.871,5.7693,5.7214,5.7453,5.7663,5.7543,5.7094,5.7756,5.8205,5.8411,5.889,5.8979,5.7379,6.0435,6.327,6.4392,6.5005,6.5633,6.6525,6.4995,6.344,6.3592,6.1661,5.9891,5.9784,5.9684,6.0511,6.3059,6.6005,6.8924,7.1632,7.1988,7.2412,7.3754,7.2774,7.2235,7.2894,7.2984,7.3283,7.3941,7.454,7.5168,7.5856,7.5916,7.5916,7.5916,7.5886,7.5527,7.4933,7.4903,7.4903,7.4903,7.4903,7.4903,7.4903,7.4903,7.4903,7.4903,7.4903,7.4544,7.3941,7.3881,7.3103,7.1936,7.1909,7.1457,7.0889,7.0889,7.05,6.981,6.9213,6.8136,6.7029,6.6999,6.658,6.6071,6.6071,6.5173,6.4276,6.4874,6.4186,6.3377,6.3857,6.3587,6.3138,6.3108,6.3108,6.3108,6.3108,6.3108,6.3108,6.3108,6.3108,6.3108,6.3108,6.3108,6.3108,6.3108,6.3108,6.2629,6.1343,6.0535,6.0114,6.0054,5.9428,5.9009,5.9009,5.9009,5.874,5.8085,5.8055,5.8055,5.8055,5.7453,5.7423,5.8085,5.7453,5.7124,5.7184,5.7812,5.7786,5.7214,5.8501,5.877,6.1823,6.4228,6.5992,6.6691,6.6646,6.6346,6.613,6.45,6.2461,6.0254,5.783,5.5584,5.3835,5.6469,5.9588,6.1766,6.6829,7.1253,7.3402,7.3952,7.4066,7.3941,7.3582,7.3462,7.3642,7.4091,7.4659,7.5347,7.5078,7.5168,7.5856,7.5916,7.5916,7.5916,7.5407,7.5048,7.4903,7.4903,7.4903,7.4903,7.4903,7.4903,7.4903,7.4903,7.4903,7.4903,7.4903,7.4813,7.4574,7.3582,7.2954,7.2565,7.1547,7.1038,7.0889,7.0889,7.05,6.9871,6.9243,6.8435,6.7658,6.7148,6.6879,6.6759,6.6759,6.649,6.6161,6.5862,6.5533,6.5084,6.4216,6.3887,6.3647,6.3227,6.3108,6.3108,6.3108,6.3108,6.3108,6.3108,6.3108,6.3108,6.3108,6.3108,6.3108,6.3108,6.3108,6.2808,6.1942,6.0805,5.9907,5.9398,5.8291,5.7603,5.7603,5.7603,5.7543,5.7363,5.7363,5.7363,5.7363,5.7184,5.7423,5.8085,5.7453,5.7603,5.859,5.8264,5.8264,5.859,5.8949,5.9009,6.5471,6.7724,6.9216,6.8528,6.7901,6.7019,6.5383,6.3432,6.1045,5.7761,5.5547,5.36,5.1739,5.5055,5.8811,6.1095,6.6581,7.1473,7.4168,7.4862,7.5115,7.5163,7.5168,7.5168,7.5168,7.5527,7.5886,7.6275,7.5946,7.6036,7.6694,7.6724,7.6724,7.6724,7.6365,7.5886,7.5318,7.5053,7.4903,7.4903,7.4903,7.4903,7.4903,7.4903,7.4903,7.4903,7.4903,7.4903,7.4843,7.3762,7.3163,7.2804,7.1757,7.1158,7.0889,7.0889,7.0679,7.026,6.9333,6.8734,6.8287,6.7298,6.6999,6.6999,6.6999,6.6789,6.649,6.6101,6.5592,6.5024,6.4575,6.4216,6.3977,6.3947,6.3707,6.3468,6.3468,6.3287,6.3108,6.3108,6.3108,6.3108,6.3108,6.3108,6.3108,6.3108,6.3108,6.2958,6.2599,6.1613,6.0595,5.9638,5.9129,5.862,5.8022,5.853,5.874,5.8441,5.8411,5.8411,5.8411,5.8141,5.8291,5.8979,5.8321,5.8201,5.8653,5.859,5.859,5.868,5.9249,5.9368,6.8604,7.07,7.2106,7.0052,6.8927,6.7607,6.4589,6.1959,5.9149,5.5519,5.3617,5.2227,5.1066,5.4055,5.7687,6.0697,6.5611,7.0409,7.4356,7.5101,7.5627,7.6564,7.6808,7.6928,7.6928,7.6988,7.7048,7.7048,7.7048,7.7293,7.7771,7.7801,7.7771,7.7682,7.7682,7.7113,7.5916,7.5318,7.4993,7.4903,7.4903,7.4903,7.4903,7.4903,7.4903,7.4903,7.4903,7.4903,7.4843,7.4061,7.3432,7.2834,7.2056,7.1398,7.0889,7.0889,7.0889,7.0739,6.9542,6.9123,6.8884,6.7448,6.6999,6.6999,6.6999,6.658,6.6131,6.6131,6.5293,6.4515,6.4994,6.4695,6.4395,6.4874,6.4515,6.4006,6.4006,6.3528,6.3108,6.3108,6.3108,6.3108,6.3108,6.3108,6.3108,6.3108,6.3108,6.3108,6.3108,6.2421,6.1523,6.0356,6.0595,6.0356,5.9189,6.0176,6.0595,5.9997,5.9994,5.9994,5.9994,5.9398,5.9428,6.0114,5.9518,5.9009,5.8504,5.9009,5.8979,5.8504,5.9608,5.9787,7.1515,7.2214,7.2385,7.15,6.9985,6.7767,6.4091,6.0462,5.6647,5.2375,4.964,4.7729,4.7027,5.0247,5.4675,5.9722,6.4218,6.8925,7.4146,7.4924,7.5219,7.5976,7.6993,7.7652,7.7652,7.813,7.846,7.846,7.846,7.825,7.7831,7.7801,7.7562,7.6988,7.6958,7.6629,7.5916,7.5796,7.5437,7.4903,7.4903,7.4903,7.4903,7.4903,7.4903,7.4903,7.4903,7.4903,7.4813,7.3582,7.3013,7.2804,7.1547,7.1009,7.0889,7.0889,7.0889,7.0799,7.0081,6.9844,6.9482,6.7597,6.6999,6.6999,6.6999,6.6909,6.6819,6.6819,6.664,6.637,6.5951,6.5742,6.5562,6.5084,6.4515,6.4006,6.4006,6.3528,6.3108,6.3108,6.3108,6.3108,6.3108,6.3108,6.3108,6.3108,6.3108,6.3108,6.3108,6.2032,6.1194,6.0954,6.0057,5.9368,5.9129,5.9308,5.9398,5.9279,5.9279,5.9279,5.9279,5.9159,5.9428,6.0114,5.9967,6.0146,6.0567,6.0146,6.0146,6.0567,6.0236,6.0054,7.2369,7.2602,7.2311,7.104,6.9234,6.6389,6.0874,5.739,5.3878,4.8735,4.6679,4.5518,4.456,4.8062,5.2339,5.5993,6.0216,6.5261,7.1705,7.2737,7.3821,7.6574,7.8041,7.8849,7.8849,7.9447,7.9836,7.9836,7.9836,7.9387,7.837,7.831,7.816,7.7861,7.7502,7.6988,7.636,7.6066,7.5557,7.4903,7.4903,7.4903,7.4903,7.4903,7.4903,7.4903,7.4903,7.4903,7.4813,7.3462,7.2924,7.2774,7.1427,7.0889,7.0889,7.0889,7.0889,7.0799,7.0201,6.9752,6.9243,6.7958,6.7538,6.7479,6.7119,6.6999,6.6909,6.658,6.649,6.64,6.6101,6.6011,6.6011,6.6041,6.5533,6.4844,6.4156,6.3767,6.3497,6.3168,6.3108,6.3108,6.3108,6.3108,6.3108,6.3108,6.3108,6.3108,6.3108,6.254,6.1882,6.1166,6.1164,6.0894,6.0206,6.0775,6.1164,6.1164,6.1164,6.1164,6.1164,6.1164,6.1313,6.1671,6.1671,6.1642,6.1613,6.1283,6.1313,6.1613,6.1283,6.1134,7.2253,7.2515,7.2166,7.025,6.8252,6.488,5.7971,5.4575,5.1352,4.5859,4.4494,4.4037,4.3158,4.6324,4.9959,5.267,5.653,6.1752,6.9067,7.0816,7.2954,7.7293,7.9118,8.0016,8.0016,8.0614,8.0943,8.0823,8.0794,8.0285,7.9088,7.8998,7.8938,7.8789,7.828,7.7711,7.7018,7.6425,7.5766,7.5078,7.4993,7.4903,7.4903,7.4903,7.4903,7.4903,7.4903,7.4903,7.4813,7.3612,7.3043,7.2804,7.1577,7.1038,7.0889,7.0889,7.0889,7.0829,7.035,6.9842,6.9273,6.8496,6.8017,6.7688,6.7148,6.6999,6.6879,6.637,6.6221,6.6221,6.6221,6.6221,6.6311,6.67,6.637,6.5682,6.4485,6.4096,6.3857,6.3407,6.3197,6.3108,6.3108,6.3108,6.3108,6.3108,6.3108,6.3108,6.3108,6.3108,6.2718,6.1642,6.245,6.266,6.1613,6.248,6.3108,6.3108,6.3108,6.3108,6.3108,6.3108,6.3108,6.3108,6.3108,6.2838,6.2301,6.2181,6.2181,6.2301,6.2151,6.2091,7.1586,7.2166,7.2166,7.025,6.787,6.4297,5.7884,5.3588,4.9664,4.5024,4.3166,4.2498,4.2905,4.4313,4.7072,5.2264,5.566,6.0218,6.7699,7.1055,7.4001,7.7412,7.9537,8.0704,8.0704,8.1302,8.1452,8.0853,8.0794,8.0494,7.9776,7.9716,7.9447,7.8819,7.8729,7.84,7.7711,7.7048,7.6425,7.5796,7.5168,7.4903,7.4903,7.4903,7.4903,7.4903,7.4903,7.4903,7.4843,7.4091,7.3462,7.2834,7.2086,7.1427,7.0889,7.0889,7.0889,7.0889,7.0829,7.0769,7.053,6.9303,6.8076,6.7059,6.6999,6.6999,6.6969,6.6909,6.6909,6.6909,6.6909,6.6909,6.6759,6.6221,6.6041,6.5802,6.5054,6.4455,6.3977,6.3917,6.3468,6.3108,6.3108,6.3108,6.3108,6.3108,6.3108,6.3108,6.3108,6.3108,6.3048,6.2928,6.3048,6.3048,6.2928,6.3048,6.3108,6.3108,6.3108,6.3108,6.3108,6.3108,6.3108,6.3108,6.3108,6.3078,6.3018,6.2391,6.2391,6.2988,6.2361,6.2091,7.0715,7.1557,7.1586,6.967,6.6937,6.3194,5.7187,5.2833,4.8938,4.4843,4.2992,4.2266,4.2876,4.3398,4.528,4.9935,5.114,5.4099,6.1574,6.4457,6.7897,7.3582,7.6724,7.9178,8.1212,8.2028,8.2297,8.2028,8.2028,8.1512,8.0464,8.0045,7.9507,7.8819,7.8789,7.846,7.7831,7.7137,7.6479,7.5886,7.5198,7.4903,7.4903,7.4903,7.4903,7.4903,7.4903,7.4903,7.4873,7.418,7.3732,7.3402,7.2295,7.1727,7.1457,7.1038,7.0889,7.0889,7.0889,7.0649,7.0201,6.9303,6.8375,6.7538,6.7119,6.6999,6.6999,6.6999,6.6999,6.6999,6.6999,6.6999,6.6939,6.667,6.661,6.643,6.5772,6.5054,6.4485,6.4066,6.3498,6.3108,6.3108,6.3108,6.3108,6.3108,6.3108,6.3108,6.3108,6.3108,6.3108,6.3108,6.3108,6.3108,6.3108,6.3108,6.3108,6.3108,6.3108,6.3108,6.3108,6.3108,6.3108,6.3108,6.3108,6.3108,6.3108,6.2838,6.2838,6.3108,6.2838,6.306,6.9002,7.0192,7.0366,6.8417,6.566,6.1976,5.6403,5.2165,4.8444,4.4966,4.3108,4.2266,4.2876,4.2992,4.4073,4.7339,4.8148,5.0844,5.7902,6.0764,6.4636,7.1398,7.4599,7.7472,8.0584,8.2058,8.2806,8.2806,8.2627,8.2028,8.0853,8.0165,7.9507,7.8819,7.8789,7.846,7.7831,7.7137,7.6479,7.5886,7.5198,7.4903,7.4903,7.4903,7.4903,7.4903,7.4903,7.4903,7.4873,7.436,7.3941,7.3522,7.2565,7.1936,7.1547,7.1068,7.0889,7.0889,7.0889,7.062,7.0111,6.9273,6.8675,6.8137,6.7238,6.6999,6.6999,6.6999,6.6999,6.6999,6.6999,6.6999,6.6999,6.6999,6.6999,6.6879,6.64,6.5592,6.4845,6.4395,6.3647,6.3108,6.3108,6.3108,6.3108,6.3108,6.3108,6.3108,6.3108,6.3108,6.3108,6.3108,6.3108,6.3108,6.3108,6.3108,6.3108,6.3108,6.3108,6.3108,6.3108,6.3108,6.3108,6.3108,6.3422,6.3422,6.3108,6.3762,6.393,6.3706,6.4043,6.4844,6.6244,6.787,6.8359,6.6415,6.4009,6.0787,5.5678,5.1501,4.7961,4.5401,4.3398,4.2266,4.2876,4.2992,4.3449,4.4727,4.791,5.2331,5.8512,6.2378,6.6632,7.2232,7.4091,7.5951,7.8579,8.125,8.2806,8.2806,8.2208,8.1512,8.0823,8.0165,7.9507,7.8819,7.8789,7.846,7.7831,7.7137,7.6479,7.5886,7.5198,7.4903,7.4903,7.4903,7.4903,7.4903,7.4903,7.4903,7.4903,7.4903,7.4091,7.2924,7.2924,7.2086,7.0919,7.0889,7.0889,7.0889,7.0889,7.0889,7.0679,6.9423,6.9004,6.8734,6.7388,6.6999,6.6999,6.6999,6.6999,6.6999,6.6999,6.6999,6.6999,6.6999,6.6999,6.6999,6.6969,6.5951,6.4994,6.4994,6.3977,6.3108,6.3108,6.3108,6.3108,6.3108,6.3108,6.3108,6.3108,6.3108,6.3108,6.3108,6.3108,6.3108,6.3108,6.3108,6.3108,6.3108,6.3108,6.3108,6.3108,6.3108,6.3108,6.3108,6.4125,6.4153,6.3108,6.5309,6.5924,6.5083,6.6233,6.7502,6.0671,6.1948,6.247,6.0526,5.8464,5.6026,5.2659,4.9582,4.6917,4.5249,4.3718,4.2905,4.3544,4.3689,4.5178,4.9678,5.0789,5.3204,5.9301,6.288,6.6518,7.0976,7.6729,8.0621,8.1459,8.2297,8.2806,8.2806,8.2178,8.1512,8.0823,8.0165,7.9507,7.8819,7.8789,7.846,7.7831,7.7137,7.6479,7.5886,7.5198,7.4903,7.4903,7.4903,7.4903,7.4903,7.4903,7.4903,7.4903,7.4903,7.4663,7.418,7.3283,7.2654,7.2176,7.1248,7.0889,7.0889,7.0889,7.0889,7.0769,6.9931,6.9363,6.8824,6.7958,6.7389,6.6999,6.6999,6.667,6.6311,6.6311,6.6311,6.6311,6.6311,6.667,6.6999,6.6999,6.5951,6.4994,6.4994,6.3977,6.3108,6.3108,6.3108,6.3108,6.3108,6.3108,6.3108,6.3108,6.3108,6.3108,6.3108,6.3108,6.3108,6.3108,6.3108,6.3108,6.3108,6.3108,6.3108,6.3108,6.3789,6.4181,6.4181,6.5278,6.579,6.5625,6.6343,6.6627,6.6543,6.768,6.8494,5.6287,5.7623,5.8058,5.6607,5.4809,5.2804,5.0481,4.7956,4.5808,4.4763,4.3565,4.2868,4.3485,4.403,4.5607,4.9477,5.1013,5.3558,5.876,6.2581,6.6727,7.1816,7.7687,8.1399,8.1631,8.2357,8.2806,8.2806,8.1931,8.1242,8.0823,7.9926,7.9238,7.8789,7.8789,7.846,7.7831,7.7137,7.6479,7.5886,7.5198,7.4903,7.4903,7.4903,7.4903,7.4903,7.4903,7.4903,0.0,7.4903,7.4604,7.4061,7.3223,7.2595,7.2056,7.1218,7.0889,7.0889,7.0889,7.0889,7.0799,7.0203,6.9395,6.8495,6.7838,6.7329,6.6999,6.6999,6.67,6.6311,6.6071,6.6011,6.5951,6.5682,6.6131,6.661,6.661,6.5772,6.4994,6.4994,6.3977,6.3108,6.3108,6.3108,6.3108,6.3108,6.3108,6.3108,6.3108,6.3108,6.3108,6.3108,6.3108,6.3137,6.3252,6.3165,6.3108,6.3108,6.3194,6.3422,6.3845,6.4623,6.5223,6.5652,6.6763,6.7228,6.6964,6.7477,6.8007,6.8634,6.9427,6.9817,0.0,5.4255,5.4691,5.3967,5.2484,5.0631,4.8774,4.6505,0.0,4.4117,4.3021,4.2411,4.3195,4.4233,4.5229,4.6004,4.9719,5.3847,5.7746,6.2375,6.7795,7.454,7.7532,7.9327,7.9956,8.1691,8.2776,8.2747,8.1512,8.0764,8.0734,7.9507,7.8789,7.8789,7.8729,7.84,7.7741,7.7108,7.645,7.5826,7.5198,7.4903,7.4903,7.4903,7.4903,7.4903,7.4903,7.4903,7.4903,7.4903,7.4121,7.2984,7.2924,7.2116,7.0979,7.0919,7.0889,7.0889,7.0889,7.0889,7.0799,7.0141,6.9065,6.7868,6.7178,6.6999,6.6999,6.6999,6.6969,6.6759,6.6101,6.5951,6.5742,6.5084,6.5473,6.6011,6.6011,6.5473,6.4994,6.4994,6.3977,6.3108,6.3108,6.3108,6.3108,6.3108,6.3108,6.3108,6.3108,6.3108,6.3108,6.3137,6.3223,6.3337,6.3622,6.3338,6.3137,6.3165,6.3451,6.4099,6.5083,6.5602,6.6317,6.7324,6.8437,6.8511,6.7477,6.8724,6.9902,7.0939,7.1199,7.1289,4.5401,0.0,4.9175,4.755,4.6795,4.6214,0.0,4.424,4.3565,4.3921,4.334,4.3573,4.6208,4.6121,4.7602,5.3521,5.54,5.7837,6.2647,6.8623,7.4172,7.8849,8.089,8.1938,8.2088,8.2537,8.2597,8.2088,8.1272,8.0584,8.0075,7.9238,7.8789,7.8789,7.831,7.7711,7.7018,7.6868,7.6245,7.5108,7.4993,7.4903,7.4903,7.4903,7.4903,7.4903,7.4903,7.4903,7.4903,7.4903,7.439,7.3612,7.3103,7.2385,7.1577,7.1098,7.0889,7.0889,7.0889,7.0889,7.0709,6.9602,6.8645,6.7868,6.7178,6.6999,6.6999,6.6999,6.664,6.6071,6.5413,6.5233,6.5054,6.4395,6.5144,6.6011,6.6011,6.5473,6.4994,6.4994,6.3977,6.3108,6.3108,6.3108,6.3108,6.3108,6.3108,6.3108,6.3108,6.3108,6.3194,6.3395,6.4125,6.4761,6.5063,6.4073,6.3538,6.3766,6.4629,6.5227,6.5467,6.7177,6.8246,6.8519,6.977,7.0296,7.0029,7.0551,7.0961,7.1222,7.1267,7.1289,4.3689,4.5801,4.7544,4.6498,4.6237,4.615,4.583,4.4117,4.2673,4.305,4.305,4.3644,4.5812,4.7118,4.9488,5.4459,5.7333,6.1103,6.7276,7.2574,7.7023,8.0405,8.1998,8.2806,8.2806,8.2806,8.2537,8.1878,8.1183,8.0524,7.9866,7.9178,7.8789,7.8789,7.816,7.7652,7.7257,7.6659,7.6036,7.5347,7.5053,7.4903,7.4903,7.4903,7.4903,7.4903,7.4903,7.4903,7.4903,7.4574,7.4031,7.3373,7.2714,7.2026,7.1398,7.1038,7.0889,7.0889,7.0889,7.0709,7.026,6.8944,6.8317,6.7868,6.7178,6.6999,6.6999,6.6999,6.652,6.5862,6.5174,6.4755,6.4395,6.3737,6.4605,6.5443,6.5144,6.5024,6.4904,6.4575,6.3767,6.3108,6.3108,6.3108,6.3108,6.3108,6.3108,6.3308,6.3958,6.4043,6.432,6.5114,6.5732,6.618,6.6501,6.5817,6.5417,6.5471,6.6137,6.6763,6.7222,6.8536,6.9499,6.9982,7.0699,7.1075,7.1075,7.1222,7.1289,7.1289,7.1289,7.1289,4.4552,4.6614,4.8212,4.7544,4.766,4.7805,4.7341,4.4705,4.2382,4.2382,4.2876,4.3774,4.5347,4.8372,5.1469,5.4069,5.8659,6.4338,7.1365,7.5018,7.7921,8.0494,8.1908,8.2687,8.2776,8.2627,8.2268,8.1661,8.1033,8.0345,7.9686,7.9118,7.8729,7.8639,7.8011,7.7622,7.7532,7.6455,7.5856,7.5736,7.5172,7.4903,7.4903,7.4903,7.4903,7.4903,7.4903,7.4843,7.4723,7.4121,7.3373,7.2565,7.2086,7.1427,7.0769,7.0859,7.0889,7.0889,7.0799,7.029,6.9514,6.8377,6.7928,6.7748,6.7148,6.6909,6.6849,6.6849,6.643,6.5862,6.5174,6.4515,6.3827,6.3257,6.4006,6.4665,6.4126,6.4455,6.4695,6.4185,6.3585,6.3194,6.3223,6.3252,6.3309,6.3451,6.348,6.3958,6.5247,6.5436,6.5888,6.7113,6.7394,6.7629,6.7914,6.8089,6.8057,6.7856,6.7881,6.8412,6.949,6.9784,7.0366,7.1289,7.1289,7.1289,7.1289,7.1289,7.1289,7.1289,7.1289,7.1289,4.4436,4.7898,5.0104,4.6295,4.6969,4.7845,4.5198,4.4124,4.3689,4.3689,4.4182,4.6043,5.0788,5.2205,5.4622,6.064,6.4871,6.9017,7.3791,7.6275,7.843,8.0554,8.1482,8.2178,8.2747,8.1751,8.1063,8.0943,8.0345,7.9656,7.8998,7.8849,7.8519,7.7981,7.7287,7.6724,7.6215,7.6006,7.5617,7.5018,7.4963,7.4903,7.4903,7.4903,7.4903,7.4903,7.4903,7.4604,7.4031,7.3941,7.2834,7.1248,7.1697,7.1191,7.0201,7.0709,7.0889,7.0829,7.032,6.9335,6.8287,6.8077,6.7628,6.7119,6.7029,6.661,6.6161,6.6161,6.6071,6.5862,6.5174,6.4515,6.3827,6.3257,6.3617,6.4126,6.4006,6.4066,6.4185,6.4388,6.3874,6.3538,6.3823,6.388,6.4188,6.5063,6.5227,6.5629,6.6725,6.6855,6.7067,6.7477,6.8355,6.9024,6.9346,7.0193,7.0722,7.0676,6.9865,6.9865,7.0905,7.103,7.112,7.1289,7.1289,7.1289,7.1289,7.1289,7.1289,7.1289,7.1289,7.1289,4.334,4.6156,4.8362,4.7666,5.0343,5.2654,5.0845,4.9525,4.867,4.867,4.9116,5.045,5.344,5.5437,5.8796,6.5289,6.9227,7.2372,7.5078,7.7442,7.9357,8.0644,8.1392,8.1938,8.2238,8.1362,8.0644,8.0285,7.9949,7.9507,7.8819,7.846,7.813,7.7831,7.6844,7.6185,7.5916,7.5527,7.5198,7.4903,7.4903,7.4903,7.4903,7.4903,7.4903,7.4903,7.4903,7.43,7.3343,7.2954,7.2056,7.0889,7.0859,7.0709,7.05,7.0799,7.047,6.9782,6.9155,6.8287,6.7419,6.7029,6.6939,6.6939,6.658,6.6372,6.6162,6.5832,6.5323,6.4844,6.4545,6.3977,6.3438,6.3168,6.3558,6.3975,6.3761,6.4,6.4266,6.4252,6.4006,6.3991,6.474,6.4847,6.5227,6.6317,6.6443,6.6912,6.8099,6.8306,6.8601,6.9523,7.0053,7.0412,7.0528,7.1007,7.1289,7.1289,7.0848,7.0768,7.1289,7.1289,7.1289,7.1289,7.1289,7.1289,7.1289,7.1289,7.1289,7.1289,7.1289,7.1289,4.3108,4.5082,4.7201,4.9905,5.3043,5.556,5.6023,5.4472,5.3229,5.4221,5.4783,5.5397,5.6463,5.9634,6.3831,6.9062,7.2535,7.4988,7.6185,7.834,8.0016,8.0494,8.1003,8.1392,8.1542,8.0823,8.0195,7.9836,7.9656,7.9267,7.8579,7.8071,7.7682,7.7382,7.6425,7.5826,7.5677,7.5172,7.4903,7.4903,7.4903,7.4903,7.4903,7.4903,7.4903,7.4903,7.4753,7.4001,7.2864,7.2176,7.1398,7.0649,7.032,7.05,7.0889,7.0739,6.9961,6.8884,6.8046,6.7479,6.7001,6.6342,6.6492,6.6883,6.6372,6.6162,6.6038,6.5495,6.4716,6.403,6.4151,6.376,6.3309,6.3309,6.367,6.3996,6.3997,6.4384,6.4767,6.4832,6.485,6.5122,6.6031,6.619,6.6554,6.7629,6.7806,6.8256,6.9537,6.968,7.009,7.1165,7.1289,7.1222,7.1075,7.1041,7.1041,7.1041,7.1041,7.112,7.1289,7.1289,7.1289,7.1289,7.1289,7.1289,7.1289,7.1289,7.1289,7.1289,7.1289,7.1289,4.5017,4.7085,4.9267,5.243,5.2191,5.2144,5.5962,5.5366,5.5086,5.9042,5.9809,6.0308,6.184,6.6039,7.0021,7.2265,7.4834,7.6838,7.7562,7.8908,7.9836,7.9896,7.9889,8.0195,8.0823,7.9686,7.9178,7.9776,7.9238,7.8579,7.7921,7.7831,7.7263,7.6066,7.5946,7.5587,7.4993,7.4933,7.4903,7.4903,7.4903,7.4903,7.4903,7.4903,7.4903,7.4873,7.424,7.3552,7.2864,7.2176,7.1158,7.0143,7.062,7.0859,7.0829,7.026,6.9602,6.8824,6.7508,6.7243,6.7336,6.6673,6.6671,6.6879,6.6849,6.5999,6.4998,6.4968,6.4482,6.4118,6.4696,6.4391,6.3936,6.3936,6.3967,6.4277,6.5227,6.5503,6.588,6.7099,6.7356,6.7458,6.7845,6.7921,6.8271,6.9379,6.9523,6.9935,7.1007,7.1143,7.1199,7.1289,7.1289,7.1041,7.0331,7.0285,7.0285,7.0285,7.0285,7.0601,7.1255,7.1289,7.1289,7.1289,7.1289,7.1289,7.1289,7.1289,7.1289,7.1289,7.1289,7.1289,4.3507,4.6227,4.9148,5.2213,5.3771,5.544,5.8792,6.0108,6.1579,6.5023,6.5739,6.5769,6.598,6.8523,7.0919,7.2086,7.4839,7.7018,7.7711,7.8968,7.977,7.977,7.977,7.9746,7.9567,7.8729,7.813,7.7945,7.7711,7.7472,7.7167,7.6844,7.6395,7.5916,7.5497,7.5172,7.4903,7.4903,7.4903,7.4903,7.4903,7.4903,7.4903,7.4903,7.442,7.3642,7.3402,7.2445,7.1068,7.0799,7.041,7.0023,7.0231,7.032,7.0293,6.9795,6.8988,6.8027,6.7729,6.7427,6.7153,6.6911,6.6849,6.6847,6.6452,6.5809,6.513,6.4702,6.5066,6.5378,6.4549,6.4677,6.4985,6.4985,6.5494,6.6132,6.6736,6.6841,6.7074,6.7763,6.7921,6.8172,6.8968,6.9114,6.9451,7.0538,7.0699,7.0814,7.1244,7.1289,7.1289,7.1289,7.0906,7.05,7.0195,6.9755,6.9519,6.9519,6.9947,7.0534,7.1255,7.1289,7.1289,7.1289,7.1289,7.1289,7.1289,7.1289,7.1289,7.1289,7.1289,7.1289,4.3394,4.6357,4.9804,5.3016,5.5728,5.8645,6.2381,6.4039,6.5942,7.0017,7.0201,6.9512,6.9305,7.0141,7.1248,7.2355,7.4779,7.6719,7.7412,7.8244,7.8842,7.8842,7.8842,7.8663,7.822,7.7771,7.7287,7.6838,7.6779,7.6719,7.6509,7.6125,7.5796,7.5587,7.5138,7.4903,7.4903,7.4903,7.4813,7.4569,7.436,7.424,7.424,7.424,7.3522,7.2265,7.2265,7.1517,7.026,7.026,7.0205,7.0121,7.0121,7.0065,6.9921,6.9417,6.8695,6.791,6.7728,6.7573,6.7419,6.7206,6.7144,6.711,6.647,6.6169,6.5911,6.5228,6.6013,6.6722,6.5584,6.5848,6.6401,6.6401,6.697,6.7629,6.8164,6.8264,6.8412,6.9017,6.9114,6.9331,7.0076,7.0226,7.0436,7.1199,7.1289,7.1289,7.1289,7.1289,7.1188,7.0973,7.05,7.0116,6.9857,6.9147,6.8842,6.9079,6.935,6.9823,7.0545,7.0838,7.0838,7.0635,7.0635,7.0737,7.0973,7.0973,7.1052,7.1289,7.1289,7.1289,4.539,4.7956,5.1571,5.544,5.7894,6.0814,6.6358,6.6382,6.706,7.3571,7.2774,7.1128,7.1787,7.1368,7.1577,7.3552,7.5018,7.6125,7.6689,7.6779,7.6779,7.6779,7.6779,7.6779,7.6779,7.6779,7.6779,7.6779,7.6779,7.6509,7.5916,7.5886,7.5587,7.4933,7.4903,7.4903,7.4903,7.4903,7.4574,7.3881,7.3223,7.286,7.2894,7.286,7.2176,7.0889,7.0889,7.0889,7.0889,7.0889,7.0723,7.0409,7.0409,7.0176,6.979,6.9123,6.888,6.8729,6.7423,6.763,6.8295,6.7651,6.7672,6.7781,6.7104,6.7205,6.7376,6.6707,6.7292,6.8129,6.8129,6.8097,6.8122,6.8097,6.8097,6.842,6.9475,6.9713,7.0029,7.1075,7.1289,7.1289,7.1289,7.1289,7.1289,7.1289,7.1289,7.1289,7.1289,7.1289,7.1007,7.0285,7.0184,6.9857,6.9147,6.8368,6.8233,6.9045,6.8335,6.8267,6.9079,6.9789,6.9857,6.9113,6.9113,6.9451,7.0184,7.0184,7.0567,7.1289,7.1289,7.1289,4.4358,4.8712,5.4069,5.5883,6.0723,6.588,6.8916,6.9271,7.0079,7.4053,7.4274,7.3492,7.2744,7.2834,7.3043,7.3193,7.4719,7.5976,7.6155,7.6509,7.6779,7.6779,7.6779,7.6629,7.6215,7.6185,7.5976,7.5497,7.5437,7.5377,7.5198,7.5198,7.5113,7.4933,7.4903,7.4903,7.4903,7.3941,7.3402,7.3193,7.2056,7.1727,7.2176,7.1727,7.1038,7.026,7.026,7.026,7.0323,7.0998,7.0916,7.038,7.0179,6.9729,6.9123,6.8727,6.8543,6.8542,6.8382,6.8499,6.8857,6.9478,6.907,6.8449,6.9041,6.8592,6.7882,6.7656,6.8395,6.9235,6.9235,6.9794,7.0156,6.9403,6.9794,7.0446,7.0745,7.0814,7.0916,7.1244,7.1289,7.1289,7.1289,7.1289,7.1289,7.1289,7.1289,7.1289,7.1289,7.0838,7.0432,7.0217,6.9214,6.8504,6.8267,6.803,6.7793,6.7523,6.8267,6.8842,6.9079,6.9316,6.9316,6.9113,6.9113,6.9214,6.9417,6.9417,6.9789,7.05,6.9992,7.0026,4.7988,5.258,5.7868,6.0001,6.4338,6.8808,7.1583,7.2242,7.2753,7.454,7.4484,7.4001,7.3762,7.3582,7.3552,7.3672,7.4719,7.5497,7.5497,7.5826,7.6066,7.6066,7.6066,7.5916,7.5527,7.5497,7.5318,7.4933,7.4903,7.4903,7.4903,7.4903,7.4903,7.4903,7.436,7.4091,7.4091,7.2774,7.2116,7.2086,7.1038,7.0739,7.1131,7.0709,7.0051,6.9245,6.9911,7.0249,7.0406,7.0958,7.0754,7.0001,6.9792,6.9428,6.8937,6.9187,6.8974,6.8741,6.9867,6.9768,6.9353,7.081,7.0308,6.9266,6.9976,6.9711,6.9083,6.8814,6.9499,7.0343,7.0343,7.0825,7.1154,7.0482,7.0814,7.1289,7.1289,7.1289,7.1289,7.1289,7.1289,7.1289,7.1289,7.1289,7.1289,7.1289,7.1289,7.1188,7.0906,7.0466,6.998,6.935,6.8436,6.7895,6.7895,6.7624,6.7421,6.7252,6.7827,6.8199,6.8199,6.847,6.8504,6.8199,6.8199,6.8335,6.8605,6.8605,6.9055,6.9853,6.9412,6.949,5.3799,5.771,6.2061,6.5922,6.8226,7.047,7.4095,7.4903,7.4903,7.4903,7.3971,7.3522,7.4693,7.3881,7.3492,7.4723,7.4903,7.4903,7.4903,7.4903,7.4903,7.4903,7.4903,7.4903,7.4903,7.4903,7.4903,7.4903,7.4903,7.4903,7.4903,7.4903,7.4903,7.4903,7.3612,7.2924,7.2924,7.1457,7.0769,7.0831,7.0115,6.9847,6.9907,6.9967,6.9308,6.8292,6.9901,7.0728,7.0979,7.1104,7.0587,6.9695,6.9756,6.9533,6.9354,7.0347,7.0095,6.9497,7.1497,7.1075,6.9958,7.1686,7.1317,7.0189,7.0343,7.056,7.0623,7.0007,7.0561,7.1289,7.1289,7.1289,7.1289,7.1289,7.1289,7.1289,7.1289,7.1289,7.1289,7.1289,7.1289,7.1289,7.1289,7.1289,7.1289,7.1188,7.1188,7.0939,7.0195,7.0048,6.9451,6.803,6.7827,6.7793,6.7793,6.7184,6.7096,6.776,6.7184,6.6791,6.6791,6.7455,6.7489,6.6791,6.6812,6.7172,6.7836,6.7836,6.837,6.9344,6.9276,6.9348,5.1012,5.5952,6.1913,6.5353,6.9931,7.3855,7.4723,7.4903,7.4903,7.4903,7.5078,7.5198,7.4963,7.4663,7.454,7.4873,7.4903,7.4903,7.4903,7.4903,7.4903,7.4903,7.4903,7.4903,7.4903,7.4903,7.4903,7.4903,7.4903,7.4903,7.4903,7.4903,7.4903,7.4903,7.3612,7.2924,7.2924,7.059,6.9789,7.0586,6.8841,6.8453,6.9243,6.9477,6.9569,6.9637,7.083,7.1405,7.1554,7.2727,7.2733,7.2114,7.2369,7.2119,7.1588,7.1832,7.1778,7.1578,7.1481,7.1164,7.0944,7.1665,7.1293,7.0748,7.1656,7.1551,7.1141,7.0995,7.1098,7.1289,7.1289,7.1289,7.1289,7.1289,7.1289,7.1289,7.1289,7.1289,7.1289,7.1289,7.1289,7.1289,7.1289,7.1289,7.1109,7.0534,7.0432,7.0161,6.9417,6.8774,6.8267,6.7929,6.7387,6.7028,6.7028,6.6893,6.6859,6.7049,6.6893,6.6791,6.6791,6.6927,6.696,6.6791,6.7014,6.7186,6.7356,6.7488,6.7966,6.8779,6.8199,6.8254,5.2282,5.7165,6.2839,6.8016,7.2116,7.4903,7.4903,7.4903,7.4903,7.4903,7.5168,7.5288,7.4963,7.4903,7.4903,7.4903,7.4903,7.4903,7.4903,7.4903,7.4903,7.4903,7.4903,7.4903,7.4903,7.4903,7.4783,7.442,7.4121,7.3791,7.3496,7.3133,7.2984,7.2984,7.1727,7.1103,7.1236,6.9586,6.9081,6.9725,6.958,7.0144,7.1278,7.0425,7.0098,7.0282,7.1956,7.226,7.1688,7.302,7.3181,7.2563,7.2757,7.2611,7.2367,7.2894,7.2568,7.1863,7.2593,7.2,7.1158,7.225,7.1884,7.1141,7.2099,7.1887,7.1289,7.1289,7.1289,7.1289,7.1289,7.1289,7.1289,7.1289,7.1289,7.1289,7.1289,7.1289,7.1289,7.1289,7.1289,7.1289,7.1289,7.1007,7.0635,7.0263,6.9891,6.9383,6.8605,6.8166,6.776,6.7421,6.7028,6.6791,6.6791,6.6791,6.6791,6.6791,6.6896,6.7014,6.7014,6.7063,6.7084,6.7014,6.7222,6.7346,6.7346,6.7469,6.7742,6.8186,6.7778,6.7886,5.3408,5.8497,6.3917,7.0829,7.3642,7.4753,7.4753,7.4843,7.4903,7.4903,7.4903,7.4903,7.4903,7.4903,7.4903,7.4903,7.4903,7.4903,7.4903,7.4903,7.4813,7.4569,7.4574,7.445,7.4244,7.4334,7.4091,7.3432,7.2984,7.2445,7.1757,7.1188,7.0951,7.0954,6.9726,6.9194,6.9477,6.8785,6.8606,6.9002,7.0814,7.2312,7.3504,7.1893,7.1082,7.1005,7.2987,7.316,7.2094,7.3242,7.3364,7.2894,7.2894,7.2803,7.2835,7.3896,7.314,7.1851,7.3764,7.2915,7.1218,7.2681,7.2293,7.1391,7.2022,7.1785,7.1289,7.1289,7.1289,7.1289,7.1289,7.1289,7.1289,7.1289,7.1289,7.1289,7.1289,7.1289,7.1289,7.1289,7.1289,7.1255,7.1142,7.0601,7.0116,6.9823,6.9282,6.8605,6.7827,6.7726,6.7489,6.6859,6.6791,6.6812,6.6854,6.6854,6.6875,6.6917,6.7139,6.7243,6.7243,6.7448,6.7516,6.7496,6.7516,6.7618,6.7725,6.7642,6.7718,6.8018,6.7831,6.7868,4.8678,5.6042,6.4305,6.9782,7.2624,7.4031,7.4031,7.448,7.4903,7.4903,7.4903,7.4903,7.4903,7.4903,7.4903,7.4903,7.4903,7.4903,7.4903,7.4903,7.445,7.3313,7.3163,7.2714,7.1547,7.1936,7.1996,7.1338,7.1757,7.1727,7.1068,7.0949,7.1018,7.1309,7.0045,6.9508,6.9819,6.8668,6.8485,6.9335,7.0875,7.1899,7.252,7.3247,7.3311,7.2962,7.3659,7.3855,7.3756,7.4928,7.5334,7.5234,7.5234,7.4863,7.4392,7.5176,7.4512,7.3262,7.3519,7.2979,7.211,7.174,7.1458,7.1323,7.1447,7.1357,7.1289,7.1289,7.1289,7.1289,7.1289,7.1289,7.1289,7.1289,7.1289,7.1289,7.1289,7.1289,7.1289,7.1289,7.1289,7.1109,7.0466,7.0285,6.9744,6.8402,6.8132,6.7793,6.7028,6.6927,6.6893,6.6791,6.6791,6.6875,6.7118,6.7139,6.7222,6.7407,6.7448,6.7469,6.7469,6.7658,6.8064,6.8673,6.8083,6.8083,6.8711,6.8183,6.8289,6.889,6.8194,6.7875,5.0444,5.6974,6.3318,6.8974,7.1308,7.2415,7.3163,7.3582,7.3672,7.3316,7.3226,7.3552,7.4693,7.4903,7.4903,7.4903,7.427,7.3762,7.3762,7.3133,7.2445,7.1846,7.1787,7.1613,7.1208,7.145,7.1425,7.0955,7.0834,7.0503,6.9839,6.9085,6.8725,6.8878,6.7941,6.7905,6.8844,6.9054,7.0292,7.2526,7.2174,7.2765,7.4181,7.4056,7.3532,7.2821,7.4322,7.4588,7.4056,7.4806,7.51,7.5033,7.4627,7.4255,7.4018,7.4356,7.3781,7.2868,7.2868,7.2394,7.1751,7.1391,7.1289,7.1289,7.1289,7.1289,7.1289,7.1289,7.1289,7.1289,7.1289,7.1289,7.1289,7.1289,7.1289,7.1289,7.1289,7.1289,7.1176,7.077,7.0669,7.0432,6.9722,6.9214,6.8673,6.7996,6.7557,6.7227,6.7048,6.7035,6.7077,6.7167,6.7188,6.7229,6.7366,6.7366,6.7407,6.7475,6.7571,6.7607,6.7607,6.7762,6.8009,6.8311,6.8064,6.8274,6.9,6.8292,6.8109,6.843,6.8036,6.786,5.0571,5.5598,5.979,6.5951,6.8585,7.0051,7.1577,7.2295,7.2445,7.1787,7.1757,7.2388,7.3885,7.4005,7.3851,7.3851,7.3043,7.2415,7.2415,7.1613,7.0899,7.0569,7.0603,7.0643,7.0536,7.0656,7.057,7.0216,6.97,6.9184,6.8698,6.766,6.7018,6.7025,6.6905,6.7336,6.8414,6.9912,7.203,7.4749,7.339,7.3777,7.5652,7.4819,7.3955,7.3258,7.4966,7.5108,7.4189,7.4464,7.4492,7.4289,7.3713,7.3398,7.324,7.3432,7.2902,7.2157,7.2326,7.1921,7.1289,7.1289,7.1289,7.1289,7.1289,7.1289,7.1289,7.1289,7.1289,7.1289,7.1289,7.1289,7.1289,7.1289,7.1289,7.1289,7.1289,7.1154,7.0872,7.0297,7.0092,6.9742,6.903,6.8451,6.7997,6.7828,6.7319,6.7043,6.7243,6.7263,6.7346,6.7455,6.751,6.7496,6.7557,6.7553,6.759,6.7595,6.7685,6.7743,6.7743,6.7845,6.7997,6.8193,6.8018,6.8338,6.9052,6.8265,6.7952,6.8143,6.7894,6.7791,4.5254,4.8723,5.2342,5.8949,6.3468,6.6789,6.8764,7.062,7.1757,7.1098,7.1457,7.1906,7.2059,7.1517,7.1098,7.1098,7.1038,7.1009,7.1009,7.1208,7.0889,6.9624,6.9755,6.9487,6.8304,6.8668,6.8789,6.8212,6.8061,6.8031,6.8061,6.7681,6.7446,6.7378,6.8693,6.9446,6.9525,7.1316,7.2822,7.4046,7.3963,7.4539,7.5709,7.5628,7.558,7.5532,7.5662,7.5256,7.4566,7.458,7.4187,7.3567,7.3534,7.3071,7.2529,7.324,7.2597,7.1458,7.2157,7.1921,7.1289,7.1289,7.1289,7.1289,7.1289,7.1289,7.1289,7.1289,7.1289,7.1289,7.1289,7.1289,7.1289,7.1289,7.1289,7.1289,7.1289,7.0737,7.0251,7.0217,6.9795,6.9199,6.8472,6.847,6.8343,6.7626,6.7489,6.7455,6.7455,6.7455,6.751,6.751,6.751,6.7557,6.7779,6.7727,6.7764,6.7948,6.7902,6.7883,6.7883,6.7898,6.8242,6.8925,6.8186,6.8222,6.9012,6.818,6.8182,6.8839,6.8073,6.7707,4.3818,4.698,5.0152,5.5089,5.9279,6.263,6.4216,6.7059,6.9278,6.8806,6.926,6.9653,6.945,7.0219,7.1188,7.2056,7.0931,7.0068,7.0521,6.9781,6.8849,6.791,6.791,6.7726,6.705,6.7568,6.7961,6.7954,6.829,6.8858,6.961,6.9158,6.8973,6.9187,6.9758,7.0611,7.1765,7.3102,7.4228,7.5088,7.5088,7.508,7.4999,7.4999,7.4728,7.4289,7.4289,7.439,7.4536,7.3578,7.3037,7.2732,7.2259,7.1921,7.1751,7.1988,7.1751,7.1323,7.1616,7.1526,7.1289,7.1289,7.1289,7.1289,7.1289,7.1289,7.1289,7.1289,7.1289,7.1289,7.1289,7.1424,7.141,7.1066,7.0986,7.085,7.0373,7.0355,7.0289,6.9965,6.9335,6.8649,6.7919,6.7844,6.7783,6.7544,6.751,6.7571,6.7678,6.7699,6.7905,6.8536,6.8142,6.8055,6.859,6.8134,6.7849,6.7917,6.7887,6.7837,6.7837,6.7779,6.7898,6.8162,6.787,6.8126,6.8915,6.8126,6.7886,6.8128,6.7847,6.77,4.1504,4.4287,4.748,5.2336,5.5179,5.7749,6.1395,6.4093,6.5952,6.6521,6.7517,6.8304,6.8304,6.9178,7.019,7.1092,6.9958,6.9088,6.9541,6.8759,6.7967,6.745,6.7478,6.7473,6.7249,6.7777,6.831,6.8787,6.9126,6.9874,7.1123,7.0663,7.0636,7.1275,7.1254,7.1975,7.352,7.4498,7.51,7.5337,7.5337,7.4931,7.4221,7.4221,7.395,7.35,7.324,7.3409,7.3781,7.28,7.2259,7.1988,7.1515,7.1289,7.1289,7.1289,7.1289,7.1289,7.1289,7.1289,7.1289,7.1289,7.1289,7.1289,7.1289,7.1289,7.1312,7.1367,7.139,7.1412,7.1513,7.143,7.1243,7.0862,7.0597,7.0311,6.9896,6.9851,6.9744,6.9415,6.8802,6.8179,6.77,6.7658,6.7699,6.7699,6.7905,6.8143,6.8245,6.8497,6.8777,6.9139,6.8699,6.8469,6.8665,6.818,6.788,6.788,6.7798,6.7768,6.7768,6.7739,6.77,6.77,6.77,6.7958,6.8495,6.7958,6.77,6.77,6.77,6.77,0.0,0.0,0.0,5.0295,5.099,5.2234,6.0232,6.167,6.1934,6.4274,6.6333,6.794,6.8698,6.8364,6.7939,6.7969,6.7999,6.8,6.803,6.8269,6.8416,6.8415,6.8711,6.8917,6.8945,6.9271,6.9817,7.0532,7.0391,7.0889,7.2276,7.2089,7.2476,7.3487,7.3226,7.3545,7.4603,7.5303,7.5303,7.4603,7.457,7.4187,7.3466,7.3466,7.3466,7.3398,7.2665,7.236,7.236,7.236,7.1954,7.1289,7.1289,7.1289,7.1289,7.1289,7.1289,7.1289,7.1289,7.1289,7.1289,7.1289,7.1312,7.1312,7.1312,7.1312,7.1379,7.1556,7.1622,7.1666,7.1942,7.1404,7.0824,7.0811,7.023,6.9759,7.0031,6.931,6.8631,6.861,6.8192,6.7819,6.7805,6.7984,6.8123,6.8128,6.8768,6.9218,6.9218,6.9849,6.9979,6.9213,6.9106,6.8749,6.798,6.7853,6.78,6.78,6.7738,6.77,6.77,6.77,6.77,6.77,6.77,6.77,6.77,6.77,6.77,6.77,6.77,6.77,3.7973,0.0,0.0,0.0,0.0,0.0,5.1432,5.4032,5.7011,6.0841,6.2418,6.4026,6.6941,6.6938,6.6631,6.7122,6.7835,6.8481,6.8939,6.8871,6.8907,6.9236,6.861,6.8624,6.9824,6.9695,7.0008,7.1033,7.1481,7.2267,7.3464,7.3745,7.4006,7.4265,7.4232,7.431,7.4603,7.4796,7.4796,7.457,7.4052,7.3409,7.2699,7.2699,7.2428,7.1921,7.1684,7.1594,7.1594,7.1594,7.1458,7.1289,7.1289,7.1289,7.1289,7.1289,7.1289,7.1289,7.1289,7.1289,7.1289,7.1289,7.139,7.1512,7.1512,7.1656,7.181,7.1876,7.1898,7.1942,7.2159,7.1675,7.111,7.1265,7.0346,6.9574,7.0139,6.9617,6.9045,6.9112,6.8515,6.8009,6.7942,6.846,6.8877,6.8805,6.9495,6.9989,6.9989,6.9683,6.954,6.9865,6.8867,6.8295,6.859,6.8075,6.7735,6.7735,6.7716,6.77,6.77,6.77,6.77,6.77,6.77,6.77,6.77,6.77,6.77,6.77,6.77,6.77,4.0057,4.1881,4.4207,4.4155,0.0,0.0,4.9517,5.1068,5.3235,5.794,5.9614,6.1173,6.4186,6.5029,6.5573,6.6565,6.7815,6.8582,6.8375,6.8404,6.8674,6.9103,6.8573,6.8689,7.0086,7.0125,7.0474,7.1436,7.2031,7.2755,7.3736,7.4026,7.4153,7.4153,7.4153,7.4153,7.4153,7.4153,7.3984,7.368,7.324,7.2665,7.1954,7.1954,7.1718,7.1289,7.1289,7.1289,7.1289,7.1289,7.1289,7.1289,7.1289,7.1289,7.1312,7.139,7.1412,7.1434,7.1557,7.1602,7.1602,7.1602,7.1678,7.1788,7.1788,7.1637,7.1528,7.1615,7.1516,7.1348,7.1475,7.118,7.0913,7.103,7.0351,6.9817,7.0218,6.9954,6.9687,6.972,6.9346,6.9004,6.8982,6.9353,6.9637,6.9608,7.0251,7.0629,7.0306,7.0118,6.9927,6.9667,6.8823,6.8288,6.8394,6.7958,6.77,6.77,6.77,6.77,6.77,6.77,6.77,6.77,6.77,6.77,6.77,6.77,6.7517,6.7187,6.7187,6.704,4.3563,4.3985,4.5384,4.7892,4.6336,0.0,5.0886,5.0616,5.0489,5.4976,5.6909,5.8448,6.0609,6.2248,6.3639,6.4977,6.6844,6.793,6.7352,6.7722,6.8208,6.8703,6.8608,6.9037,7.0234,7.0626,7.1156,7.1941,7.2324,7.28,7.3466,7.35,7.3466,7.3398,7.3466,7.3466,7.3398,7.3398,7.3037,7.2394,7.2326,7.1954,7.1289,7.1289,7.1289,7.1289,7.1289,7.1289,7.1289,7.1334,7.1334,7.1312,7.1334,7.1334,7.1379,7.1556,7.1644,7.1666,7.192,7.1985,7.1985,7.1985,7.2007,7.2029,7.1926,7.1413,7.0952,7.1179,7.0973,7.0643,7.0643,7.0605,7.0559,7.0598,7.047,7.0351,7.0503,7.047,7.0436,7.052,7.0402,7.0298,7.0295,7.0348,7.0417,7.0413,7.0955,7.1117,7.0392,7.0741,7.0499,6.9032,6.8811,6.8495,6.7774,6.77,6.77,6.77,6.77,6.77,6.77,6.77,6.77,6.77,6.7627,6.7517,6.7444,6.7517,6.7187,6.6512,6.6402,6.5999,4.7034,4.8813,5.0628,4.6926,4.8845,0.0,4.5736,4.68,4.9003,4.9999,5.0882,5.2421,5.5506,5.6351,5.6648,5.695,6.0275,6.4352,6.8848,6.9072,6.9169,7.0148,6.9469,6.9697,7.174,7.1736,7.2035,7.3093,7.3249,7.3364,7.35,7.35,7.3229,7.2631,7.3172,7.3229,7.2631,7.2597,7.2529,7.2394,7.1819,7.1424,7.1289,7.1289,7.1289,7.1289,7.1289,7.1289,7.1312,7.1479,7.1457,7.1312,7.1479,7.1534,7.1556,7.1832,7.192,7.192,7.1963,7.1985,7.1985,7.1985,7.2115,7.2142,7.1525,7.1343,7.1381,7.1429,7.1774,7.2153,7.2153,7.1712,7.1462,7.2027,7.1213,7.0621,7.1794,7.1594,7.1375,7.1951,7.1115,7.0272,7.0217,7.0782,7.1173,7.1127,7.1231,7.1267,7.1121,7.0062,6.9252,6.8921,6.8311,6.7884,6.77,6.77,6.77,6.77,6.77,6.77,6.77,6.77,6.77,6.77,6.7063,6.6402,6.5765,6.6402,6.6659,6.6476,6.5852,6.5435,5.0706,5.1306,5.2374,5.0042,5.0334,0.0,0.0,4.7127,4.7773,5.0174,4.9312,4.9386,5.3446,5.4122,5.4379,5.541,5.9404,6.3153,6.54,6.7011,6.8248,6.9013,6.8612,6.9064,7.1109,7.1127,7.1404,7.2315,7.2056,7.1842,7.1842,7.1842,7.1684,7.1312,7.2022,7.2225,7.1853,7.1853,7.1853,7.1853,7.1458,7.1289,7.1289,7.1289,7.1289,7.1312,7.139,7.1457,7.1479,7.1722,7.1744,7.1668,7.1766,7.181,7.1832,7.2072,7.2159,7.2159,7.2309,7.2352,7.2352,7.2352,7.2381,7.238,7.1998,7.1717,7.1434,7.1014,7.1162,7.1443,7.1443,7.1432,7.1549,7.1926,7.1696,7.1594,7.2351,7.2211,7.2078,7.2438,7.1578,7.0936,7.1271,7.1353,7.1347,7.1301,7.094,7.055,7.0132,6.9398,6.8752,6.8348,6.7958,6.77,6.77,6.77,6.77,6.77,6.77,6.7517,6.71,6.7113,6.6916,6.6512,6.6109,6.5705,6.5288,6.5301,6.5301,6.5301,6.4897,6.4457,5.4952,5.4319,5.4404,5.3676,5.2214,5.082,0.0,0.0,0.0,5.0482,4.8604,4.7676,5.18,5.2313,5.2681,5.4547,5.8627,6.1085,5.9789,6.2956,6.5563,6.6012,6.6734,6.7669,6.898,6.9134,6.9485,7.0376,6.962,6.9304,6.9722,6.9891,7.0014,7.0014,7.0703,7.1086,7.1086,7.1244,7.1289,7.1289,7.1289,7.1289,7.1289,7.1356,7.1379,7.1379,7.1556,7.1666,7.1688,7.1963,7.205,7.205,7.205,7.205,7.2072,7.2309,7.2395,7.2416,7.2628,7.2797,7.2873,7.2714,7.2534,7.2391,7.2391,7.1959,7.1345,7.0682,7.0604,7.072,7.072,7.1163,7.1594,7.1594,7.2078,7.2459,7.2312,7.2275,7.2239,7.2055,7.149,7.1307,7.2129,7.16,7.105,7.105,7.0367,6.9633,6.8958,6.8752,6.8421,6.7774,6.77,6.77,6.77,6.7554,6.748,6.748,6.7333,6.6953,6.6292,6.6256,6.5888,6.5068,6.5081,6.4995,6.4811,6.4163,6.3956,6.4103,6.3906,6.3516,6.0434,6.1142,6.0957,5.4429,5.6146,5.6792,4.6808,0.0,4.8532,4.6038,0.0,4.6292,4.8122,0.0,0.0,4.8709,5.2068,5.428,5.3503,5.7174,6.0146,6.0854,6.3876,6.5727,6.529,6.5222,6.5831,6.7197,6.6034,6.6102,6.8064,6.8842,6.9214,6.9214,6.9925,7.0297,7.0297,7.0973,7.1289,7.1289,7.1289,7.1289,7.1312,7.1501,7.1556,7.1578,7.1854,7.1942,7.1963,7.218,7.2266,7.2266,7.2266,7.2266,7.2309,7.2565,7.2649,7.2649,7.2692,7.3121,7.3536,7.2831,7.2138,7.1641,7.1641,7.1515,7.1388,7.1295,7.1769,7.2241,7.2241,7.2299,7.238,7.238,7.2438,7.2312,7.16,7.1454,7.1233,7.0513,7.0293,7.0477,7.1307,7.077,7.022,7.022,6.9559,6.9009,6.8898,6.8274,6.7811,6.77,6.77,6.77,6.77,6.704,6.6623,6.6623,6.5962,6.5508,6.5435,6.5435,6.5081,6.4249,6.4249,6.387,6.3086,6.2976,6.3356,6.4066,6.3319,6.3124,6.1348,6.2177,6.2351,5.6985,5.6971,5.6501,4.9861,4.8164,4.8146,4.8706,0.0,0.0,0.0,0.0,0.0,0.0,5.1195,5.2235,5.0659,5.3129,5.6055,5.8524,6.0235,6.1569,6.2584,6.3057,6.3937,6.5425,6.4546,6.4749,6.6508,6.8199,6.8876,6.8402,6.9553,7.0217,7.0217,7.05,7.0872,7.1289,7.1412,7.1479,7.1479,7.1722,7.1832,7.1854,7.2072,7.218,7.2202,7.2437,7.2544,7.2586,7.2984,7.2915,7.2607,7.3162,7.3351,7.3342,7.3343,7.3552,7.3662,7.287,7.2396,7.2138,7.209,7.2054,7.2063,7.2063,7.2255,7.2496,7.2496,7.2496,7.2496,7.2496,7.2151,7.1711,7.138,7.094,7.0513,7.0183,6.9706,6.9522,6.9839,6.9633,6.9412,6.9412,6.8715,6.8201,6.8201,6.7921,6.77,6.77,6.77,6.7517,6.7026,6.6696,6.6292,6.5852,6.5044,6.4604,6.4604,6.4114,6.3673,6.3356,6.3627,6.3549,6.3217,6.3217,6.3401,6.3734,6.3088,6.305,6.2944,6.3657,6.3789,5.8584,5.6946,5.5545,5.1366,4.9151,4.8573,5.0658,4.953,0.0,0.0,0.0,4.891,4.9938,0.0,5.0777,4.8935,5.0101,5.2198,5.5108,5.6377,5.778,5.9877,5.981,6.0438,6.2313,6.14,6.1873,6.4343,6.644,6.759,6.759,6.9079,6.9992,7.0217,7.0487,7.0848,7.1367,7.1612,7.1688,7.171,7.1963,7.2072,7.2094,7.2309,7.2416,7.2459,7.2846,7.3012,7.308,7.3819,7.3655,7.3072,7.3581,7.3793,7.3783,7.3544,7.3476,7.3415,7.3032,7.2746,7.2548,7.2534,7.2349,7.2224,7.2459,7.2349,7.2224,7.2459,7.2349,7.2165,7.2165,7.1564,7.0903,7.0683,7.0183,6.9706,6.9486,6.8972,6.8568,6.8568,6.8568,6.8568,6.8568,6.8054,6.77,6.77,6.77,6.7627,6.7407,6.737,6.704,6.6256,6.5962,6.5485,6.4664,6.4192,6.3947,6.3947,6.3442,6.3122,6.2978,6.3445,6.3624,6.3502,6.3587,6.3718,6.3835,6.325,6.3215,6.7007,6.7598,6.6817,5.8045,5.6586,5.5451,4.8536,4.9133,5.0735,4.9291,5.1785,5.3849,5.2546,5.0996,4.9975,0.0,4.9526,0.0,0.0,4.7988,4.836,4.9187,5.2503,5.5277,5.6799,5.438,5.394,5.6833,5.504,5.6055,6.1163,6.2868,6.4661,6.6757,6.8335,6.9485,7.0195,7.1116,7.1566,7.16,7.1876,7.1985,7.1985,7.2202,7.2309,7.2309,7.2565,7.2692,7.2755,7.3457,7.376,7.3838,7.466,7.4474,7.3778,7.3796,7.3814,7.3672,7.2905,7.2625,7.2758,7.3433,7.3127,7.2504,7.2481,7.1967,7.149,7.2275,7.1931,7.1527,7.2312,7.1931,7.1344,7.1344,7.0734,6.9926,6.9155,6.8972,6.8715,6.7921,6.7774,6.7737,6.7737,6.7737,6.7737,6.7737,6.7737,6.77,6.77,6.77,6.7407,6.6623,6.6549,6.6219,6.5398,6.4604,6.3796,6.2939,6.3277,6.3516,6.3516,6.3867,6.3888,6.3479,6.385,6.3909,6.3502,6.3909,6.4331,6.473,6.3867,6.3685,6.8666,6.9581,6.9165,6.1694,5.9513,5.7687,5.1834,5.1678,5.2174,5.0109,5.2662,5.4688,5.2655,5.148,0.0,0.0,0.0,4.8022,0.0,4.6312,4.5974,4.6718,4.9661,5.1826,5.23,5.1894,5.2435,5.4465,5.482,5.6375,5.9588,6.2618,6.4783,6.6034,6.7705,6.9147,7.0403,7.0893,7.1398,7.1876,7.2094,7.2202,7.2202,7.2459,7.2811,7.3296,7.3377,7.3736,7.4226,7.4492,7.4604,7.4627,7.4884,7.4819,7.4585,7.4585,7.4261,7.3735,7.345,7.2999,7.2554,7.2827,7.2716,7.2496,7.2496,7.2312,7.2165,7.2422,7.2312,7.2041,7.1784,7.149,7.116,7.0624,6.9889,6.9229,6.8972,6.8495,6.8017,6.7737,6.77,6.77,6.77,6.726,6.71,6.7627,6.726,6.6916,6.6916,6.6439,6.5999,6.5742,6.5939,6.5779,6.4953,6.4416,6.3973,6.3674,6.3825,6.3909,6.3909,6.4016,6.4026,6.3919,6.434,6.4483,6.435,6.4483,6.4659,6.4783,6.3898,6.3879,7.0231,7.1017,7.0693,6.4463,6.2465,6.0545,5.493,5.4886,5.5357,5.3078,5.4685,5.6412,5.6163,5.3652,5.1707,0.0,0.0,4.7346,0.0,4.5229,4.5074,4.5263,4.7225,4.8748,4.9255,4.9052,4.9796,5.2131,5.2689,5.4346,5.766,6.0892,6.3469,6.5345,6.7288,6.9025,7.0587,7.1131,7.1636,7.2115,7.2581,7.2853,7.2873,7.3311,7.3775,7.4245,7.4245,7.4529,7.5029,7.5299,7.5262,7.5027,7.5288,7.5054,7.4529,7.4529,7.4019,7.3338,7.3303,7.2936,7.2496,7.2496,7.2496,7.2496,7.2496,7.2312,7.2114,7.2422,7.2092,7.1578,7.1344,7.0866,7.0316,6.9816,6.9045,6.8458,6.8458,6.8068,6.77,6.77,6.77,6.7627,6.7333,6.6843,6.6659,6.7187,6.6719,6.6282,6.6282,6.5952,6.5546,6.5115,6.5438,6.5363,6.4543,6.426,6.4086,6.4086,6.4273,6.436,6.436,6.4492,6.4501,6.436,6.4527,6.4495,6.432,6.4183,6.4136,6.4098,6.3557,6.3595]}]]